Wetterdaten: Samstag, 08.07.2023
Datum Zeit Temp. I. Temp. A. Feuchte I. Feuchte A. Luftdruck Regen Wind Richtung Richtung Sonnenschein Solar Taupunkt Windchill Windböen
08.07.2023 00:00 22,9 °C 14,8 °C 55 % 83 % 1020,4 hPa 0,0 l/m² 0,0 km/h (0 Bft) O-NO 59 ° 0 min 0 W/m² 11,9 °C 14,8 °C 0,0 km/h (0 Bft)
08.07.2023 00:02 22,9 °C 14,8 °C 55 % 83 % 1020,3 hPa 0,0 l/m² 0,0 km/h (0 Bft) O-NO 59 ° 0 min 0 W/m² 11,9 °C 14,8 °C 0,0 km/h (0 Bft)
08.07.2023 00:03 22,9 °C 14,8 °C 55 % 83 % 1020,3 hPa 0,0 l/m² 0,0 km/h (0 Bft) O-NO 59 ° 0 min 0 W/m² 11,9 °C 14,8 °C 0,0 km/h (0 Bft)
08.07.2023 00:05 22,9 °C 14,8 °C 55 % 83 % 1020,3 hPa 0,0 l/m² 0,0 km/h (0 Bft) O-NO 59 ° 0 min 0 W/m² 11,9 °C 14,8 °C 0,0 km/h (0 Bft)
08.07.2023 00:07 22,9 °C 14,8 °C 55 % 84 % 1020,2 hPa 0,0 l/m² 0,0 km/h (0 Bft) O-NO 59 ° 0 min 0 W/m² 12,1 °C 14,8 °C 0,0 km/h (0 Bft)
08.07.2023 00:08 22,9 °C 14,8 °C 55 % 84 % 1020,2 hPa 0,0 l/m² 0,0 km/h (0 Bft) O-NO 59 ° 0 min 0 W/m² 12,1 °C 14,8 °C 0,0 km/h (0 Bft)
08.07.2023 00:10 22,9 °C 14,8 °C 55 % 84 % 1020,2 hPa 0,0 l/m² 0,0 km/h (0 Bft) O-NO 59 ° 0 min 0 W/m² 12,1 °C 14,8 °C 0,0 km/h (0 Bft)
08.07.2023 00:11 22,9 °C 14,7 °C 55 % 84 % 1020,2 hPa 0,0 l/m² 0,0 km/h (0 Bft) O-NO 59 ° 0 min 0 W/m² 12,0 °C 14,7 °C 0,0 km/h (0 Bft)
08.07.2023 00:13 22,9 °C 14,7 °C 55 % 84 % 1020,2 hPa 0,0 l/m² 0,0 km/h (0 Bft) O-NO 59 ° 0 min 0 W/m² 12,0 °C 14,7 °C 0,0 km/h (0 Bft)
08.07.2023 00:14 22,9 °C 14,6 °C 55 % 84 % 1020,2 hPa 0,0 l/m² 0,0 km/h (0 Bft) O-NO 59 ° 0 min 0 W/m² 11,9 °C 14,6 °C 0,0 km/h (0 Bft)
08.07.2023 00:15 22,9 °C 14,6 °C 55 % 84 % 1020,3 hPa 0,0 l/m² 0,0 km/h (0 Bft) O-NO 59 ° 0 min 0 W/m² 11,9 °C 14,6 °C 0,0 km/h (0 Bft)
08.07.2023 00:17 22,9 °C 14,5 °C 55 % 84 % 1020,1 hPa 0,0 l/m² 0,0 km/h (0 Bft) O-NO 59 ° 0 min 0 W/m² 11,8 °C 14,5 °C 0,0 km/h (0 Bft)
08.07.2023 00:19 22,9 °C 14,4 °C 55 % 85 % 1020,1 hPa 0,0 l/m² 0,0 km/h (0 Bft) O-NO 59 ° 0 min 0 W/m² 11,9 °C 14,4 °C 0,0 km/h (0 Bft)
08.07.2023 00:21 22,9 °C 14,4 °C 55 % 85 % 1020,2 hPa 0,0 l/m² 0,0 km/h (0 Bft) O-NO 59 ° 0 min 0 W/m² 11,9 °C 14,4 °C 0,0 km/h (0 Bft)
08.07.2023 00:23 22,9 °C 14,4 °C 55 % 86 % 1020,1 hPa 0,0 l/m² 0,0 km/h (0 Bft) O-NO 59 ° 0 min 0 W/m² 12,1 °C 14,4 °C 0,0 km/h (0 Bft)
08.07.2023 00:24 22,9 °C 14,4 °C 55 % 86 % 1020,1 hPa 0,0 l/m² 0,0 km/h (0 Bft) O-NO 59 ° 0 min 0 W/m² 12,1 °C 14,4 °C 0,0 km/h (0 Bft)
08.07.2023 00:25 22,9 °C 14,4 °C 55 % 86 % 1020,1 hPa 0,0 l/m² 0,0 km/h (0 Bft) O-NO 59 ° 0 min 0 W/m² 12,1 °C 14,4 °C 0,0 km/h (0 Bft)
08.07.2023 00:27 22,9 °C 14,4 °C 55 % 86 % 1020,2 hPa 0,0 l/m² 0,0 km/h (0 Bft) O-NO 59 ° 0 min 0 W/m² 12,1 °C 14,4 °C 0,0 km/h (0 Bft)
08.07.2023 00:29 22,9 °C 14,3 °C 55 % 85 % 1020,1 hPa 0,0 l/m² 0,0 km/h (0 Bft) O-NO 59 ° 0 min 0 W/m² 11,8 °C 14,3 °C 0,0 km/h (0 Bft)
08.07.2023 00:31 22,9 °C 14,2 °C 55 % 86 % 1020,2 hPa 0,0 l/m² 0,4 km/h (0 Bft) O-NO 59 ° 0 min 0 W/m² 11,9 °C 14,2 °C 1,6 km/h (1 Bft)
08.07.2023 00:32 22,9 °C 14,2 °C 55 % 86 % 1020,2 hPa 0,0 l/m² 0,1 km/h (0 Bft) O-NO 59 ° 0 min 0 W/m² 11,9 °C 14,2 °C 1,6 km/h (1 Bft)
08.07.2023 00:34 22,9 °C 14,2 °C 55 % 86 % 1020,1 hPa 0,0 l/m² 0,2 km/h (0 Bft) O-NO 59 ° 0 min 0 W/m² 11,9 °C 14,2 °C 1,6 km/h (1 Bft)
08.07.2023 00:36 22,9 °C 14,2 °C 55 % 84 % 1020,2 hPa 0,0 l/m² 0,5 km/h (0 Bft) O-NO 59 ° 0 min 0 W/m² 11,5 °C 14,2 °C 1,6 km/h (1 Bft)
08.07.2023 00:38 22,9 °C 14,2 °C 55 % 84 % 1020,2 hPa 0,0 l/m² 0,1 km/h (0 Bft) O-NO 59 ° 0 min 0 W/m² 11,5 °C 14,2 °C 1,6 km/h (1 Bft)
08.07.2023 00:40 22,9 °C 14,3 °C 55 % 84 % 1020,2 hPa 0,0 l/m² 0,0 km/h (0 Bft) O-NO 59 ° 0 min 0 W/m² 11,6 °C 14,3 °C 0,0 km/h (0 Bft)
08.07.2023 00:42 22,9 °C 14,3 °C 55 % 84 % 1020,2 hPa 0,0 l/m² 0,0 km/h (0 Bft) O-NO 59 ° 0 min 0 W/m² 11,6 °C 14,3 °C 0,0 km/h (0 Bft)
08.07.2023 00:43 22,9 °C 14,3 °C 55 % 84 % 1020,2 hPa 0,0 l/m² 0,0 km/h (0 Bft) O-NO 59 ° 0 min 0 W/m² 11,6 °C 14,3 °C 0,0 km/h (0 Bft)
08.07.2023 00:46 22,9 °C 14,3 °C 55 % 83 % 1020,2 hPa 0,0 l/m² 0,0 km/h (0 Bft) O-NO 59 ° 0 min 0 W/m² 11,5 °C 14,3 °C 0,0 km/h (0 Bft)
08.07.2023 00:48 22,9 °C 14,2 °C 55 % 82 % 1020,3 hPa 0,0 l/m² 0,0 km/h (0 Bft) O-NO 59 ° 0 min 0 W/m² 11,2 °C 14,2 °C 0,0 km/h (0 Bft)
08.07.2023 00:50 22,9 °C 14,2 °C 55 % 82 % 1020,2 hPa 0,0 l/m² 0,0 km/h (0 Bft) O-NO 59 ° 0 min 0 W/m² 11,2 °C 14,2 °C 0,0 km/h (0 Bft)
08.07.2023 00:52 22,9 °C 14,1 °C 55 % 81 % 1020,3 hPa 0,0 l/m² 0,0 km/h (0 Bft) O-NO 59 ° 0 min 0 W/m² 10,9 °C 14,1 °C 0,0 km/h (0 Bft)
08.07.2023 00:53 22,9 °C 14,1 °C 55 % 81 % 1020,3 hPa 0,0 l/m² 0,0 km/h (0 Bft) O-NO 59 ° 0 min 0 W/m² 10,9 °C 14,1 °C 0,0 km/h (0 Bft)
08.07.2023 00:54 22,9 °C 14,1 °C 55 % 81 % 1020,3 hPa 0,0 l/m² 0,0 km/h (0 Bft) O-NO 59 ° 0 min 0 W/m² 10,9 °C 14,1 °C 0,0 km/h (0 Bft)
08.07.2023 00:56 22,9 °C 14,1 °C 55 % 81 % 1020,3 hPa 0,0 l/m² 0,0 km/h (0 Bft) O-NO 59 ° 0 min 0 W/m² 10,9 °C 14,1 °C 0,0 km/h (0 Bft)
08.07.2023 00:58 22,9 °C 14,1 °C 55 % 81 % 1020,2 hPa 0,0 l/m² 0,0 km/h (0 Bft) O-NO 59 ° 0 min 0 W/m² 10,9 °C 14,1 °C 0,0 km/h (0 Bft)
08.07.2023 01:00 22,9 °C 14,1 °C 55 % 82 % 1020,2 hPa 0,0 l/m² 0,0 km/h (0 Bft) O-NO 59 ° 0 min 0 W/m² 11,1 °C 14,1 °C 0,0 km/h (0 Bft)
08.07.2023 01:02 22,9 °C 14,1 °C 55 % 82 % 1020,3 hPa 0,0 l/m² 0,0 km/h (0 Bft) O-NO 59 ° 0 min 0 W/m² 11,1 °C 14,1 °C 0,0 km/h (0 Bft)
08.07.2023 01:03 22,9 °C 14,0 °C 55 % 82 % 1020,3 hPa 0,0 l/m² 0,0 km/h (0 Bft) O-NO 59 ° 0 min 0 W/m² 11,0 °C 14,0 °C 0,0 km/h (0 Bft)
08.07.2023 01:04 22,9 °C 14,1 °C 55 % 82 % 1020,2 hPa 0,0 l/m² 0,0 km/h (0 Bft) O-NO 59 ° 0 min 0 W/m² 11,1 °C 14,1 °C 0,0 km/h (0 Bft)
08.07.2023 01:06 22,9 °C 14,1 °C 55 % 82 % 1020,2 hPa 0,0 l/m² 0,0 km/h (0 Bft) O-NO 59 ° 0 min 0 W/m² 11,1 °C 14,1 °C 0,0 km/h (0 Bft)
08.07.2023 01:08 22,9 °C 14,0 °C 55 % 82 % 1020,2 hPa 0,0 l/m² 0,0 km/h (0 Bft) O-NO 59 ° 0 min 0 W/m² 11,0 °C 14,0 °C 0,0 km/h (0 Bft)
08.07.2023 01:10 22,9 °C 13,9 °C 55 % 82 % 1020,0 hPa 0,0 l/m² 0,0 km/h (0 Bft) O-NO 59 ° 0 min 0 W/m² 10,9 °C 13,9 °C 0,0 km/h (0 Bft)
08.07.2023 01:12 22,9 °C 13,8 °C 55 % 81 % 1020,0 hPa 0,0 l/m² 0,0 km/h (0 Bft) O-NO 59 ° 0 min 0 W/m² 10,6 °C 13,8 °C 0,0 km/h (0 Bft)
08.07.2023 01:13 22,9 °C 13,8 °C 55 % 81 % 1020,0 hPa 0,0 l/m² 0,0 km/h (0 Bft) O-NO 59 ° 0 min 0 W/m² 10,6 °C 13,8 °C 0,0 km/h (0 Bft)
08.07.2023 01:14 22,9 °C 13,8 °C 55 % 81 % 1020,1 hPa 0,0 l/m² 0,0 km/h (0 Bft) O-NO 59 ° 0 min 0 W/m² 10,6 °C 13,8 °C 0,0 km/h (0 Bft)
08.07.2023 01:16 22,9 °C 13,8 °C 55 % 82 % 1020,0 hPa 0,0 l/m² 0,0 km/h (0 Bft) O-NO 59 ° 0 min 0 W/m² 10,8 °C 13,8 °C 0,0 km/h (0 Bft)
08.07.2023 01:18 22,9 °C 13,8 °C 55 % 82 % 1020,0 hPa 0,0 l/m² 0,0 km/h (0 Bft) O-NO 59 ° 0 min 0 W/m² 10,8 °C 13,8 °C 0,0 km/h (0 Bft)
08.07.2023 01:20 22,9 °C 13,7 °C 55 % 82 % 1019,9 hPa 0,0 l/m² 0,0 km/h (0 Bft) O-NO 59 ° 0 min 0 W/m² 10,7 °C 13,7 °C 0,0 km/h (0 Bft)
08.07.2023 01:22 22,9 °C 13,6 °C 55 % 82 % 1019,9 hPa 0,0 l/m² 0,0 km/h (0 Bft) O-NO 59 ° 0 min 0 W/m² 10,6 °C 13,6 °C 0,0 km/h (0 Bft)
08.07.2023 01:23 22,9 °C 13,6 °C 55 % 81 % 1019,9 hPa 0,0 l/m² 0,0 km/h (0 Bft) O-NO 59 ° 0 min 0 W/m² 10,4 °C 13,6 °C 0,0 km/h (0 Bft)
08.07.2023 01:24 22,9 °C 13,4 °C 55 % 82 % 1020,0 hPa 0,0 l/m² 0,0 km/h (0 Bft) O-NO 59 ° 0 min 0 W/m² 10,4 °C 13,4 °C 0,0 km/h (0 Bft)
08.07.2023 01:26 22,9 °C 13,3 °C 55 % 82 % 1020,0 hPa 0,0 l/m² 0,0 km/h (0 Bft) O-NO 59 ° 0 min 0 W/m² 10,3 °C 13,3 °C 0,0 km/h (0 Bft)
08.07.2023 01:28 22,9 °C 13,3 °C 55 % 82 % 1019,9 hPa 0,0 l/m² 0,0 km/h (0 Bft) O-NO 59 ° 0 min 0 W/m² 10,3 °C 13,3 °C 0,0 km/h (0 Bft)
08.07.2023 01:30 22,9 °C 13,3 °C 55 % 83 % 1020,0 hPa 0,0 l/m² 0,0 km/h (0 Bft) O-NO 59 ° 0 min 0 W/m² 10,5 °C 13,3 °C 0,0 km/h (0 Bft)
08.07.2023 01:32 22,9 °C 13,3 °C 55 % 83 % 1020,0 hPa 0,0 l/m² 0,0 km/h (0 Bft) O-NO 59 ° 0 min 0 W/m² 10,5 °C 13,3 °C 0,0 km/h (0 Bft)
08.07.2023 01:33 22,9 °C 13,3 °C 55 % 83 % 1020,0 hPa 0,0 l/m² 0,0 km/h (0 Bft) O-NO 59 ° 0 min 0 W/m² 10,5 °C 13,3 °C 0,0 km/h (0 Bft)
08.07.2023 01:34 22,9 °C 13,3 °C 55 % 84 % 1020,0 hPa 0,0 l/m² 0,0 km/h (0 Bft) O-NO 59 ° 0 min 0 W/m² 10,7 °C 13,3 °C 0,0 km/h (0 Bft)
08.07.2023 01:36 22,9 °C 13,3 °C 55 % 85 % 1020,0 hPa 0,0 l/m² 0,0 km/h (0 Bft) O-NO 59 ° 0 min 0 W/m² 10,8 °C 13,3 °C 0,0 km/h (0 Bft)
08.07.2023 01:38 22,9 °C 13,4 °C 55 % 86 % 1020,1 hPa 0,0 l/m² 0,0 km/h (0 Bft) O-NO 59 ° 0 min 0 W/m² 11,1 °C 13,4 °C 0,0 km/h (0 Bft)
08.07.2023 01:40 22,9 °C 13,4 °C 55 % 85 % 1020,0 hPa 0,0 l/m² 0,0 km/h (0 Bft) O-NO 59 ° 0 min 0 W/m² 10,9 °C 13,4 °C 0,0 km/h (0 Bft)
08.07.2023 01:42 22,9 °C 13,3 °C 55 % 86 % 1019,9 hPa 0,0 l/m² 0,0 km/h (0 Bft) O-NO 59 ° 0 min 0 W/m² 11,0 °C 13,3 °C 0,0 km/h (0 Bft)
08.07.2023 01:43 22,9 °C 13,4 °C 55 % 86 % 1019,9 hPa 0,0 l/m² 0,0 km/h (0 Bft) O-NO 59 ° 0 min 0 W/m² 11,1 °C 13,4 °C 0,0 km/h (0 Bft)
08.07.2023 01:44 22,9 °C 13,4 °C 55 % 86 % 1020,0 hPa 0,0 l/m² 0,0 km/h (0 Bft) O-NO 59 ° 0 min 0 W/m² 11,1 °C 13,4 °C 0,0 km/h (0 Bft)
08.07.2023 01:46 22,9 °C 13,4 °C 55 % 86 % 1019,9 hPa 0,0 l/m² 0,0 km/h (0 Bft) O-NO 59 ° 0 min 0 W/m² 11,1 °C 13,4 °C 0,0 km/h (0 Bft)
08.07.2023 01:48 22,9 °C 13,4 °C 55 % 86 % 1020,0 hPa 0,0 l/m² 0,0 km/h (0 Bft) O-NO 59 ° 0 min 0 W/m² 11,1 °C 13,4 °C 0,0 km/h (0 Bft)
08.07.2023 01:50 22,9 °C 13,4 °C 55 % 86 % 1020,0 hPa 0,0 l/m² 0,0 km/h (0 Bft) O-NO 59 ° 0 min 0 W/m² 11,1 °C 13,4 °C 0,0 km/h (0 Bft)
08.07.2023 01:52 22,9 °C 13,4 °C 55 % 86 % 1020,0 hPa 0,0 l/m² 0,0 km/h (0 Bft) O-NO 59 ° 0 min 0 W/m² 11,1 °C 13,4 °C 0,0 km/h (0 Bft)
08.07.2023 01:53 22,9 °C 13,4 °C 55 % 86 % 1020,0 hPa 0,0 l/m² 0,0 km/h (0 Bft) O-NO 59 ° 0 min 0 W/m² 11,1 °C 13,4 °C 0,0 km/h (0 Bft)
08.07.2023 01:54 22,9 °C 13,4 °C 55 % 86 % 1020,0 hPa 0,0 l/m² 0,0 km/h (0 Bft) O-NO 59 ° 0 min 0 W/m² 11,1 °C 13,4 °C 0,0 km/h (0 Bft)
08.07.2023 01:56 22,9 °C 13,4 °C 55 % 86 % 1020,0 hPa 0,0 l/m² 0,0 km/h (0 Bft) O-NO 59 ° 0 min 0 W/m² 11,1 °C 13,4 °C 0,0 km/h (0 Bft)
08.07.2023 01:58 22,9 °C 13,3 °C 55 % 85 % 1019,9 hPa 0,0 l/m² 0,8 km/h (0 Bft) O-NO 59 ° 0 min 0 W/m² 10,8 °C 13,3 °C 3,2 km/h (1 Bft)
08.07.2023 02:00 22,9 °C 13,0 °C 55 % 84 % 1019,9 hPa 0,0 l/m² 1,1 km/h (1 Bft) O-NO 59 ° 0 min 0 W/m² 10,4 °C 13,0 °C 1,6 km/h (1 Bft)
08.07.2023 02:02 22,9 °C 12,7 °C 55 % 83 % 1020,0 hPa 0,0 l/m² 0,2 km/h (0 Bft) O-NO 59 ° 0 min 0 W/m² 9,9 °C 12,7 °C 1,6 km/h (1 Bft)
08.07.2023 02:03 22,9 °C 12,6 °C 55 % 84 % 1020,0 hPa 0,0 l/m² 0,0 km/h (0 Bft) O-NO 59 ° 0 min 0 W/m² 10,0 °C 12,6 °C 0,0 km/h (0 Bft)
08.07.2023 02:04 22,9 °C 12,5 °C 55 % 85 % 1020,0 hPa 0,0 l/m² 0,0 km/h (0 Bft) O-NO 59 ° 0 min 0 W/m² 10,0 °C 12,5 °C 0,0 km/h (0 Bft)
08.07.2023 02:06 22,9 °C 12,6 °C 56 % 86 % 1020,0 hPa 0,0 l/m² 0,0 km/h (0 Bft) O-NO 59 ° 0 min 0 W/m² 10,3 °C 12,6 °C 0,0 km/h (0 Bft)
08.07.2023 02:08 22,9 °C 12,7 °C 55 % 86 % 1019,9 hPa 0,0 l/m² 0,0 km/h (0 Bft) O-NO 59 ° 0 min 0 W/m² 10,4 °C 12,7 °C 0,0 km/h (0 Bft)
08.07.2023 02:10 22,9 °C 12,8 °C 55 % 86 % 1019,9 hPa 0,0 l/m² 0,0 km/h (0 Bft) O-NO 59 ° 0 min 0 W/m² 10,5 °C 12,8 °C 0,0 km/h (0 Bft)
08.07.2023 02:12 22,9 °C 12,8 °C 55 % 86 % 1019,9 hPa 0,0 l/m² 0,0 km/h (0 Bft) O-NO 59 ° 0 min 0 W/m² 10,5 °C 12,8 °C 0,0 km/h (0 Bft)
08.07.2023 02:13 22,9 °C 12,8 °C 55 % 86 % 1019,9 hPa 0,0 l/m² 0,0 km/h (0 Bft) O-NO 59 ° 0 min 0 W/m² 10,5 °C 12,8 °C 0,0 km/h (0 Bft)
08.07.2023 02:14 22,9 °C 12,8 °C 55 % 85 % 1019,9 hPa 0,0 l/m² 0,0 km/h (0 Bft) O-NO 59 ° 0 min 0 W/m² 10,3 °C 12,8 °C 0,0 km/h (0 Bft)
08.07.2023 02:16 22,9 °C 12,8 °C 55 % 85 % 1020,0 hPa 0,0 l/m² 0,5 km/h (0 Bft) O-NO 59 ° 0 min 0 W/m² 10,3 °C 12,8 °C 3,2 km/h (1 Bft)
08.07.2023 02:18 22,9 °C 12,7 °C 55 % 85 % 1020,0 hPa 0,0 l/m² 0,5 km/h (0 Bft) O-NO 59 ° 0 min 0 W/m² 10,2 °C 12,7 °C 3,2 km/h (1 Bft)
08.07.2023 02:20 22,9 °C 12,7 °C 55 % 86 % 1020,0 hPa 0,0 l/m² 0,0 km/h (0 Bft) O-NO 59 ° 0 min 0 W/m² 10,4 °C 12,7 °C 0,0 km/h (0 Bft)
08.07.2023 02:22 22,9 °C 12,7 °C 55 % 86 % 1019,9 hPa 0,0 l/m² 0,0 km/h (0 Bft) O-NO 59 ° 0 min 0 W/m² 10,4 °C 12,7 °C 0,0 km/h (0 Bft)
08.07.2023 02:23 22,9 °C 12,8 °C 55 % 86 % 1019,9 hPa 0,0 l/m² 0,0 km/h (0 Bft) O-NO 59 ° 0 min 0 W/m² 10,5 °C 12,8 °C 0,0 km/h (0 Bft)
08.07.2023 02:24 22,9 °C 12,7 °C 55 % 87 % 1019,9 hPa 0,0 l/m² 0,0 km/h (0 Bft) O-NO 59 ° 0 min 0 W/m² 10,6 °C 12,7 °C 0,0 km/h (0 Bft)
08.07.2023 02:26 22,9 °C 12,7 °C 55 % 86 % 1019,9 hPa 0,0 l/m² 0,0 km/h (0 Bft) O-NO 59 ° 0 min 0 W/m² 10,4 °C 12,7 °C 0,0 km/h (0 Bft)
08.07.2023 02:28 22,9 °C 12,7 °C 55 % 87 % 1019,9 hPa 0,0 l/m² 0,0 km/h (0 Bft) O-NO 59 ° 0 min 0 W/m² 10,6 °C 12,7 °C 0,0 km/h (0 Bft)
08.07.2023 02:30 22,9 °C 12,8 °C 55 % 87 % 1019,8 hPa 0,0 l/m² 0,0 km/h (0 Bft) O-NO 59 ° 0 min 0 W/m² 10,7 °C 12,8 °C 0,0 km/h (0 Bft)
08.07.2023 02:32 22,9 °C 12,8 °C 55 % 87 % 1019,8 hPa 0,0 l/m² 0,0 km/h (0 Bft) O-NO 59 ° 0 min 0 W/m² 10,7 °C 12,8 °C 0,0 km/h (0 Bft)
08.07.2023 02:33 22,9 °C 12,8 °C 55 % 87 % 1019,8 hPa 0,0 l/m² 0,0 km/h (0 Bft) O-NO 59 ° 0 min 0 W/m² 10,7 °C 12,8 °C 0,0 km/h (0 Bft)
08.07.2023 02:34 22,9 °C 12,8 °C 55 % 87 % 1019,9 hPa 0,0 l/m² 0,0 km/h (0 Bft) O-NO 59 ° 0 min 0 W/m² 10,7 °C 12,8 °C 0,0 km/h (0 Bft)
08.07.2023 02:36 22,8 °C 12,8 °C 55 % 88 % 1019,9 hPa 0,0 l/m² 0,0 km/h (0 Bft) O-NO 59 ° 0 min 0 W/m² 10,9 °C 12,8 °C 0,0 km/h (0 Bft)
08.07.2023 02:38 22,9 °C 12,8 °C 55 % 87 % 1019,8 hPa 0,0 l/m² 1,3 km/h (1 Bft) O-NO 59 ° 0 min 0 W/m² 10,7 °C 12,8 °C 3,2 km/h (1 Bft)
08.07.2023 02:40 22,8 °C 12,7 °C 55 % 87 % 1019,9 hPa 0,0 l/m² 2,9 km/h (1 Bft) W 261 ° 0 min 0 W/m² 10,6 °C 12,7 °C 4,8 km/h (1 Bft)
08.07.2023 02:42 22,9 °C 12,6 °C 55 % 87 % 1019,8 hPa 0,0 l/m² 3,3 km/h (1 Bft) W-SW 247 ° 0 min 0 W/m² 10,5 °C 12,6 °C 4,8 km/h (1 Bft)
08.07.2023 02:43 22,9 °C 12,5 °C 55 % 87 % 1019,8 hPa 0,0 l/m² 2,9 km/h (1 Bft) W-SW 247 ° 0 min 0 W/m² 10,4 °C 12,5 °C 3,2 km/h (1 Bft)
08.07.2023 02:44 22,9 °C 12,5 °C 55 % 86 % 1019,9 hPa 0,0 l/m² 1,5 km/h (1 Bft) W-SW 247 ° 0 min 0 W/m² 10,2 °C 12,5 °C 1,6 km/h (1 Bft)
08.07.2023 02:46 22,9 °C 12,4 °C 55 % 86 % 1019,8 hPa 0,0 l/m² 1,6 km/h (1 Bft) W-SW 247 ° 0 min 0 W/m² 10,1 °C 12,4 °C 3,2 km/h (1 Bft)
08.07.2023 02:48 22,9 °C 12,3 °C 55 % 86 % 1019,9 hPa 0,0 l/m² 0,0 km/h (0 Bft) W-SW 247 ° 0 min 0 W/m² 10,0 °C 12,3 °C 1,6 km/h (1 Bft)
08.07.2023 02:50 22,9 °C 12,3 °C 55 % 86 % 1019,8 hPa 0,0 l/m² 0,0 km/h (0 Bft) W-SW 247 ° 0 min 0 W/m² 10,0 °C 12,3 °C 0,0 km/h (0 Bft)
08.07.2023 02:52 22,9 °C 12,3 °C 55 % 86 % 1019,8 hPa 0,0 l/m² 0,0 km/h (0 Bft) W-SW 247 ° 0 min 0 W/m² 10,0 °C 12,3 °C 0,0 km/h (0 Bft)
08.07.2023 02:53 22,9 °C 12,3 °C 55 % 86 % 1019,8 hPa 0,0 l/m² 0,0 km/h (0 Bft) W-SW 247 ° 0 min 0 W/m² 10,0 °C 12,3 °C 0,0 km/h (0 Bft)
08.07.2023 02:54 22,9 °C 12,2 °C 55 % 86 % 1019,8 hPa 0,0 l/m² 0,0 km/h (0 Bft) W-SW 247 ° 0 min 0 W/m² 9,9 °C 12,2 °C 0,0 km/h (0 Bft)
08.07.2023 02:56 22,8 °C 12,3 °C 55 % 86 % 1019,8 hPa 0,0 l/m² 0,0 km/h (0 Bft) W-SW 247 ° 0 min 0 W/m² 10,0 °C 12,3 °C 0,0 km/h (0 Bft)
08.07.2023 02:58 22,9 °C 12,3 °C 55 % 86 % 1019,8 hPa 0,0 l/m² 0,0 km/h (0 Bft) W-SW 247 ° 0 min 0 W/m² 10,0 °C 12,3 °C 0,0 km/h (0 Bft)
08.07.2023 03:00 22,9 °C 12,2 °C 55 % 85 % 1019,8 hPa 0,0 l/m² 0,0 km/h (0 Bft) W-SW 247 ° 0 min 0 W/m² 9,8 °C 12,2 °C 0,0 km/h (0 Bft)
08.07.2023 03:01 22,9 °C 12,2 °C 55 % 86 % 1019,7 hPa 0,0 l/m² 0,0 km/h (0 Bft) N 0 ° 0 min 0 W/m² 9,9 °C 12,2 °C 0,0 km/h (0 Bft)
08.07.2023 03:08 22,9 °C 12,3 °C 55 % 87 % 1019,9 hPa 0,0 l/m² 0,0 km/h (0 Bft) W-SW 247 ° 0 min 0 W/m² 10,2 °C 12,3 °C 0,0 km/h (0 Bft)
08.07.2023 03:09 22,8 °C 12,3 °C 55 % 87 % 1019,9 hPa 0,0 l/m² 0,0 km/h (0 Bft) W-SW 247 ° 0 min 0 W/m² 10,2 °C 12,3 °C 0,0 km/h (0 Bft)
08.07.2023 03:11 22,9 °C 12,3 °C 55 % 88 % 1019,9 hPa 0,0 l/m² 0,0 km/h (0 Bft) W-SW 247 ° 0 min 0 W/m² 10,4 °C 12,3 °C 0,0 km/h (0 Bft)
08.07.2023 03:12 22,8 °C 12,3 °C 55 % 87 % 1019,8 hPa 0,0 l/m² 0,0 km/h (0 Bft) W-SW 247 ° 0 min 0 W/m² 10,2 °C 12,3 °C 0,0 km/h (0 Bft)
08.07.2023 03:14 22,8 °C 12,3 °C 55 % 87 % 1019,8 hPa 0,0 l/m² 0,0 km/h (0 Bft) W-SW 247 ° 0 min 0 W/m² 10,2 °C 12,3 °C 0,0 km/h (0 Bft)
08.07.2023 03:16 22,8 °C 12,3 °C 56 % 87 % 1019,9 hPa 0,0 l/m² 0,0 km/h (0 Bft) W-SW 247 ° 0 min 0 W/m² 10,2 °C 12,3 °C 0,0 km/h (0 Bft)
08.07.2023 03:18 22,8 °C 12,3 °C 56 % 88 % 1019,9 hPa 0,0 l/m² 0,0 km/h (0 Bft) W-SW 247 ° 0 min 0 W/m² 10,4 °C 12,3 °C 0,0 km/h (0 Bft)
08.07.2023 03:20 22,8 °C 12,3 °C 56 % 88 % 1019,8 hPa 0,0 l/m² 0,0 km/h (0 Bft) W-SW 247 ° 0 min 0 W/m² 10,4 °C 12,3 °C 0,0 km/h (0 Bft)
08.07.2023 03:21 22,9 °C 12,3 °C 56 % 88 % 1019,9 hPa 0,0 l/m² 0,1 km/h (0 Bft) W-SW 247 ° 0 min 0 W/m² 10,4 °C 12,3 °C 1,6 km/h (1 Bft)
08.07.2023 03:22 22,8 °C 12,2 °C 56 % 87 % 1019,9 hPa 0,0 l/m² 3,4 km/h (1 Bft) W-SW 247 ° 0 min 0 W/m² 10,1 °C 12,2 °C 4,8 km/h (1 Bft)
08.07.2023 03:23 22,8 °C 12,2 °C 56 % 87 % 1019,9 hPa 0,0 l/m² 3,9 km/h (1 Bft) W-SW 247 ° 0 min 0 W/m² 10,1 °C 12,2 °C 4,8 km/h (1 Bft)
08.07.2023 03:25 22,8 °C 12,1 °C 55 % 87 % 1019,8 hPa 0,0 l/m² 3,0 km/h (1 Bft) W-SW 247 ° 0 min 0 W/m² 10,0 °C 12,1 °C 4,8 km/h (1 Bft)
08.07.2023 03:27 22,8 °C 12,0 °C 55 % 87 % 1019,8 hPa 0,0 l/m² 0,9 km/h (0 Bft) W-SW 247 ° 0 min 0 W/m² 9,9 °C 12,0 °C 3,2 km/h (1 Bft)
08.07.2023 03:28 22,8 °C 11,9 °C 56 % 87 % 1019,8 hPa 0,0 l/m² 0,0 km/h (0 Bft) W-SW 247 ° 0 min 0 W/m² 9,8 °C 11,9 °C 0,0 km/h (0 Bft)
08.07.2023 03:30 22,8 °C 11,9 °C 55 % 87 % 1019,8 hPa 0,0 l/m² 0,0 km/h (0 Bft) W-SW 247 ° 0 min 0 W/m² 9,8 °C 11,9 °C 0,0 km/h (0 Bft)
08.07.2023 03:31 22,8 °C 11,9 °C 56 % 87 % 1019,6 hPa 0,0 l/m² 0,0 km/h (0 Bft) W-SW 247 ° 0 min 0 W/m² 9,8 °C 11,9 °C 0,0 km/h (0 Bft)
08.07.2023 03:32 22,8 °C 11,9 °C 56 % 87 % 1019,6 hPa 0,0 l/m² 0,0 km/h (0 Bft) W-SW 247 ° 0 min 0 W/m² 9,8 °C 11,9 °C 0,0 km/h (0 Bft)
08.07.2023 03:33 22,8 °C 11,9 °C 55 % 87 % 1019,6 hPa 0,0 l/m² 0,2 km/h (0 Bft) W-SW 247 ° 0 min 0 W/m² 9,8 °C 11,9 °C 1,6 km/h (1 Bft)
08.07.2023 03:35 22,8 °C 11,9 °C 56 % 87 % 1019,7 hPa 0,0 l/m² 0,0 km/h (0 Bft) W-SW 247 ° 0 min 0 W/m² 9,8 °C 11,9 °C 0,0 km/h (0 Bft)
08.07.2023 03:37 22,8 °C 11,9 °C 55 % 87 % 1019,6 hPa 0,0 l/m² 0,0 km/h (0 Bft) W-SW 247 ° 0 min 0 W/m² 9,8 °C 11,9 °C 0,0 km/h (0 Bft)
08.07.2023 03:38 22,8 °C 11,9 °C 55 % 87 % 1019,6 hPa 0,0 l/m² 0,0 km/h (0 Bft) W-SW 247 ° 0 min 0 W/m² 9,8 °C 11,9 °C 0,0 km/h (0 Bft)
08.07.2023 03:40 22,8 °C 11,9 °C 55 % 87 % 1019,6 hPa 0,0 l/m² 0,0 km/h (0 Bft) W-SW 247 ° 0 min 0 W/m² 9,8 °C 11,9 °C 0,0 km/h (0 Bft)
08.07.2023 03:41 22,8 °C 11,8 °C 56 % 87 % 1019,6 hPa 0,0 l/m² 0,0 km/h (0 Bft) W-SW 247 ° 0 min 0 W/m² 9,7 °C 11,8 °C 0,0 km/h (0 Bft)
08.07.2023 03:42 22,8 °C 11,8 °C 55 % 87 % 1019,6 hPa 0,0 l/m² 0,0 km/h (0 Bft) W-SW 247 ° 0 min 0 W/m² 9,7 °C 11,8 °C 0,0 km/h (0 Bft)
08.07.2023 03:43 22,8 °C 11,8 °C 56 % 87 % 1019,7 hPa 0,0 l/m² 0,0 km/h (0 Bft) W-SW 247 ° 0 min 0 W/m² 9,7 °C 11,8 °C 0,0 km/h (0 Bft)
08.07.2023 03:45 22,8 °C 11,8 °C 55 % 88 % 1019,7 hPa 0,0 l/m² 0,0 km/h (0 Bft) W-SW 247 ° 0 min 0 W/m² 9,9 °C 11,8 °C 0,0 km/h (0 Bft)
08.07.2023 03:47 22,8 °C 11,8 °C 55 % 88 % 1019,6 hPa 0,0 l/m² 0,0 km/h (0 Bft) W-SW 247 ° 0 min 0 W/m² 9,9 °C 11,8 °C 0,0 km/h (0 Bft)
08.07.2023 03:48 22,8 °C 11,8 °C 56 % 88 % 1019,6 hPa 0,0 l/m² 0,0 km/h (0 Bft) W-SW 247 ° 0 min 0 W/m² 9,9 °C 11,8 °C 0,0 km/h (0 Bft)
08.07.2023 03:50 22,8 °C 11,8 °C 55 % 88 % 1019,6 hPa 0,0 l/m² 0,0 km/h (0 Bft) W-SW 247 ° 0 min 0 W/m² 9,9 °C 11,8 °C 0,0 km/h (0 Bft)
08.07.2023 03:51 22,8 °C 11,7 °C 56 % 88 % 1019,6 hPa 0,0 l/m² 0,0 km/h (0 Bft) W-SW 247 ° 0 min 0 W/m² 9,8 °C 11,7 °C 0,0 km/h (0 Bft)
08.07.2023 03:52 22,8 °C 11,7 °C 55 % 88 % 1019,6 hPa 0,0 l/m² 0,0 km/h (0 Bft) W-SW 247 ° 0 min 0 W/m² 9,8 °C 11,7 °C 0,0 km/h (0 Bft)
08.07.2023 03:54 22,8 °C 11,7 °C 55 % 88 % 1019,6 hPa 0,0 l/m² 0,9 km/h (0 Bft) W-SW 247 ° 0 min 0 W/m² 9,8 °C 11,7 °C 3,2 km/h (1 Bft)
08.07.2023 03:56 22,8 °C 11,7 °C 56 % 88 % 1019,7 hPa 0,0 l/m² 0,9 km/h (0 Bft) W-SW 247 ° 0 min 0 W/m² 9,8 °C 11,7 °C 3,2 km/h (1 Bft)
08.07.2023 03:58 22,8 °C 11,7 °C 55 % 88 % 1019,7 hPa 0,0 l/m² 1,0 km/h (0 Bft) W-SW 247 ° 0 min 0 W/m² 9,8 °C 11,7 °C 3,2 km/h (1 Bft)
08.07.2023 04:00 22,8 °C 11,7 °C 55 % 88 % 1019,7 hPa 0,0 l/m² 0,8 km/h (0 Bft) W-SW 247 ° 0 min 0 W/m² 9,8 °C 11,7 °C 1,6 km/h (1 Bft)
08.07.2023 04:01 22,8 °C 11,6 °C 55 % 88 % 1019,7 hPa 0,0 l/m² 1,1 km/h (1 Bft) W-SW 247 ° 0 min 0 W/m² 9,7 °C 11,6 °C 1,6 km/h (1 Bft)
08.07.2023 04:02 22,8 °C 11,6 °C 55 % 88 % 1019,7 hPa 0,0 l/m² 0,1 km/h (0 Bft) W-SW 247 ° 0 min 0 W/m² 9,7 °C 11,6 °C 1,6 km/h (1 Bft)
08.07.2023 04:04 22,8 °C 11,6 °C 56 % 88 % 1019,7 hPa 0,0 l/m² 0,0 km/h (0 Bft) W-SW 247 ° 0 min 0 W/m² 9,7 °C 11,6 °C 0,0 km/h (0 Bft)
08.07.2023 04:05 22,8 °C 11,6 °C 55 % 88 % 1019,7 hPa 0,0 l/m² 0,0 km/h (0 Bft) W-SW 247 ° 0 min 0 W/m² 9,7 °C 11,6 °C 0,0 km/h (0 Bft)
08.07.2023 04:07 22,8 °C 11,6 °C 55 % 89 % 1019,7 hPa 0,0 l/m² 0,0 km/h (0 Bft) W-SW 247 ° 0 min 0 W/m² 9,8 °C 11,6 °C 0,0 km/h (0 Bft)
08.07.2023 04:09 22,8 °C 11,6 °C 55 % 89 % 1019,6 hPa 0,0 l/m² 0,0 km/h (0 Bft) W-SW 247 ° 0 min 0 W/m² 9,8 °C 11,6 °C 0,0 km/h (0 Bft)
08.07.2023 04:11 22,8 °C 11,6 °C 55 % 89 % 1019,5 hPa 0,0 l/m² 0,0 km/h (0 Bft) W-SW 247 ° 0 min 0 W/m² 9,8 °C 11,6 °C 0,0 km/h (0 Bft)
08.07.2023 04:12 22,8 °C 11,6 °C 55 % 88 % 1019,6 hPa 0,0 l/m² 0,0 km/h (0 Bft) W-SW 247 ° 0 min 0 W/m² 9,7 °C 11,6 °C 0,0 km/h (0 Bft)
08.07.2023 04:13 22,8 °C 11,5 °C 55 % 88 % 1019,6 hPa 0,0 l/m² 0,0 km/h (0 Bft) W-SW 247 ° 0 min 0 W/m² 9,6 °C 11,5 °C 0,0 km/h (0 Bft)
08.07.2023 04:14 22,8 °C 11,5 °C 55 % 89 % 1019,5 hPa 0,0 l/m² 0,0 km/h (0 Bft) W-SW 247 ° 0 min 0 W/m² 9,8 °C 11,5 °C 0,0 km/h (0 Bft)
08.07.2023 04:16 22,8 °C 11,5 °C 55 % 89 % 1019,6 hPa 0,0 l/m² 0,0 km/h (0 Bft) W-SW 247 ° 0 min 0 W/m² 9,8 °C 11,5 °C 0,0 km/h (0 Bft)
08.07.2023 04:18 22,8 °C 11,5 °C 55 % 89 % 1019,6 hPa 0,0 l/m² 0,0 km/h (0 Bft) W-SW 247 ° 0 min 0 W/m² 9,8 °C 11,5 °C 0,0 km/h (0 Bft)
08.07.2023 04:20 22,8 °C 11,6 °C 55 % 89 % 1019,5 hPa 0,0 l/m² 0,0 km/h (0 Bft) W-SW 247 ° 0 min 0 W/m² 9,8 °C 11,6 °C 1,6 km/h (1 Bft)
08.07.2023 04:21 22,8 °C 11,5 °C 55 % 89 % 1019,6 hPa 0,0 l/m² 0,0 km/h (0 Bft) W-SW 247 ° 0 min 0 W/m² 9,8 °C 11,5 °C 0,0 km/h (0 Bft)
08.07.2023 04:22 22,8 °C 11,5 °C 55 % 89 % 1019,6 hPa 0,0 l/m² 0,0 km/h (0 Bft) W-SW 247 ° 0 min 0 W/m² 9,8 °C 11,5 °C 0,0 km/h (0 Bft)
08.07.2023 04:24 22,8 °C 11,5 °C 55 % 89 % 1019,5 hPa 0,0 l/m² 0,1 km/h (0 Bft) W-SW 247 ° 0 min 0 W/m² 9,8 °C 11,5 °C 1,6 km/h (1 Bft)
08.07.2023 04:26 22,8 °C 11,4 °C 55 % 89 % 1019,5 hPa 0,0 l/m² 0,0 km/h (0 Bft) W-SW 247 ° 0 min 0 W/m² 9,7 °C 11,4 °C 0,0 km/h (0 Bft)
08.07.2023 04:28 22,8 °C 11,5 °C 55 % 89 % 1019,5 hPa 0,0 l/m² 0,0 km/h (0 Bft) W-SW 247 ° 0 min 0 W/m² 9,8 °C 11,5 °C 1,6 km/h (1 Bft)
08.07.2023 04:30 22,8 °C 11,4 °C 55 % 89 % 1019,4 hPa 0,0 l/m² 0,2 km/h (0 Bft) W-SW 247 ° 0 min 0 W/m² 9,7 °C 11,4 °C 1,6 km/h (1 Bft)
08.07.2023 04:31 22,8 °C 11,4 °C 55 % 90 % 1019,5 hPa 0,0 l/m² 0,0 km/h (0 Bft) W-SW 247 ° 0 min 0 W/m² 9,8 °C 11,4 °C 0,0 km/h (0 Bft)
08.07.2023 04:33 22,8 °C 11,4 °C 55 % 90 % 1019,6 hPa 0,0 l/m² 0,0 km/h (0 Bft) W-SW 247 ° 0 min 0 W/m² 9,8 °C 11,4 °C 0,0 km/h (0 Bft)
08.07.2023 04:34 22,8 °C 11,4 °C 55 % 89 % 1019,6 hPa 0,0 l/m² 0,5 km/h (0 Bft) W-SW 247 ° 0 min 0 W/m² 9,7 °C 11,4 °C 1,6 km/h (1 Bft)
08.07.2023 04:36 22,8 °C 11,4 °C 55 % 89 % 1019,5 hPa 0,0 l/m² 0,7 km/h (0 Bft) W-SW 247 ° 0 min 0 W/m² 9,7 °C 11,4 °C 3,2 km/h (1 Bft)
08.07.2023 04:38 22,8 °C 11,4 °C 55 % 89 % 1019,5 hPa 0,0 l/m² 0,6 km/h (0 Bft) W-SW 247 ° 0 min 0 W/m² 9,7 °C 11,4 °C 1,6 km/h (1 Bft)
08.07.2023 04:40 22,8 °C 11,4 °C 55 % 89 % 1019,6 hPa 0,0 l/m² 0,0 km/h (0 Bft) W-SW 247 ° 0 min 0 W/m² 9,7 °C 11,4 °C 0,0 km/h (0 Bft)
08.07.2023 04:41 22,8 °C 11,4 °C 55 % 89 % 1019,6 hPa 0,0 l/m² 0,1 km/h (0 Bft) W-SW 247 ° 0 min 0 W/m² 9,7 °C 11,4 °C 1,6 km/h (1 Bft)
08.07.2023 04:42 22,8 °C 11,4 °C 55 % 89 % 1019,6 hPa 0,0 l/m² 0,1 km/h (0 Bft) W-SW 247 ° 0 min 0 W/m² 9,7 °C 11,4 °C 1,6 km/h (1 Bft)
08.07.2023 04:44 22,8 °C 11,4 °C 55 % 89 % 1019,6 hPa 0,0 l/m² 0,5 km/h (0 Bft) W-SW 247 ° 0 min 0 W/m² 9,7 °C 11,4 °C 1,6 km/h (1 Bft)
08.07.2023 04:46 22,8 °C 11,4 °C 55 % 89 % 1019,6 hPa 0,0 l/m² 0,8 km/h (0 Bft) W-SW 247 ° 0 min 0 W/m² 9,7 °C 11,4 °C 3,2 km/h (1 Bft)
08.07.2023 04:48 22,8 °C 11,4 °C 55 % 89 % 1019,6 hPa 0,0 l/m² 0,3 km/h (0 Bft) W-SW 247 ° 0 min 0 W/m² 9,7 °C 11,4 °C 1,6 km/h (1 Bft)
08.07.2023 04:50 22,7 °C 11,4 °C 55 % 90 % 1019,6 hPa 0,0 l/m² 0,0 km/h (0 Bft) W-SW 247 ° 0 min 0 W/m² 9,8 °C 11,4 °C 0,0 km/h (0 Bft)
08.07.2023 04:51 22,8 °C 11,4 °C 55 % 90 % 1019,5 hPa 0,0 l/m² 0,1 km/h (0 Bft) W-SW 247 ° 0 min 0 W/m² 9,8 °C 11,4 °C 1,6 km/h (1 Bft)
08.07.2023 04:52 22,8 °C 11,6 °C 55 % 90 % 1019,6 hPa 0,0 l/m² 0,3 km/h (0 Bft) W-SW 247 ° 0 min 0 W/m² 10,0 °C 11,6 °C 1,6 km/h (1 Bft)
08.07.2023 04:54 22,8 °C 11,6 °C 55 % 90 % 1019,5 hPa 0,0 l/m² 0,0 km/h (0 Bft) W-SW 247 ° 0 min 0 W/m² 10,0 °C 11,6 °C 0,0 km/h (0 Bft)
08.07.2023 04:56 22,8 °C 11,6 °C 55 % 89 % 1019,5 hPa 0,0 l/m² 0,7 km/h (0 Bft) W-SW 247 ° 0 min 0 W/m² 9,8 °C 11,6 °C 3,2 km/h (1 Bft)
08.07.2023 04:58 22,8 °C 11,4 °C 55 % 89 % 1019,5 hPa 0,0 l/m² 0,0 km/h (0 Bft) W-SW 247 ° 0 min 0 W/m² 9,7 °C 11,4 °C 0,0 km/h (0 Bft)
08.07.2023 05:00 22,7 °C 11,3 °C 55 % 88 % 1019,5 hPa 0,0 l/m² 0,0 km/h (0 Bft) W-SW 247 ° 0 min 0 W/m² 9,4 °C 11,3 °C 0,0 km/h (0 Bft)
08.07.2023 05:01 22,8 °C 11,2 °C 55 % 88 % 1019,5 hPa 0,0 l/m² 0,0 km/h (0 Bft) W-SW 247 ° 0 min 0 W/m² 9,3 °C 11,2 °C 0,0 km/h (0 Bft)
08.07.2023 05:03 22,8 °C 11,0 °C 55 % 88 % 1019,6 hPa 0,0 l/m² 0,0 km/h (0 Bft) W-SW 247 ° 0 min 0 W/m² 9,1 °C 11,0 °C 0,0 km/h (0 Bft)
08.07.2023 05:04 22,7 °C 10,8 °C 55 % 87 % 1019,6 hPa 0,0 l/m² 0,4 km/h (0 Bft) W-SW 247 ° 0 min 0 W/m² 8,7 °C 10,8 °C 1,6 km/h (1 Bft)
08.07.2023 05:06 22,7 °C 10,6 °C 55 % 87 % 1019,7 hPa 0,0 l/m² 2,2 km/h (1 Bft) W-SW 247 ° 0 min 0 W/m² 8,5 °C 10,6 °C 3,2 km/h (1 Bft)
08.07.2023 05:08 22,7 °C 10,5 °C 55 % 88 % 1019,6 hPa 0,0 l/m² 1,9 km/h (1 Bft) W-SW 247 ° 0 min 5 W/m² 8,6 °C 10,5 °C 3,2 km/h (1 Bft)
08.07.2023 05:10 22,8 °C 10,4 °C 55 % 89 % 1019,7 hPa 0,0 l/m² 0,6 km/h (0 Bft) W-SW 247 ° 0 min 5 W/m² 8,7 °C 10,4 °C 3,2 km/h (1 Bft)
08.07.2023 05:11 22,7 °C 10,5 °C 55 % 89 % 1019,7 hPa 0,0 l/m² 0,5 km/h (0 Bft) W-SW 247 ° 0 min 5 W/m² 8,8 °C 10,5 °C 1,6 km/h (1 Bft)
08.07.2023 05:13 22,8 °C 10,6 °C 55 % 90 % 1019,7 hPa 0,0 l/m² 0,0 km/h (0 Bft) W-SW 247 ° 0 min 7 W/m² 9,0 °C 10,6 °C 0,0 km/h (0 Bft)
08.07.2023 05:14 22,8 °C 10,7 °C 55 % 90 % 1019,7 hPa 0,0 l/m² 0,0 km/h (0 Bft) W-SW 247 ° 0 min 7 W/m² 9,1 °C 10,7 °C 0,0 km/h (0 Bft)
08.07.2023 05:16 22,7 °C 10,8 °C 55 % 90 % 1019,6 hPa 0,0 l/m² 0,0 km/h (0 Bft) W-SW 247 ° 0 min 9 W/m² 9,2 °C 10,8 °C 0,0 km/h (0 Bft)
08.07.2023 05:18 22,7 °C 10,9 °C 55 % 90 % 1019,6 hPa 0,0 l/m² 0,0 km/h (0 Bft) W-SW 247 ° 0 min 9 W/m² 9,3 °C 10,9 °C 0,0 km/h (0 Bft)
08.07.2023 05:20 22,7 °C 10,9 °C 55 % 90 % 1019,6 hPa 0,0 l/m² 0,0 km/h (0 Bft) W-SW 247 ° 0 min 11 W/m² 9,3 °C 10,9 °C 0,0 km/h (0 Bft)
08.07.2023 05:21 22,8 °C 11,0 °C 55 % 90 % 1019,5 hPa 0,0 l/m² 0,0 km/h (0 Bft) W-SW 247 ° 0 min 11 W/m² 9,4 °C 11,0 °C 0,0 km/h (0 Bft)
08.07.2023 05:23 22,7 °C 11,1 °C 55 % 90 % 1019,5 hPa 0,0 l/m² 0,0 km/h (0 Bft) W-SW 247 ° 0 min 11 W/m² 9,5 °C 11,1 °C 0,0 km/h (0 Bft)
08.07.2023 05:24 22,7 °C 11,1 °C 55 % 90 % 1019,5 hPa 0,0 l/m² 0,0 km/h (0 Bft) W-SW 247 ° 0 min 12 W/m² 9,5 °C 11,1 °C 0,0 km/h (0 Bft)
08.07.2023 05:26 22,7 °C 10,9 °C 55 % 89 % 1019,6 hPa 0,0 l/m² 0,6 km/h (0 Bft) W-SW 247 ° 0 min 12 W/m² 9,2 °C 10,9 °C 3,2 km/h (1 Bft)
08.07.2023 05:28 22,7 °C 10,8 °C 55 % 89 % 1019,6 hPa 0,0 l/m² 1,0 km/h (0 Bft) W-SW 247 ° 0 min 14 W/m² 9,1 °C 10,8 °C 3,2 km/h (1 Bft)
08.07.2023 05:30 22,7 °C 10,7 °C 55 % 89 % 1019,6 hPa 0,0 l/m² 0,2 km/h (0 Bft) W-SW 247 ° 0 min 14 W/m² 9,0 °C 10,7 °C 1,6 km/h (1 Bft)
08.07.2023 05:31 22,7 °C 10,7 °C 55 % 90 % 1019,6 hPa 0,0 l/m² 0,0 km/h (0 Bft) W-SW 247 ° 0 min 16 W/m² 9,1 °C 10,7 °C 0,0 km/h (0 Bft)
08.07.2023 05:33 22,7 °C 10,7 °C 55 % 90 % 1019,6 hPa 0,0 l/m² 0,0 km/h (0 Bft) W-SW 247 ° 0 min 16 W/m² 9,1 °C 10,7 °C 0,0 km/h (0 Bft)
08.07.2023 05:34 22,7 °C 10,8 °C 55 % 90 % 1019,6 hPa 0,0 l/m² 0,0 km/h (0 Bft) W-SW 247 ° 0 min 16 W/m² 9,2 °C 10,8 °C 0,0 km/h (0 Bft)
08.07.2023 05:36 22,7 °C 10,8 °C 55 % 90 % 1019,6 hPa 0,0 l/m² 0,0 km/h (0 Bft) W-SW 247 ° 0 min 18 W/m² 9,2 °C 10,8 °C 0,0 km/h (0 Bft)
08.07.2023 05:38 22,7 °C 10,9 °C 55 % 90 % 1019,6 hPa 0,0 l/m² 0,0 km/h (0 Bft) W-SW 247 ° 0 min 19 W/m² 9,3 °C 10,9 °C 0,0 km/h (0 Bft)
08.07.2023 05:40 22,7 °C 11,1 °C 55 % 91 % 1019,6 hPa 0,0 l/m² 0,0 km/h (0 Bft) W-SW 247 ° 0 min 19 W/m² 9,7 °C 11,1 °C 0,0 km/h (0 Bft)
08.07.2023 05:41 22,7 °C 11,1 °C 55 % 91 % 1019,7 hPa 0,0 l/m² 0,0 km/h (0 Bft) W-SW 247 ° 0 min 19 W/m² 9,7 °C 11,1 °C 0,0 km/h (0 Bft)
08.07.2023 05:43 22,7 °C 11,2 °C 55 % 90 % 1019,7 hPa 0,0 l/m² 0,0 km/h (0 Bft) W-SW 247 ° 0 min 21 W/m² 9,6 °C 11,2 °C 0,0 km/h (0 Bft)
08.07.2023 05:44 22,7 °C 11,2 °C 55 % 90 % 1019,7 hPa 0,0 l/m² 0,0 km/h (0 Bft) W-SW 247 ° 0 min 21 W/m² 9,6 °C 11,2 °C 0,0 km/h (0 Bft)
08.07.2023 05:46 22,7 °C 11,3 °C 55 % 90 % 1019,8 hPa 0,0 l/m² 0,0 km/h (0 Bft) W-SW 247 ° 0 min 23 W/m² 9,7 °C 11,3 °C 0,0 km/h (0 Bft)
08.07.2023 05:48 22,7 °C 11,3 °C 55 % 90 % 1019,7 hPa 0,0 l/m² 0,0 km/h (0 Bft) W-SW 247 ° 0 min 23 W/m² 9,7 °C 11,3 °C 0,0 km/h (0 Bft)
08.07.2023 05:50 22,7 °C 11,3 °C 55 % 90 % 1019,8 hPa 0,0 l/m² 0,0 km/h (0 Bft) W-SW 247 ° 0 min 25 W/m² 9,7 °C 11,3 °C 0,0 km/h (0 Bft)
08.07.2023 05:51 22,7 °C 11,3 °C 55 % 91 % 1019,7 hPa 0,0 l/m² 0,0 km/h (0 Bft) W-SW 247 ° 0 min 26 W/m² 9,9 °C 11,3 °C 0,0 km/h (0 Bft)
08.07.2023 05:53 22,7 °C 11,4 °C 55 % 91 % 1019,7 hPa 0,0 l/m² 0,0 km/h (0 Bft) W-SW 247 ° 0 min 28 W/m² 10,0 °C 11,4 °C 0,0 km/h (0 Bft)
08.07.2023 05:54 22,7 °C 11,4 °C 55 % 91 % 1019,7 hPa 0,0 l/m² 0,0 km/h (0 Bft) W-SW 247 ° 0 min 28 W/m² 10,0 °C 11,4 °C 0,0 km/h (0 Bft)
08.07.2023 05:56 22,7 °C 11,4 °C 55 % 91 % 1019,8 hPa 0,0 l/m² 0,0 km/h (0 Bft) W-SW 247 ° 0 min 32 W/m² 10,0 °C 11,4 °C 0,0 km/h (0 Bft)
08.07.2023 05:58 22,7 °C 11,3 °C 55 % 91 % 1019,7 hPa 0,0 l/m² 0,0 km/h (0 Bft) W-SW 247 ° 0 min 33 W/m² 9,9 °C 11,3 °C 0,0 km/h (0 Bft)
08.07.2023 06:00 22,7 °C 11,2 °C 55 % 90 % 1019,7 hPa 0,0 l/m² 0,0 km/h (0 Bft) W-SW 247 ° 0 min 35 W/m² 9,6 °C 11,2 °C 0,0 km/h (0 Bft)
08.07.2023 06:01 22,7 °C 11,1 °C 55 % 90 % 1019,7 hPa 0,0 l/m² 0,1 km/h (0 Bft) W-SW 247 ° 0 min 37 W/m² 9,5 °C 11,1 °C 1,6 km/h (1 Bft)
08.07.2023 06:03 22,7 °C 11,1 °C 55 % 90 % 1019,7 hPa 0,0 l/m² 0,0 km/h (0 Bft) W-SW 247 ° 0 min 39 W/m² 9,5 °C 11,1 °C 0,0 km/h (0 Bft)
08.07.2023 06:04 22,7 °C 11,1 °C 55 % 91 % 1019,7 hPa 0,0 l/m² 0,0 km/h (0 Bft) W-SW 247 ° 0 min 40 W/m² 9,7 °C 11,1 °C 0,0 km/h (0 Bft)
08.07.2023 06:06 22,7 °C 11,1 °C 55 % 91 % 1019,6 hPa 0,0 l/m² 0,0 km/h (0 Bft) W-SW 247 ° 0 min 40 W/m² 9,7 °C 11,1 °C 0,0 km/h (0 Bft)
08.07.2023 06:08 22,7 °C 11,1 °C 55 % 91 % 1019,7 hPa 0,0 l/m² 0,0 km/h (0 Bft) W-SW 247 ° 0 min 44 W/m² 9,7 °C 11,1 °C 0,0 km/h (0 Bft)
08.07.2023 06:10 22,7 °C 11,2 °C 55 % 91 % 1019,7 hPa 0,0 l/m² 0,3 km/h (0 Bft) W-SW 247 ° 0 min 47 W/m² 9,8 °C 11,2 °C 3,2 km/h (1 Bft)
08.07.2023 06:11 22,7 °C 11,2 °C 55 % 91 % 1019,7 hPa 0,0 l/m² 2,6 km/h (1 Bft) W-SW 247 ° 0 min 49 W/m² 9,8 °C 11,2 °C 3,2 km/h (1 Bft)
08.07.2023 06:13 22,7 °C 11,3 °C 55 % 91 % 1019,8 hPa 0,0 l/m² 3,6 km/h (1 Bft) W-SW 247 ° 2 min 54 W/m² 9,9 °C 11,3 °C 4,8 km/h (1 Bft)
08.07.2023 06:14 22,7 °C 11,3 °C 55 % 91 % 1019,7 hPa 0,0 l/m² 2,6 km/h (1 Bft) W-SW 247 ° 1 min 56 W/m² 9,9 °C 11,3 °C 3,2 km/h (1 Bft)
08.07.2023 06:16 22,7 °C 11,4 °C 55 % 91 % 1019,7 hPa 0,0 l/m² 0,4 km/h (0 Bft) W-SW 247 ° 2 min 60 W/m² 10,0 °C 11,4 °C 3,2 km/h (1 Bft)
08.07.2023 06:18 22,7 °C 11,6 °C 55 % 91 % 1019,8 hPa 0,0 l/m² 0,1 km/h (0 Bft) W-SW 247 ° 2 min 65 W/m² 10,2 °C 11,6 °C 1,6 km/h (1 Bft)
08.07.2023 06:20 22,7 °C 11,7 °C 55 % 91 % 1019,9 hPa 0,0 l/m² 0,0 km/h (0 Bft) W-SW 247 ° 2 min 69 W/m² 10,3 °C 11,7 °C 0,0 km/h (0 Bft)
08.07.2023 06:21 22,7 °C 11,8 °C 55 % 91 % 1019,8 hPa 0,0 l/m² 0,0 km/h (0 Bft) W-SW 247 ° 1 min 70 W/m² 10,4 °C 11,8 °C 0,0 km/h (0 Bft)
08.07.2023 06:22 22,7 °C 11,9 °C 55 % 91 % 1019,8 hPa 0,0 l/m² 0,0 km/h (0 Bft) W-SW 247 ° 1 min 72 W/m² 10,5 °C 11,9 °C 0,0 km/h (0 Bft)
08.07.2023 06:25 22,7 °C 12,0 °C 55 % 91 % 1019,7 hPa 0,0 l/m² 0,3 km/h (0 Bft) W-SW 247 ° 3 min 81 W/m² 10,6 °C 12,0 °C 3,2 km/h (1 Bft)
08.07.2023 06:27 22,7 °C 12,1 °C 55 % 91 % 1019,8 hPa 0,0 l/m² 0,1 km/h (0 Bft) W-SW 247 ° 2 min 84 W/m² 10,7 °C 12,1 °C 1,6 km/h (1 Bft)
08.07.2023 06:29 22,7 °C 12,2 °C 55 % 91 % 1019,8 hPa 0,0 l/m² 1,1 km/h (1 Bft) W-SW 247 ° 2 min 88 W/m² 10,8 °C 12,2 °C 3,2 km/h (1 Bft)
08.07.2023 06:31 22,7 °C 12,2 °C 55 % 91 % 1019,8 hPa 0,0 l/m² 0,0 km/h (0 Bft) W-SW 247 ° 2 min 93 W/m² 10,8 °C 12,2 °C 0,0 km/h (0 Bft)
08.07.2023 06:32 22,7 °C 12,3 °C 55 % 91 % 1019,8 hPa 0,0 l/m² 0,0 km/h (0 Bft) W-SW 247 ° 1 min 95 W/m² 10,9 °C 12,3 °C 0,0 km/h (0 Bft)
08.07.2023 06:33 22,7 °C 12,3 °C 55 % 91 % 1019,7 hPa 0,0 l/m² 0,0 km/h (0 Bft) W-SW 247 ° 1 min 97 W/m² 10,9 °C 12,3 °C 0,0 km/h (0 Bft)
08.07.2023 06:35 22,7 °C 12,4 °C 55 % 91 % 1019,8 hPa 0,0 l/m² 0,0 km/h (0 Bft) W-SW 247 ° 2 min 102 W/m² 11,0 °C 12,4 °C 0,0 km/h (0 Bft)
08.07.2023 06:37 22,7 °C 12,4 °C 55 % 91 % 1019,7 hPa 0,0 l/m² 0,0 km/h (0 Bft) W-SW 247 ° 2 min 107 W/m² 11,0 °C 12,4 °C 0,0 km/h (0 Bft)
08.07.2023 06:39 22,7 °C 12,5 °C 55 % 91 % 1019,7 hPa 0,0 l/m² 0,0 km/h (0 Bft) W-SW 247 ° 2 min 113 W/m² 11,1 °C 12,5 °C 0,0 km/h (0 Bft)
08.07.2023 06:41 22,7 °C 12,6 °C 55 % 90 % 1019,7 hPa 0,0 l/m² 0,0 km/h (0 Bft) W-SW 247 ° 2 min 116 W/m² 11,0 °C 12,6 °C 0,0 km/h (0 Bft)
08.07.2023 06:42 22,7 °C 12,6 °C 55 % 90 % 1019,7 hPa 0,0 l/m² 0,0 km/h (0 Bft) W-SW 247 ° 1 min 121 W/m² 11,0 °C 12,6 °C 0,0 km/h (0 Bft)
08.07.2023 06:43 22,7 °C 12,7 °C 55 % 90 % 1019,7 hPa 0,0 l/m² 0,0 km/h (0 Bft) W-SW 247 ° 1 min 125 W/m² 11,1 °C 12,7 °C 0,0 km/h (0 Bft)
08.07.2023 06:45 22,7 °C 12,8 °C 55 % 90 % 1019,7 hPa 0,0 l/m² 0,0 km/h (0 Bft) W-SW 247 ° 2 min 130 W/m² 11,2 °C 12,8 °C 0,0 km/h (0 Bft)
08.07.2023 06:46 22,7 °C 12,8 °C 55 % 90 % 1019,7 hPa 0,0 l/m² 0,0 km/h (0 Bft) W-SW 247 ° 1 min 132 W/m² 11,2 °C 12,8 °C 0,0 km/h (0 Bft)
08.07.2023 06:47 22,7 °C 12,9 °C 55 % 90 % 1019,7 hPa 0,0 l/m² 0,0 km/h (0 Bft) W-SW 247 ° 1 min 135 W/m² 11,3 °C 12,9 °C 0,0 km/h (0 Bft)
08.07.2023 06:48 22,7 °C 12,9 °C 55 % 90 % 1019,7 hPa 0,0 l/m² 0,0 km/h (0 Bft) W-SW 247 ° 1 min 141 W/m² 11,3 °C 12,9 °C 0,0 km/h (0 Bft)
08.07.2023 06:50 22,7 °C 13,1 °C 55 % 90 % 1019,7 hPa 0,0 l/m² 0,0 km/h (0 Bft) W-SW 247 ° 2 min 146 W/m² 11,5 °C 13,1 °C 0,0 km/h (0 Bft)
08.07.2023 06:51 22,7 °C 13,2 °C 55 % 90 % 1019,7 hPa 0,0 l/m² 0,0 km/h (0 Bft) W-SW 247 ° 1 min 146 W/m² 11,6 °C 13,2 °C 0,0 km/h (0 Bft)
08.07.2023 06:53 22,7 °C 13,3 °C 55 % 90 % 1019,7 hPa 0,0 l/m² 0,0 km/h (0 Bft) W-SW 247 ° 2 min 155 W/m² 11,7 °C 13,3 °C 0,0 km/h (0 Bft)
08.07.2023 06:54 22,7 °C 13,3 °C 55 % 90 % 1019,7 hPa 0,0 l/m² 0,0 km/h (0 Bft) W-SW 247 ° 1 min 160 W/m² 11,7 °C 13,3 °C 0,0 km/h (0 Bft)
08.07.2023 06:56 22,7 °C 13,5 °C 55 % 90 % 1019,8 hPa 0,0 l/m² 0,0 km/h (0 Bft) W-SW 247 ° 2 min 163 W/m² 11,9 °C 13,5 °C 0,0 km/h (0 Bft)
08.07.2023 06:58 22,7 °C 13,6 °C 55 % 89 % 1019,7 hPa 0,0 l/m² 0,0 km/h (0 Bft) W-SW 247 ° 2 min 163 W/m² 11,8 °C 13,6 °C 0,0 km/h (0 Bft)
08.07.2023 07:00 22,7 °C 13,7 °C 55 % 89 % 1019,8 hPa 0,0 l/m² 0,0 km/h (0 Bft) W-SW 247 ° 2 min 165 W/m² 11,9 °C 13,7 °C 0,0 km/h (0 Bft)
08.07.2023 07:01 22,7 °C 13,8 °C 55 % 89 % 1019,8 hPa 0,0 l/m² 0,0 km/h (0 Bft) W-SW 247 ° 1 min 165 W/m² 12,0 °C 13,8 °C 0,0 km/h (0 Bft)
08.07.2023 07:03 22,7 °C 14,0 °C 55 % 89 % 1019,9 hPa 0,0 l/m² 0,0 km/h (0 Bft) W-SW 247 ° 2 min 165 W/m² 12,2 °C 14,0 °C 0,0 km/h (0 Bft)
08.07.2023 07:04 22,7 °C 14,1 °C 55 % 89 % 1019,9 hPa 0,0 l/m² 0,0 km/h (0 Bft) W-SW 247 ° 1 min 165 W/m² 12,3 °C 14,1 °C 0,0 km/h (0 Bft)
08.07.2023 07:06 22,7 °C 14,3 °C 55 % 89 % 1019,8 hPa 0,0 l/m² 0,0 km/h (0 Bft) W-SW 247 ° 2 min 167 W/m² 12,5 °C 14,3 °C 0,0 km/h (0 Bft)
08.07.2023 07:08 22,7 °C 14,4 °C 55 % 88 % 1019,8 hPa 0,0 l/m² 0,0 km/h (0 Bft) W-SW 247 ° 2 min 171 W/m² 12,4 °C 14,4 °C 0,0 km/h (0 Bft)
08.07.2023 07:10 22,7 °C 14,6 °C 55 % 87 % 1019,9 hPa 0,0 l/m² 0,8 km/h (0 Bft) W-SW 247 ° 2 min 144 W/m² 12,5 °C 14,6 °C 3,2 km/h (1 Bft)
08.07.2023 07:11 22,7 °C 14,7 °C 55 % 87 % 1019,8 hPa 0,0 l/m² 1,3 km/h (1 Bft) W-SW 247 ° 1 min 67 W/m² 12,6 °C 14,7 °C 3,2 km/h (1 Bft)
08.07.2023 07:13 22,7 °C 14,9 °C 55 % 86 % 1020,0 hPa 0,0 l/m² 0,6 km/h (0 Bft) W-SW 247 ° 2 min 58 W/m² 12,6 °C 14,9 °C 1,6 km/h (1 Bft)
08.07.2023 07:14 22,7 °C 15,1 °C 55 % 86 % 1020,0 hPa 0,0 l/m² 1,3 km/h (1 Bft) W-SW 247 ° 1 min 58 W/m² 12,8 °C 15,1 °C 3,2 km/h (1 Bft)
08.07.2023 07:16 22,7 °C 15,2 °C 55 % 84 % 1020,0 hPa 0,0 l/m² 1,4 km/h (1 Bft) W-SW 247 ° 2 min 62 W/m² 12,5 °C 15,2 °C 3,2 km/h (1 Bft)
08.07.2023 07:18 22,7 °C 15,4 °C 55 % 84 % 1020,0 hPa 0,0 l/m² 0,5 km/h (0 Bft) W-SW 247 ° 2 min 207 W/m² 12,7 °C 15,4 °C 3,2 km/h (1 Bft)
08.07.2023 07:20 22,7 °C 15,5 °C 55 % 83 % 1020,0 hPa 0,0 l/m² 0,4 km/h (0 Bft) W-SW 247 ° 2 min 236 W/m² 12,6 °C 15,5 °C 3,2 km/h (1 Bft)
08.07.2023 07:21 22,7 °C 15,7 °C 55 % 82 % 1020,0 hPa 0,0 l/m² 0,0 km/h (0 Bft) W-SW 247 ° 1 min 237 W/m² 12,6 °C 15,7 °C 0,0 km/h (0 Bft)
08.07.2023 07:23 22,7 °C 15,8 °C 55 % 81 % 1020,0 hPa 0,0 l/m² 0,0 km/h (0 Bft) W-SW 247 ° 2 min 246 W/m² 12,5 °C 15,8 °C 0,0 km/h (0 Bft)
08.07.2023 07:24 22,7 °C 16,0 °C 55 % 81 % 1020,0 hPa 0,0 l/m² 0,3 km/h (0 Bft) W-SW 247 ° 1 min 248 W/m² 12,7 °C 16,0 °C 1,6 km/h (1 Bft)
08.07.2023 07:26 22,7 °C 16,2 °C 55 % 80 % 1020,0 hPa 0,0 l/m² 0,1 km/h (0 Bft) W-SW 247 ° 2 min 253 W/m² 12,7 °C 16,2 °C 1,6 km/h (1 Bft)
08.07.2023 07:28 22,7 °C 16,4 °C 55 % 80 % 1020,0 hPa 0,0 l/m² 0,0 km/h (0 Bft) W-SW 247 ° 2 min 260 W/m² 12,9 °C 16,4 °C 1,6 km/h (1 Bft)
08.07.2023 07:30 22,7 °C 16,6 °C 55 % 79 % 1020,0 hPa 0,0 l/m² 0,0 km/h (0 Bft) W-SW 247 ° 2 min 267 W/m² 12,9 °C 16,6 °C 0,0 km/h (0 Bft)
08.07.2023 07:31 22,7 °C 16,7 °C 55 % 78 % 1020,1 hPa 0,0 l/m² 0,0 km/h (0 Bft) W-SW 247 ° 1 min 267 W/m² 12,8 °C 16,7 °C 0,0 km/h (0 Bft)
08.07.2023 07:33 22,7 °C 16,8 °C 55 % 77 % 1020,0 hPa 0,0 l/m² 0,0 km/h (0 Bft) W-SW 247 ° 2 min 274 W/m² 12,7 °C 16,8 °C 0,0 km/h (0 Bft)
08.07.2023 07:34 22,6 °C 16,9 °C 55 % 77 % 1019,9 hPa 0,0 l/m² 0,0 km/h (0 Bft) W-SW 247 ° 1 min 276 W/m² 12,8 °C 16,9 °C 0,0 km/h (0 Bft)
08.07.2023 07:36 22,7 °C 17,2 °C 55 % 77 % 1019,9 hPa 0,0 l/m² 0,0 km/h (0 Bft) W-SW 247 ° 2 min 285 W/m² 13,1 °C 17,2 °C 0,0 km/h (0 Bft)
08.07.2023 07:38 22,7 °C 17,4 °C 55 % 75 % 1019,9 hPa 0,0 l/m² 0,0 km/h (0 Bft) W-SW 247 ° 2 min 288 W/m² 12,9 °C 17,4 °C 0,0 km/h (0 Bft)
08.07.2023 07:40 22,6 °C 17,6 °C 55 % 75 % 1019,9 hPa 0,0 l/m² 0,0 km/h (0 Bft) W-SW 247 ° 2 min 295 W/m² 13,1 °C 17,6 °C 0,0 km/h (0 Bft)
08.07.2023 07:41 22,7 °C 17,7 °C 55 % 75 % 1019,9 hPa 0,0 l/m² 0,0 km/h (0 Bft) W-SW 247 ° 1 min 301 W/m² 13,2 °C 17,7 °C 0,0 km/h (0 Bft)
08.07.2023 07:43 22,7 °C 17,8 °C 55 % 73 % 1019,9 hPa 0,0 l/m² 0,0 km/h (0 Bft) W-SW 247 ° 2 min 302 W/m² 12,9 °C 17,8 °C 0,0 km/h (0 Bft)
08.07.2023 07:44 22,7 °C 17,9 °C 55 % 73 % 1019,9 hPa 0,0 l/m² 0,0 km/h (0 Bft) W-SW 247 ° 1 min 301 W/m² 13,0 °C 17,9 °C 0,0 km/h (0 Bft)
08.07.2023 07:46 22,7 °C 18,1 °C 55 % 73 % 1019,9 hPa 0,0 l/m² 0,0 km/h (0 Bft) W-SW 247 ° 2 min 301 W/m² 13,2 °C 18,1 °C 1,6 km/h (1 Bft)
08.07.2023 07:48 22,7 °C 18,3 °C 55 % 72 % 1020,0 hPa 0,0 l/m² 0,0 km/h (0 Bft) W-SW 247 ° 2 min 294 W/m² 13,2 °C 18,3 °C 0,0 km/h (0 Bft)
08.07.2023 07:50 22,6 °C 18,6 °C 55 % 72 % 1019,8 hPa 0,0 l/m² 0,3 km/h (0 Bft) W-SW 247 ° 2 min 288 W/m² 13,4 °C 18,6 °C 1,6 km/h (1 Bft)
08.07.2023 07:51 22,7 °C 18,7 °C 55 % 72 % 1019,8 hPa 0,0 l/m² 0,2 km/h (0 Bft) W-SW 247 ° 1 min 283 W/m² 13,5 °C 18,7 °C 1,6 km/h (1 Bft)
08.07.2023 07:53 22,7 °C 18,9 °C 55 % 70 % 1019,9 hPa 0,0 l/m² 0,1 km/h (0 Bft) W-SW 247 ° 2 min 279 W/m² 13,3 °C 18,9 °C 1,6 km/h (1 Bft)
08.07.2023 07:54 22,7 °C 19,1 °C 55 % 71 % 1019,9 hPa 0,0 l/m² 0,3 km/h (0 Bft) W-SW 247 ° 1 min 279 W/m² 13,7 °C 19,1 °C 1,6 km/h (1 Bft)
08.07.2023 07:56 22,7 °C 19,3 °C 55 % 70 % 1019,9 hPa 0,0 l/m² 1,1 km/h (1 Bft) W-SW 247 ° 2 min 281 W/m² 13,7 °C 19,3 °C 4,8 km/h (1 Bft)
08.07.2023 07:58 22,7 °C 19,4 °C 55 % 68 % 1019,8 hPa 0,0 l/m² 2,5 km/h (1 Bft) W-SW 247 ° 2 min 294 W/m² 13,3 °C 19,4 °C 4,8 km/h (1 Bft)
08.07.2023 08:00 22,7 °C 19,7 °C 55 % 68 % 1019,8 hPa 0,0 l/m² 0,8 km/h (0 Bft) W-SW 247 ° 2 min 311 W/m² 13,6 °C 19,7 °C 3,2 km/h (1 Bft)
08.07.2023 08:01 22,7 °C 19,8 °C 55 % 67 % 1019,9 hPa 0,0 l/m² 3,4 km/h (1 Bft) S-SO 154 ° 1 min 320 W/m² 13,5 °C 19,8 °C 6,4 km/h (2 Bft)
08.07.2023 08:03 22,7 °C 19,9 °C 55 % 67 % 1019,9 hPa 0,0 l/m² 1,7 km/h (1 Bft) S-SO 154 ° 2 min 339 W/m² 13,6 °C 19,9 °C 3,2 km/h (1 Bft)
08.07.2023 08:05 22,7 °C 20,2 °C 55 % 65 % 1019,9 hPa 0,0 l/m² 0,2 km/h (0 Bft) S-SO 154 ° 2 min 366 W/m² 13,4 °C 20,2 °C 1,6 km/h (1 Bft)
08.07.2023 08:07 22,7 °C 20,4 °C 55 % 65 % 1019,8 hPa 0,0 l/m² 2,4 km/h (1 Bft) S-SO 154 ° 2 min 374 W/m² 13,6 °C 20,4 °C 4,8 km/h (1 Bft)
08.07.2023 08:09 22,7 °C 20,4 °C 55 % 63 % 1019,9 hPa 0,0 l/m² 0,2 km/h (0 Bft) S-SO 154 ° 2 min 383 W/m² 13,1 °C 20,4 °C 1,6 km/h (1 Bft)
08.07.2023 08:11 22,7 °C 20,7 °C 55 % 64 % 1019,9 hPa 0,0 l/m² 0,1 km/h (0 Bft) S-SO 154 ° 2 min 394 W/m² 13,6 °C 20,7 °C 1,6 km/h (1 Bft)
08.07.2023 08:13 22,7 °C 20,8 °C 55 % 61 % 1019,8 hPa 0,0 l/m² 2,0 km/h (1 Bft) S-SO 153 ° 2 min 397 W/m² 13,0 °C 20,8 °C 3,2 km/h (1 Bft)
08.07.2023 08:15 22,7 °C 20,8 °C 55 % 61 % 1019,9 hPa 0,0 l/m² 0,0 km/h (0 Bft) S-SO 152 ° 2 min 392 W/m² 13,0 °C 20,8 °C 0,0 km/h (0 Bft)
08.07.2023 08:17 22,7 °C 20,9 °C 55 % 62 % 1019,8 hPa 0,0 l/m² 0,1 km/h (0 Bft) S-SO 160 ° 2 min 410 W/m² 13,3 °C 20,9 °C 1,6 km/h (1 Bft)
08.07.2023 08:19 22,7 °C 21,3 °C 55 % 62 % 1019,8 hPa 0,0 l/m² 0,0 km/h (0 Bft) S-SO 160 ° 2 min 411 W/m² 13,7 °C 21,3 °C 1,6 km/h (1 Bft)
08.07.2023 08:21 22,7 °C 21,3 °C 55 % 61 % 1019,8 hPa 0,0 l/m² 0,0 km/h (0 Bft) S-SO 160 ° 2 min 415 W/m² 13,5 °C 21,3 °C 1,6 km/h (1 Bft)
08.07.2023 08:23 22,7 °C 21,4 °C 55 % 62 % 1019,8 hPa 0,0 l/m² 0,0 km/h (0 Bft) S-SO 160 ° 2 min 413 W/m² 13,8 °C 21,4 °C 0,0 km/h (0 Bft)
08.07.2023 08:25 22,7 °C 21,6 °C 55 % 60 % 1019,8 hPa 0,0 l/m² 1,5 km/h (1 Bft) O-SO 111 ° 2 min 415 W/m² 13,5 °C 21,6 °C 3,2 km/h (1 Bft)
08.07.2023 08:27 22,7 °C 21,7 °C 55 % 62 % 1019,7 hPa 0,0 l/m² 0,3 km/h (0 Bft) O-SO 110 ° 2 min 406 W/m² 14,1 °C 21,7 °C 1,6 km/h (1 Bft)
08.07.2023 08:29 22,7 °C 21,7 °C 55 % 61 % 1019,8 hPa 0,0 l/m² 0,0 km/h (0 Bft) O 95 ° 2 min 397 W/m² 13,8 °C 21,7 °C 0,0 km/h (0 Bft)
08.07.2023 08:31 22,7 °C 21,8 °C 55 % 61 % 1019,8 hPa 0,0 l/m² 0,2 km/h (0 Bft) O 96 ° 2 min 394 W/m² 13,9 °C 21,8 °C 1,6 km/h (1 Bft)
08.07.2023 08:33 22,7 °C 22,2 °C 55 % 59 % 1019,9 hPa 0,0 l/m² 1,8 km/h (1 Bft) O-SO 109 ° 2 min 392 W/m² 13,8 °C 22,2 °C 4,8 km/h (1 Bft)
08.07.2023 08:35 22,7 °C 22,4 °C 55 % 57 % 1019,9 hPa 0,0 l/m² 3,6 km/h (1 Bft) O-SO 115 ° 2 min 392 W/m² 13,5 °C 22,4 °C 6,4 km/h (2 Bft)
08.07.2023 08:37 22,7 °C 22,5 °C 55 % 57 % 1019,8 hPa 0,0 l/m² 3,1 km/h (1 Bft) O-NO 78 ° 2 min 397 W/m² 13,5 °C 22,5 °C 6,4 km/h (2 Bft)
08.07.2023 08:39 22,7 °C 22,6 °C 55 % 58 % 1019,8 hPa 0,0 l/m² 4,6 km/h (1 Bft) O-SO 106 ° 2 min 404 W/m² 13,9 °C 22,6 °C 9,7 km/h (2 Bft)
08.07.2023 08:41 22,7 °C 22,7 °C 55 % 57 % 1019,9 hPa 0,0 l/m² 4,9 km/h (1 Bft) O 80 ° 2 min 420 W/m² 13,7 °C 22,7 °C 6,4 km/h (2 Bft)
08.07.2023 08:43 22,7 °C 23,0 °C 55 % 57 % 1019,8 hPa 0,0 l/m² 4,3 km/h (1 Bft) O 97 ° 2 min 427 W/m² 14,0 °C 23,0 °C 6,4 km/h (2 Bft)
08.07.2023 08:45 22,7 °C 23,0 °C 55 % 56 % 1019,8 hPa 0,0 l/m² 4,9 km/h (1 Bft) O-NO 71 ° 2 min 424 W/m² 13,7 °C 23,0 °C 8,0 km/h (2 Bft)
08.07.2023 08:47 22,7 °C 23,1 °C 55 % 56 % 1019,8 hPa 0,0 l/m² 5,7 km/h (2 Bft) O-NO 75 ° 2 min 420 W/m² 13,8 °C 23,1 °C 8,0 km/h (2 Bft)
08.07.2023 08:49 22,7 °C 23,2 °C 55 % 56 % 1019,7 hPa 0,0 l/m² 4,8 km/h (1 Bft) O-NO 74 ° 2 min 420 W/m² 13,9 °C 23,2 °C 8,0 km/h (2 Bft)
08.07.2023 08:51 22,7 °C 23,3 °C 55 % 57 % 1019,8 hPa 0,0 l/m² 5,6 km/h (2 Bft) O 92 ° 2 min 434 W/m² 14,3 °C 23,3 °C 8,0 km/h (2 Bft)
08.07.2023 08:53 22,7 °C 23,5 °C 55 % 55 % 1019,7 hPa 0,0 l/m² 4,3 km/h (1 Bft) O 92 ° 2 min 439 W/m² 13,9 °C 23,5 °C 6,4 km/h (2 Bft)
08.07.2023 08:55 22,7 °C 23,6 °C 55 % 54 % 1019,7 hPa 0,0 l/m² 4,4 km/h (1 Bft) O-NO 78 ° 2 min 388 W/m² 13,7 °C 23,6 °C 8,0 km/h (2 Bft)
08.07.2023 08:57 22,7 °C 23,4 °C 55 % 56 % 1019,8 hPa 0,0 l/m² 4,6 km/h (1 Bft) O 81 ° 2 min 434 W/m² 14,1 °C 23,4 °C 9,7 km/h (2 Bft)
08.07.2023 08:59 22,7 °C 23,4 °C 55 % 56 % 1019,7 hPa 0,0 l/m² 4,6 km/h (1 Bft) O 80 ° 2 min 417 W/m² 14,1 °C 23,4 °C 6,4 km/h (2 Bft)
08.07.2023 09:01 22,7 °C 23,6 °C 55 % 54 % 1019,6 hPa 0,0 l/m² 5,3 km/h (1 Bft) O-SO 103 ° 2 min 448 W/m² 13,7 °C 23,6 °C 11,3 km/h (2 Bft)
08.07.2023 09:03 22,7 °C 23,7 °C 55 % 55 % 1019,7 hPa 0,0 l/m² 5,0 km/h (1 Bft) O-NO 65 ° 2 min 448 W/m² 14,1 °C 23,7 °C 8,0 km/h (2 Bft)
08.07.2023 09:05 22,7 °C 23,8 °C 55 % 54 % 1019,6 hPa 0,0 l/m² 5,2 km/h (1 Bft) O-SO 117 ° 2 min 508 W/m² 13,9 °C 23,8 °C 9,7 km/h (2 Bft)
08.07.2023 09:07 22,7 °C 23,9 °C 55 % 53 % 1019,7 hPa 0,0 l/m² 5,2 km/h (1 Bft) O-SO 114 ° 2 min 533 W/m² 13,7 °C 23,9 °C 9,7 km/h (2 Bft)
08.07.2023 09:09 22,7 °C 24,3 °C 55 % 53 % 1019,6 hPa 0,0 l/m² 5,3 km/h (1 Bft) O 97 ° 2 min 434 W/m² 14,1 °C 24,3 °C 9,7 km/h (2 Bft)
08.07.2023 09:11 22,7 °C 24,2 °C 55 % 52 % 1019,7 hPa 0,0 l/m² 5,8 km/h (2 Bft) O 94 ° 2 min 438 W/m² 13,7 °C 24,2 °C 9,7 km/h (2 Bft)
08.07.2023 09:13 22,7 °C 24,1 °C 55 % 52 % 1019,6 hPa 0,0 l/m² 5,6 km/h (2 Bft) O-SO 105 ° 2 min 394 W/m² 13,6 °C 24,1 °C 9,7 km/h (2 Bft)
08.07.2023 09:15 22,8 °C 24,0 °C 55 % 52 % 1019,6 hPa 0,0 l/m² 3,7 km/h (1 Bft) O-SO 104 ° 2 min 367 W/m² 13,5 °C 24,0 °C 4,8 km/h (1 Bft)
08.07.2023 09:17 22,8 °C 23,8 °C 55 % 54 % 1019,7 hPa 0,0 l/m² 4,0 km/h (1 Bft) O 101 ° 2 min 401 W/m² 13,9 °C 23,8 °C 6,4 km/h (2 Bft)
08.07.2023 09:19 22,7 °C 23,9 °C 55 % 54 % 1019,6 hPa 0,0 l/m² 5,0 km/h (1 Bft) O-SO 112 ° 2 min 403 W/m² 14,0 °C 23,9 °C 9,7 km/h (2 Bft)
08.07.2023 09:21 22,7 °C 24,0 °C 55 % 52 % 1019,6 hPa 0,0 l/m² 4,8 km/h (1 Bft) O-SO 117 ° 2 min 445 W/m² 13,5 °C 24,0 °C 6,4 km/h (2 Bft)
08.07.2023 09:23 22,7 °C 24,0 °C 55 % 51 % 1019,7 hPa 0,0 l/m² 3,4 km/h (1 Bft) O-SO 116 ° 2 min 570 W/m² 13,2 °C 24,0 °C 4,8 km/h (1 Bft)
08.07.2023 09:25 22,7 °C 24,3 °C 55 % 53 % 1019,6 hPa 0,0 l/m² 2,6 km/h (1 Bft) O-SO 116 ° 2 min 378 W/m² 14,1 °C 24,3 °C 4,8 km/h (1 Bft)
08.07.2023 09:27 22,7 °C 24,6 °C 55 % 52 % 1019,6 hPa 0,0 l/m² 4,0 km/h (1 Bft) O 92 ° 2 min 468 W/m² 14,1 °C 24,6 °C 6,4 km/h (2 Bft)
08.07.2023 09:29 22,7 °C 24,4 °C 55 % 51 % 1019,6 hPa 0,0 l/m² 1,1 km/h (1 Bft) O 88 ° 2 min 520 W/m² 13,6 °C 24,4 °C 3,2 km/h (1 Bft)
08.07.2023 09:31 22,8 °C 24,3 °C 55 % 52 % 1019,5 hPa 0,0 l/m² 1,7 km/h (1 Bft) O-NO 76 ° 2 min 483 W/m² 13,8 °C 24,3 °C 4,8 km/h (1 Bft)
08.07.2023 09:33 22,8 °C 24,1 °C 55 % 53 % 1019,5 hPa 0,0 l/m² 2,4 km/h (1 Bft) O-NO 72 ° 2 min 533 W/m² 13,9 °C 24,1 °C 8,0 km/h (2 Bft)
08.07.2023 09:35 22,8 °C 24,2 °C 55 % 52 % 1019,6 hPa 0,0 l/m² 0,3 km/h (0 Bft) O 92 ° 2 min 512 W/m² 13,7 °C 24,2 °C 1,6 km/h (1 Bft)
08.07.2023 09:37 22,7 °C 24,3 °C 55 % 52 % 1019,6 hPa 0,0 l/m² 0,6 km/h (0 Bft) O 88 ° 2 min 554 W/m² 13,8 °C 24,3 °C 3,2 km/h (1 Bft)
08.07.2023 09:39 22,8 °C 24,7 °C 55 % 51 % 1019,6 hPa 0,0 l/m² 3,5 km/h (1 Bft) O-NO 65 ° 2 min 571 W/m² 13,9 °C 24,7 °C 6,4 km/h (2 Bft)
08.07.2023 09:41 22,7 °C 24,9 °C 55 % 51 % 1019,6 hPa 0,0 l/m² 3,8 km/h (1 Bft) NO 56 ° 2 min 482 W/m² 14,1 °C 24,9 °C 6,4 km/h (2 Bft)
08.07.2023 09:43 22,7 °C 24,8 °C 55 % 52 % 1019,5 hPa 0,0 l/m² 1,4 km/h (1 Bft) NO 56 ° 2 min 508 W/m² 14,3 °C 24,8 °C 3,2 km/h (1 Bft)
08.07.2023 09:45 22,7 °C 24,6 °C 55 % 49 % 1019,5 hPa 0,0 l/m² 2,3 km/h (1 Bft) O-SO 112 ° 2 min 478 W/m² 13,2 °C 24,6 °C 4,8 km/h (1 Bft)
08.07.2023 09:46 22,8 °C 24,8 °C 55 % 49 % 1019,5 hPa 0,0 l/m² 4,8 km/h (1 Bft) O-SO 113 ° 1 min 476 W/m² 13,3 °C 24,8 °C 6,4 km/h (2 Bft)
08.07.2023 09:47 22,7 °C 24,9 °C 55 % 48 % 1019,5 hPa 0,0 l/m² 4,3 km/h (1 Bft) O-SO 114 ° 1 min 504 W/m² 13,1 °C 24,9 °C 6,4 km/h (2 Bft)
08.07.2023 09:48 22,7 °C 25,0 °C 55 % 48 % 1019,5 hPa 0,0 l/m² 2,5 km/h (1 Bft) O-SO 114 ° 1 min 492 W/m² 13,2 °C 25,0 °C 3,2 km/h (1 Bft)
08.07.2023 09:50 22,8 °C 25,2 °C 55 % 48 % 1019,4 hPa 0,0 l/m² 1,7 km/h (1 Bft) O-SO 113 ° 2 min 490 W/m² 13,4 °C 25,2 °C 4,8 km/h (1 Bft)
08.07.2023 09:52 22,7 °C 25,3 °C 55 % 46 % 1019,6 hPa 0,0 l/m² 1,4 km/h (1 Bft) O-SO 113 ° 2 min 513 W/m² 12,8 °C 25,3 °C 3,2 km/h (1 Bft)
08.07.2023 09:54 22,7 °C 25,3 °C 55 % 47 % 1019,5 hPa 0,0 l/m² 0,3 km/h (0 Bft) O-SO 113 ° 2 min 657 W/m² 13,2 °C 25,3 °C 3,2 km/h (1 Bft)
08.07.2023 09:56 22,8 °C 25,6 °C 55 % 48 % 1019,5 hPa 0,0 l/m² 2,0 km/h (1 Bft) O-NO 57 ° 2 min 636 W/m² 13,8 °C 25,6 °C 6,4 km/h (2 Bft)
08.07.2023 09:58 22,8 °C 25,7 °C 55 % 47 % 1019,4 hPa 0,0 l/m² 3,3 km/h (1 Bft) O 101 ° 2 min 677 W/m² 13,5 °C 25,7 °C 6,4 km/h (2 Bft)
08.07.2023 10:00 22,8 °C 25,9 °C 55 % 46 % 1019,4 hPa 0,0 l/m² 1,6 km/h (1 Bft) O 101 ° 2 min 733 W/m² 13,4 °C 25,9 °C 4,8 km/h (1 Bft)
08.07.2023 10:02 22,7 °C 26,1 °C 55 % 48 % 1019,4 hPa 0,0 l/m² 1,7 km/h (1 Bft) O 84 ° 2 min 673 W/m² 14,2 °C 26,1 °C 6,4 km/h (2 Bft)
08.07.2023 10:04 22,8 °C 26,3 °C 55 % 45 % 1019,5 hPa 0,0 l/m² 3,3 km/h (1 Bft) O-NO 75 ° 2 min 691 W/m² 13,4 °C 26,3 °C 8,0 km/h (2 Bft)
08.07.2023 10:06 22,7 °C 26,7 °C 55 % 46 % 1019,5 hPa 0,0 l/m² 4,3 km/h (1 Bft) O-NO 60 ° 2 min 728 W/m² 14,1 °C 26,7 °C 8,0 km/h (2 Bft)
08.07.2023 10:08 22,8 °C 26,8 °C 55 % 44 % 1019,5 hPa 0,0 l/m² 2,2 km/h (1 Bft) O-NO 59 ° 2 min 656 W/m² 13,5 °C 26,8 °C 4,8 km/h (1 Bft)
08.07.2023 10:10 22,8 °C 26,7 °C 55 % 45 % 1019,5 hPa 0,0 l/m² 1,4 km/h (1 Bft) O-NO 67 ° 2 min 459 W/m² 13,8 °C 26,7 °C 4,8 km/h (1 Bft)
08.07.2023 10:11 22,8 °C 26,7 °C 55 % 44 % 1019,6 hPa 0,0 l/m² 5,0 km/h (1 Bft) O-NO 67 ° 1 min 364 W/m² 13,4 °C 26,7 °C 8,0 km/h (2 Bft)
08.07.2023 10:13 22,8 °C 26,6 °C 55 % 44 % 1019,6 hPa 0,0 l/m² 4,9 km/h (1 Bft) NO 42 ° 2 min 561 W/m² 13,3 °C 26,6 °C 8,0 km/h (2 Bft)
08.07.2023 10:15 22,8 °C 26,4 °C 55 % 44 % 1019,6 hPa 0,0 l/m² 5,2 km/h (1 Bft) O-NO 69 ° 2 min 432 W/m² 13,1 °C 26,4 °C 8,0 km/h (2 Bft)
08.07.2023 10:17 22,7 °C 26,4 °C 55 % 45 % 1019,6 hPa 0,0 l/m² 4,8 km/h (1 Bft) O-NO 74 ° 2 min 432 W/m² 13,5 °C 26,4 °C 8,0 km/h (2 Bft)
08.07.2023 10:19 22,7 °C 26,6 °C 55 % 44 % 1019,6 hPa 0,0 l/m² 5,9 km/h (2 Bft) O-NO 69 ° 2 min 788 W/m² 13,3 °C 26,6 °C 11,3 km/h (2 Bft)
08.07.2023 10:21 22,8 °C 27,1 °C 55 % 44 % 1019,5 hPa 0,0 l/m² 5,6 km/h (2 Bft) O-NO 77 ° 2 min 788 W/m² 13,8 °C 27,1 °C 8,0 km/h (2 Bft)
08.07.2023 10:23 22,8 °C 27,4 °C 55 % 43 % 1019,6 hPa 0,0 l/m² 5,7 km/h (2 Bft) O-NO 59 ° 2 min 791 W/m² 13,7 °C 27,4 °C 8,0 km/h (2 Bft)
08.07.2023 10:25 22,7 °C 27,3 °C 55 % 43 % 1019,6 hPa 0,0 l/m² 5,1 km/h (1 Bft) NO 52 ° 2 min 796 W/m² 13,6 °C 27,3 °C 8,0 km/h (2 Bft)
08.07.2023 10:27 22,8 °C 27,3 °C 55 % 43 % 1019,6 hPa 0,0 l/m² 3,6 km/h (1 Bft) O-NO 69 ° 2 min 803 W/m² 13,6 °C 27,3 °C 11,3 km/h (2 Bft)
08.07.2023 10:29 22,8 °C 27,8 °C 55 % 41 % 1019,6 hPa 0,0 l/m² 6,3 km/h (2 Bft) O 83 ° 2 min 810 W/m² 13,3 °C 27,8 °C 12,9 km/h (3 Bft)
08.07.2023 10:31 22,8 °C 27,9 °C 55 % 38 % 1019,5 hPa 0,0 l/m² 6,7 km/h (2 Bft) NO 55 ° 2 min 817 W/m² 12,2 °C 27,9 °C 11,3 km/h (2 Bft)
08.07.2023 10:33 22,8 °C 28,2 °C 55 % 39 % 1019,6 hPa 0,0 l/m² 5,0 km/h (1 Bft) NO 38 ° 2 min 803 W/m² 12,9 °C 28,2 °C 8,0 km/h (2 Bft)
08.07.2023 10:35 22,7 °C 27,9 °C 55 % 41 % 1019,5 hPa 0,0 l/m² 3,9 km/h (1 Bft) NO 53 ° 2 min 761 W/m² 13,4 °C 27,9 °C 9,7 km/h (2 Bft)
08.07.2023 10:37 22,8 °C 27,9 °C 55 % 41 % 1019,5 hPa 0,0 l/m² 4,2 km/h (1 Bft) NO 43 ° 2 min 752 W/m² 13,4 °C 27,9 °C 8,0 km/h (2 Bft)
08.07.2023 10:39 22,8 °C 27,9 °C 55 % 40 % 1019,6 hPa 0,0 l/m² 3,3 km/h (1 Bft) NO 38 ° 2 min 833 W/m² 13,0 °C 27,9 °C 6,4 km/h (2 Bft)
08.07.2023 10:41 22,8 °C 27,7 °C 55 % 42 % 1019,5 hPa 0,0 l/m² 1,9 km/h (1 Bft) O-NO 57 ° 2 min 802 W/m² 13,6 °C 27,7 °C 6,4 km/h (2 Bft)
08.07.2023 10:43 22,8 °C 27,9 °C 55 % 40 % 1019,6 hPa 0,0 l/m² 5,7 km/h (2 Bft) N 10 ° 2 min 654 W/m² 13,0 °C 27,9 °C 11,3 km/h (2 Bft)
08.07.2023 10:45 22,8 °C 27,7 °C 55 % 40 % 1019,6 hPa 0,0 l/m² 4,6 km/h (1 Bft) N-NO 24 ° 2 min 545 W/m² 12,9 °C 27,7 °C 8,0 km/h (2 Bft)
08.07.2023 10:47 22,8 °C 27,6 °C 55 % 42 % 1019,6 hPa 0,0 l/m² 0,6 km/h (0 Bft) N-NO 29 ° 2 min 747 W/m² 13,5 °C 27,6 °C 3,2 km/h (1 Bft)
08.07.2023 10:49 22,8 °C 27,8 °C 55 % 39 % 1019,6 hPa 0,0 l/m² 2,8 km/h (1 Bft) O-NO 71 ° 2 min 557 W/m² 12,6 °C 27,8 °C 9,7 km/h (2 Bft)
08.07.2023 10:51 22,8 °C 28,2 °C 55 % 38 % 1019,6 hPa 0,0 l/m² 5,6 km/h (2 Bft) O 88 ° 2 min 680 W/m² 12,5 °C 28,2 °C 9,7 km/h (2 Bft)
08.07.2023 10:53 22,8 °C 28,4 °C 55 % 38 % 1019,6 hPa 0,0 l/m² 4,9 km/h (1 Bft) O-SO 112 ° 2 min 659 W/m² 12,7 °C 28,4 °C 9,7 km/h (2 Bft)
08.07.2023 10:55 22,8 °C 28,9 °C 55 % 38 % 1019,6 hPa 0,0 l/m² 5,4 km/h (2 Bft) O-NO 58 ° 2 min 638 W/m² 13,1 °C 28,9 °C 9,7 km/h (2 Bft)
08.07.2023 10:57 22,8 °C 28,8 °C 55 % 36 % 1019,6 hPa 0,0 l/m² 5,2 km/h (1 Bft) O-NO 72 ° 2 min 754 W/m² 12,2 °C 28,8 °C 9,7 km/h (2 Bft)
08.07.2023 10:59 22,8 °C 28,8 °C 55 % 38 % 1019,5 hPa 0,0 l/m² 3,7 km/h (1 Bft) O-NO 58 ° 2 min 838 W/m² 13,0 °C 28,8 °C 8,0 km/h (2 Bft)
08.07.2023 11:01 22,8 °C 28,7 °C 55 % 37 % 1019,5 hPa 0,0 l/m² 4,7 km/h (1 Bft) O-NO 59 ° 2 min 868 W/m² 12,5 °C 28,7 °C 8,0 km/h (2 Bft)
08.07.2023 11:02 22,8 °C 28,8 °C 55 % 38 % 1019,5 hPa 0,0 l/m² 4,9 km/h (1 Bft) O-NO 76 ° 1 min 872 W/m² 13,0 °C 28,8 °C 8,0 km/h (2 Bft)
08.07.2023 11:03 22,8 °C 29,0 °C 55 % 38 % 1019,5 hPa 0,0 l/m² 3,6 km/h (1 Bft) NO 38 ° 1 min 867 W/m² 13,2 °C 29,0 °C 6,4 km/h (2 Bft)
08.07.2023 11:05 22,8 °C 29,1 °C 55 % 38 % 1019,6 hPa 0,0 l/m² 3,4 km/h (1 Bft) NO 55 ° 2 min 770 W/m² 13,3 °C 29,1 °C 14,5 km/h (3 Bft)
08.07.2023 11:07 22,8 °C 28,8 °C 55 % 36 % 1019,5 hPa 0,0 l/m² 2,9 km/h (1 Bft) N-NO 17 ° 2 min 663 W/m² 12,2 °C 28,8 °C 6,4 km/h (2 Bft)
08.07.2023 11:09 22,8 °C 28,7 °C 55 % 37 % 1019,5 hPa 0,0 l/m² 3,6 km/h (1 Bft) NO 49 ° 2 min 791 W/m² 12,5 °C 28,7 °C 8,0 km/h (2 Bft)
08.07.2023 11:11 22,8 °C 28,7 °C 55 % 37 % 1019,5 hPa 0,0 l/m² 3,6 km/h (1 Bft) O-NO 67 ° 2 min 689 W/m² 12,5 °C 28,7 °C 9,7 km/h (2 Bft)
08.07.2023 11:13 22,8 °C 29,1 °C 55 % 36 % 1019,5 hPa 0,0 l/m² 4,7 km/h (1 Bft) O 92 ° 2 min 837 W/m² 12,5 °C 29,1 °C 9,7 km/h (2 Bft)
08.07.2023 11:15 22,8 °C 29,2 °C 55 % 35 % 1019,5 hPa 0,0 l/m² 4,6 km/h (1 Bft) O 86 ° 2 min 868 W/m² 12,1 °C 29,2 °C 12,9 km/h (3 Bft)
08.07.2023 11:17 22,8 °C 29,3 °C 55 % 35 % 1019,4 hPa 0,0 l/m² 7,0 km/h (2 Bft) O-SO 106 ° 2 min 867 W/m² 12,2 °C 29,2 °C 12,9 km/h (3 Bft)
08.07.2023 11:19 22,8 °C 29,5 °C 55 % 34 % 1019,5 hPa 0,0 l/m² 7,7 km/h (2 Bft) O 82 ° 2 min 846 W/m² 12,0 °C 29,4 °C 12,9 km/h (3 Bft)
08.07.2023 11:21 22,8 °C 29,5 °C 55 % 35 % 1019,5 hPa 0,0 l/m² 3,4 km/h (1 Bft) NO 53 ° 2 min 858 W/m² 12,4 °C 29,5 °C 8,0 km/h (2 Bft)
08.07.2023 11:22 22,8 °C 29,4 °C 55 % 37 % 1019,4 hPa 0,0 l/m² 0,5 km/h (0 Bft) O-SO 104 ° 1 min 814 W/m² 13,2 °C 29,4 °C 4,8 km/h (1 Bft)
08.07.2023 11:23 22,8 °C 29,4 °C 55 % 35 % 1019,4 hPa 0,0 l/m² 3,2 km/h (1 Bft) O-SO 119 ° 1 min 835 W/m² 12,3 °C 29,4 °C 6,4 km/h (2 Bft)
08.07.2023 11:25 22,8 °C 29,6 °C 55 % 34 % 1019,3 hPa 0,0 l/m² 5,4 km/h (2 Bft) O-SO 113 ° 2 min 847 W/m² 12,1 °C 29,6 °C 11,3 km/h (2 Bft)
08.07.2023 11:27 22,8 °C 29,9 °C 55 % 33 % 1019,4 hPa 0,0 l/m² 7,8 km/h (2 Bft) O-SO 104 ° 2 min 877 W/m² 11,9 °C 29,8 °C 12,9 km/h (3 Bft)
08.07.2023 11:29 22,8 °C 30,1 °C 55 % 34 % 1019,3 hPa 0,0 l/m² 6,4 km/h (2 Bft) O-SO 120 ° 2 min 872 W/m² 12,5 °C 30,1 °C 11,3 km/h (2 Bft)
08.07.2023 11:31 22,8 °C 30,3 °C 55 % 35 % 1019,3 hPa 0,0 l/m² 5,9 km/h (2 Bft) O-SO 103 ° 2 min 872 W/m² 13,1 °C 30,3 °C 12,9 km/h (3 Bft)
08.07.2023 11:33 22,8 °C 30,1 °C 55 % 34 % 1019,3 hPa 0,0 l/m² 5,5 km/h (2 Bft) O-SO 115 ° 2 min 874 W/m² 12,5 °C 30,1 °C 11,3 km/h (2 Bft)
08.07.2023 11:35 22,8 °C 30,2 °C 55 % 34 % 1019,3 hPa 0,0 l/m² 9,0 km/h (2 Bft) SO 131 ° 2 min 872 W/m² 12,6 °C 30,0 °C 12,9 km/h (3 Bft)
08.07.2023 11:37 22,8 °C 30,4 °C 55 % 35 % 1019,3 hPa 0,0 l/m² 6,8 km/h (2 Bft) O 87 ° 2 min 872 W/m² 13,2 °C 30,4 °C 12,9 km/h (3 Bft)
08.07.2023 11:39 22,8 °C 30,2 °C 55 % 35 % 1019,3 hPa 0,0 l/m² 2,9 km/h (1 Bft) SO 128 ° 2 min 874 W/m² 13,0 °C 30,2 °C 4,8 km/h (1 Bft)
08.07.2023 11:41 22,8 °C 30,2 °C 55 % 35 % 1019,3 hPa 0,0 l/m² 3,9 km/h (1 Bft) SO 138 ° 2 min 875 W/m² 13,0 °C 30,2 °C 9,7 km/h (2 Bft)
08.07.2023 11:43 22,8 °C 30,9 °C 55 % 35 % 1019,3 hPa 0,0 l/m² 11,0 km/h (2 Bft) O 82 ° 2 min 875 W/m² 13,6 °C 30,6 °C 14,5 km/h (3 Bft)
08.07.2023 11:45 22,9 °C 30,8 °C 55 % 33 % 1019,3 hPa 0,0 l/m² 9,0 km/h (2 Bft) O 97 ° 2 min 879 W/m² 12,6 °C 30,6 °C 14,5 km/h (3 Bft)
08.07.2023 11:47 22,8 °C 30,9 °C 55 % 34 % 1019,2 hPa 0,0 l/m² 9,9 km/h (2 Bft) O 80 ° 2 min 879 W/m² 13,2 °C 30,7 °C 14,5 km/h (3 Bft)
08.07.2023 11:49 22,8 °C 30,8 °C 55 % 33 % 1019,2 hPa 0,0 l/m² 7,1 km/h (2 Bft) O-SO 119 ° 2 min 884 W/m² 12,6 °C 30,8 °C 11,3 km/h (2 Bft)
08.07.2023 11:51 22,9 °C 30,7 °C 55 % 34 % 1019,2 hPa 0,0 l/m² 4,6 km/h (1 Bft) O 84 ° 2 min 886 W/m² 13,0 °C 30,7 °C 11,3 km/h (2 Bft)
08.07.2023 11:53 22,9 °C 30,7 °C 55 % 34 % 1019,2 hPa 0,0 l/m² 4,5 km/h (1 Bft) O 96 ° 2 min 884 W/m² 13,0 °C 30,7 °C 12,9 km/h (3 Bft)
08.07.2023 11:55 22,9 °C 30,9 °C 55 % 33 % 1019,2 hPa 0,0 l/m² 9,2 km/h (2 Bft) O-SO 113 ° 2 min 888 W/m² 12,7 °C 30,7 °C 14,5 km/h (3 Bft)
08.07.2023 11:57 22,8 °C 31,3 °C 55 % 34 % 1019,2 hPa 0,0 l/m² 6,0 km/h (2 Bft) O-SO 111 ° 2 min 888 W/m² 13,5 °C 31,3 °C 11,3 km/h (2 Bft)
08.07.2023 11:59 22,8 °C 31,6 °C 55 % 33 % 1019,1 hPa 0,0 l/m² 8,2 km/h (2 Bft) O-SO 115 ° 2 min 895 W/m² 13,3 °C 31,5 °C 12,9 km/h (3 Bft)
08.07.2023 12:01 22,8 °C 31,8 °C 55 % 32 % 1019,2 hPa 0,0 l/m² 11,5 km/h (2 Bft) O 84 ° 2 min 895 W/m² 13,0 °C 31,6 °C 17,7 km/h (3 Bft)
08.07.2023 12:03 22,8 °C 31,8 °C 55 % 32 % 1019,3 hPa 0,0 l/m² 10,3 km/h (2 Bft) O 87 ° 2 min 893 W/m² 13,0 °C 31,7 °C 12,9 km/h (3 Bft)
08.07.2023 12:05 22,8 °C 31,4 °C 55 % 31 % 1019,2 hPa 0,0 l/m² 4,7 km/h (1 Bft) O-SO 112 ° 2 min 896 W/m² 12,2 °C 31,4 °C 8,0 km/h (2 Bft)
08.07.2023 12:07 22,9 °C 31,2 °C 55 % 32 % 1019,2 hPa 0,0 l/m² 6,8 km/h (2 Bft) O 88 ° 2 min 900 W/m² 12,5 °C 31,2 °C 12,9 km/h (3 Bft)
08.07.2023 12:09 22,9 °C 31,2 °C 55 % 33 % 1019,2 hPa 0,0 l/m² 6,6 km/h (2 Bft) O-NO 74 ° 2 min 902 W/m² 13,0 °C 31,2 °C 14,5 km/h (3 Bft)
08.07.2023 12:11 22,9 °C 31,5 °C 55 % 32 % 1019,2 hPa 0,0 l/m² 7,7 km/h (2 Bft) O 80 ° 2 min 904 W/m² 12,8 °C 31,4 °C 16,1 km/h (3 Bft)
08.07.2023 12:13 22,8 °C 31,9 °C 55 % 30 % 1019,1 hPa 0,0 l/m² 11,6 km/h (2 Bft) O-SO 117 ° 2 min 905 W/m² 12,1 °C 31,7 °C 16,1 km/h (3 Bft)
08.07.2023 12:14 22,8 °C 32,0 °C 55 % 30 % 1019,2 hPa 0,0 l/m² 9,5 km/h (2 Bft) O-NO 76 ° 1 min 905 W/m² 12,2 °C 31,9 °C 12,9 km/h (3 Bft)
08.07.2023 12:15 22,8 °C 32,0 °C 55 % 31 % 1019,2 hPa 0,0 l/m² 7,8 km/h (2 Bft) O 92 ° 1 min 907 W/m² 12,7 °C 32,0 °C 11,3 km/h (2 Bft)
08.07.2023 12:17 22,8 °C 32,4 °C 55 % 31 % 1019,1 hPa 0,0 l/m² 9,5 km/h (2 Bft) O 98 ° 2 min 907 W/m² 13,1 °C 32,3 °C 14,5 km/h (3 Bft)
08.07.2023 12:19 22,9 °C 32,3 °C 55 % 31 % 1019,2 hPa 0,0 l/m² 8,0 km/h (2 Bft) NO 51 ° 2 min 911 W/m² 13,0 °C 32,3 °C 16,1 km/h (3 Bft)
08.07.2023 12:21 22,9 °C 31,8 °C 55 % 31 % 1019,2 hPa 0,0 l/m² 5,8 km/h (2 Bft) N-NO 14 ° 2 min 912 W/m² 12,6 °C 31,8 °C 11,3 km/h (2 Bft)
08.07.2023 12:23 22,8 °C 31,3 °C 55 % 32 % 1019,1 hPa 0,0 l/m² 4,8 km/h (1 Bft) O-NO 78 ° 2 min 916 W/m² 12,6 °C 31,3 °C 14,5 km/h (3 Bft)
08.07.2023 12:25 22,9 °C 31,4 °C 55 % 31 % 1019,1 hPa 0,0 l/m² 9,7 km/h (2 Bft) O 96 ° 2 min 916 W/m² 12,2 °C 31,2 °C 14,5 km/h (3 Bft)
08.07.2023 12:27 22,9 °C 31,9 °C 55 % 32 % 1019,1 hPa 0,0 l/m² 6,6 km/h (2 Bft) O-SO 109 ° 2 min 914 W/m² 13,1 °C 31,9 °C 12,9 km/h (3 Bft)
08.07.2023 12:29 22,8 °C 32,3 °C 55 % 30 % 1019,0 hPa 0,0 l/m² 9,1 km/h (2 Bft) NO 41 ° 2 min 921 W/m² 12,5 °C 32,2 °C 12,9 km/h (3 Bft)
08.07.2023 12:31 22,9 °C 32,1 °C 55 % 30 % 1019,0 hPa 0,0 l/m² 5,8 km/h (2 Bft) O 91 ° 2 min 923 W/m² 12,3 °C 32,1 °C 9,7 km/h (2 Bft)
08.07.2023 12:33 22,9 °C 32,1 °C 55 % 32 % 1019,0 hPa 0,0 l/m² 6,9 km/h (2 Bft) NO 40 ° 2 min 921 W/m² 13,3 °C 32,1 °C 11,3 km/h (2 Bft)
08.07.2023 12:35 22,9 °C 31,8 °C 55 % 31 % 1019,0 hPa 0,0 l/m² 4,5 km/h (1 Bft) O-NO 64 ° 2 min 925 W/m² 12,6 °C 31,8 °C 8,0 km/h (2 Bft)
08.07.2023 12:37 22,9 °C 31,9 °C 55 % 32 % 1018,9 hPa 0,0 l/m² 10,8 km/h (2 Bft) O 94 ° 2 min 928 W/m² 13,1 °C 31,8 °C 16,1 km/h (3 Bft)
08.07.2023 12:39 22,9 °C 32,3 °C 55 % 30 % 1019,0 hPa 0,0 l/m² 13,0 km/h (3 Bft) O 84 ° 2 min 935 W/m² 12,5 °C 32,2 °C 19,3 km/h (3 Bft)
08.07.2023 12:41 22,9 °C 32,4 °C 55 % 29 % 1019,0 hPa 0,0 l/m² 8,3 km/h (2 Bft) SO 126 ° 2 min 939 W/m² 12,1 °C 32,4 °C 14,5 km/h (3 Bft)
08.07.2023 12:43 22,9 °C 32,6 °C 55 % 28 % 1019,0 hPa 0,0 l/m² 14,1 km/h (3 Bft) O 101 ° 2 min 940 W/m² 11,7 °C 32,5 °C 19,3 km/h (3 Bft)
08.07.2023 12:45 22,9 °C 32,4 °C 55 % 28 % 1019,0 hPa 0,0 l/m² 12,0 km/h (2 Bft) O 98 ° 2 min 947 W/m² 11,5 °C 32,3 °C 17,7 km/h (3 Bft)
08.07.2023 12:46 22,9 °C 32,3 °C 55 % 29 % 1019,0 hPa 0,0 l/m² 9,7 km/h (2 Bft) SO 137 ° 1 min 946 W/m² 12,0 °C 32,2 °C 14,5 km/h (3 Bft)
08.07.2023 12:48 22,9 °C 32,2 °C 55 % 29 % 1018,9 hPa 0,0 l/m² 7,6 km/h (2 Bft) O-SO 111 ° 2 min 928 W/m² 11,9 °C 32,2 °C 12,9 km/h (3 Bft)
08.07.2023 12:50 22,9 °C 32,2 °C 55 % 29 % 1019,0 hPa 0,0 l/m² 12,6 km/h (3 Bft) O 86 ° 2 min 916 W/m² 11,9 °C 32,1 °C 25,7 km/h (4 Bft)
08.07.2023 12:52 22,9 °C 32,2 °C 55 % 29 % 1019,0 hPa 0,0 l/m² 11,3 km/h (2 Bft) O 96 ° 2 min 898 W/m² 11,9 °C 32,1 °C 19,3 km/h (3 Bft)
08.07.2023 12:54 22,9 °C 32,5 °C 55 % 31 % 1019,0 hPa 0,0 l/m² 13,3 km/h (3 Bft) O 97 ° 2 min 856 W/m² 13,2 °C 32,4 °C 17,7 km/h (3 Bft)
08.07.2023 12:56 22,9 °C 32,8 °C 55 % 28 % 1019,0 hPa 0,0 l/m² 13,2 km/h (3 Bft) O 82 ° 2 min 860 W/m² 11,9 °C 32,8 °C 19,3 km/h (3 Bft)
08.07.2023 12:58 22,9 °C 32,6 °C 55 % 28 % 1019,0 hPa 0,0 l/m² 6,7 km/h (2 Bft) O 84 ° 2 min 824 W/m² 11,7 °C 32,6 °C 14,5 km/h (3 Bft)
08.07.2023 13:00 22,9 °C 32,1 °C 55 % 29 % 1019,0 hPa 0,0 l/m² 5,7 km/h (2 Bft) O-NO 72 ° 2 min 803 W/m² 11,8 °C 32,1 °C 9,7 km/h (2 Bft)
08.07.2023 13:02 22,9 °C 32,2 °C 55 % 31 % 1019,0 hPa 0,0 l/m² 8,3 km/h (2 Bft) O-SO 122 ° 2 min 830 W/m² 12,9 °C 32,2 °C 17,7 km/h (3 Bft)
08.07.2023 13:04 22,9 °C 32,2 °C 55 % 28 % 1018,9 hPa 0,0 l/m² 12,2 km/h (2 Bft) SO 134 ° 2 min 935 W/m² 11,3 °C 32,1 °C 19,3 km/h (3 Bft)
08.07.2023 13:06 22,9 °C 32,4 °C 55 % 29 % 1018,9 hPa 0,0 l/m² 5,5 km/h (2 Bft) O-SO 110 ° 2 min 902 W/m² 12,1 °C 32,4 °C 9,7 km/h (2 Bft)
08.07.2023 13:08 22,9 °C 32,6 °C 55 % 27 % 1018,9 hPa 0,0 l/m² 9,9 km/h (2 Bft) SO 134 ° 2 min 925 W/m² 11,1 °C 32,6 °C 12,9 km/h (3 Bft)
08.07.2023 13:10 22,9 °C 32,9 °C 55 % 28 % 1018,9 hPa 0,0 l/m² 6,9 km/h (2 Bft) SO 132 ° 2 min 823 W/m² 11,9 °C 32,9 °C 16,1 km/h (3 Bft)
08.07.2023 13:12 22,9 °C 32,8 °C 55 % 27 % 1018,9 hPa 0,0 l/m² 8,4 km/h (2 Bft) S-SO 167 ° 2 min 891 W/m² 11,3 °C 32,8 °C 14,5 km/h (3 Bft)
08.07.2023 13:14 22,9 °C 33,0 °C 55 % 27 % 1018,9 hPa 0,0 l/m² 7,8 km/h (2 Bft) O-SO 112 ° 2 min 928 W/m² 11,5 °C 33,0 °C 16,1 km/h (3 Bft)
08.07.2023 13:16 22,9 °C 32,9 °C 55 % 27 % 1018,9 hPa 0,0 l/m² 6,5 km/h (2 Bft) O-SO 103 ° 2 min 972 W/m² 11,4 °C 32,9 °C 9,7 km/h (2 Bft)
08.07.2023 13:18 22,9 °C 33,1 °C 55 % 26 % 1018,9 hPa 0,0 l/m² 3,6 km/h (1 Bft) S-SO 162 ° 2 min 981 W/m² 11,0 °C 33,1 °C 8,0 km/h (2 Bft)
08.07.2023 13:20 22,9 °C 32,6 °C 55 % 26 % 1018,9 hPa 0,0 l/m² 0,7 km/h (0 Bft) SW 222 ° 2 min 983 W/m² 10,6 °C 32,6 °C 4,8 km/h (1 Bft)
08.07.2023 13:22 22,9 °C 32,4 °C 55 % 29 % 1018,8 hPa 0,0 l/m² 2,5 km/h (1 Bft) NO 54 ° 2 min 1002 W/m² 12,1 °C 32,4 °C 12,9 km/h (3 Bft)
08.07.2023 13:24 22,9 °C 32,6 °C 55 % 27 % 1018,8 hPa 0,0 l/m² 10,6 km/h (2 Bft) O-SO 105 ° 2 min 993 W/m² 11,1 °C 32,6 °C 20,9 km/h (4 Bft)
08.07.2023 13:26 22,9 °C 32,7 °C 55 % 27 % 1018,8 hPa 0,0 l/m² 7,0 km/h (2 Bft) O-NO 67 ° 2 min 998 W/m² 11,2 °C 32,7 °C 12,9 km/h (3 Bft)
08.07.2023 13:28 22,9 °C 33,1 °C 55 % 29 % 1018,8 hPa 0,0 l/m² 10,9 km/h (2 Bft) O-SO 107 ° 2 min 1005 W/m² 12,6 °C 33,1 °C 19,3 km/h (3 Bft)
08.07.2023 13:30 22,9 °C 33,3 °C 55 % 26 % 1018,8 hPa 0,0 l/m² 17,7 km/h (3 Bft) SO 142 ° 2 min 991 W/m² 11,2 °C 33,3 °C 22,5 km/h (4 Bft)
08.07.2023 13:32 22,9 °C 33,6 °C 55 % 26 % 1018,7 hPa 0,0 l/m² 10,9 km/h (2 Bft) SO 129 ° 2 min 861 W/m² 11,4 °C 33,6 °C 16,1 km/h (3 Bft)
08.07.2023 13:34 22,9 °C 33,7 °C 55 % 25 % 1018,8 hPa 0,0 l/m² 12,7 km/h (3 Bft) S 179 ° 2 min 789 W/m² 10,9 °C 33,7 °C 20,9 km/h (4 Bft)
08.07.2023 13:36 22,9 °C 33,7 °C 55 % 25 % 1018,8 hPa 0,0 l/m² 13,5 km/h (3 Bft) S-SW 196 ° 2 min 863 W/m² 10,9 °C 33,7 °C 20,9 km/h (4 Bft)
08.07.2023 13:38 22,9 °C 33,4 °C 55 % 25 % 1018,8 hPa 0,0 l/m² 10,8 km/h (2 Bft) S 178 ° 2 min 740 W/m² 10,7 °C 33,4 °C 14,5 km/h (3 Bft)
08.07.2023 13:40 22,9 °C 33,3 °C 55 % 25 % 1018,7 hPa 0,0 l/m² 8,0 km/h (2 Bft) S-SO 163 ° 2 min 754 W/m² 10,6 °C 33,3 °C 12,9 km/h (3 Bft)
08.07.2023 13:42 22,9 °C 33,2 °C 55 % 25 % 1018,7 hPa 0,0 l/m² 9,5 km/h (2 Bft) O 100 ° 2 min 737 W/m² 10,5 °C 33,2 °C 16,1 km/h (3 Bft)
08.07.2023 13:44 22,9 °C 32,9 °C 54 % 25 % 1018,8 hPa 0,0 l/m² 14,3 km/h (3 Bft) O-SO 107 ° 2 min 708 W/m² 10,2 °C 32,9 °C 19,3 km/h (3 Bft)
08.07.2023 13:46 22,9 °C 32,8 °C 55 % 25 % 1018,8 hPa 0,0 l/m² 13,4 km/h (3 Bft) O-SO 114 ° 2 min 751 W/m² 10,2 °C 32,8 °C 16,1 km/h (3 Bft)
08.07.2023 13:48 22,9 °C 32,9 °C 55 % 24 % 1018,8 hPa 0,0 l/m² 10,4 km/h (2 Bft) O 88 ° 2 min 926 W/m² 9,6 °C 32,9 °C 16,1 km/h (3 Bft)
08.07.2023 13:50 22,9 °C 33,3 °C 55 % 24 % 1018,7 hPa 0,0 l/m² 9,1 km/h (2 Bft) O-SO 109 ° 2 min 947 W/m² 10,0 °C 33,3 °C 14,5 km/h (3 Bft)
08.07.2023 13:52 22,9 °C 33,2 °C 55 % 25 % 1018,7 hPa 0,0 l/m² 9,5 km/h (2 Bft) SO 142 ° 2 min 933 W/m² 10,5 °C 33,2 °C 19,3 km/h (3 Bft)
08.07.2023 13:54 22,9 °C 33,2 °C 55 % 24 % 1018,8 hPa 0,0 l/m² 13,2 km/h (3 Bft) O-SO 120 ° 2 min 954 W/m² 9,9 °C 33,2 °C 16,1 km/h (3 Bft)
08.07.2023 13:56 22,9 °C 33,6 °C 55 % 24 % 1018,7 hPa 0,0 l/m² 9,5 km/h (2 Bft) O 84 ° 2 min 956 W/m² 10,2 °C 33,6 °C 14,5 km/h (3 Bft)
08.07.2023 13:58 22,9 °C 33,4 °C 54 % 24 % 1018,7 hPa 0,0 l/m² 5,6 km/h (2 Bft) O-SO 105 ° 2 min 969 W/m² 10,0 °C 33,4 °C 11,3 km/h (2 Bft)
08.07.2023 14:00 22,9 °C 33,5 °C 54 % 23 % 1018,8 hPa 0,0 l/m² 7,2 km/h (2 Bft) SO 142 ° 2 min 923 W/m² 9,5 °C 33,5 °C 16,1 km/h (3 Bft)
08.07.2023 14:02 22,9 °C 33,2 °C 54 % 24 % 1018,7 hPa 0,0 l/m² 2,6 km/h (1 Bft) O 99 ° 2 min 851 W/m² 9,9 °C 33,2 °C 4,8 km/h (1 Bft)
08.07.2023 14:04 22,9 °C 33,2 °C 54 % 25 % 1018,8 hPa 0,0 l/m² 2,9 km/h (1 Bft) S-SO 160 ° 2 min 849 W/m² 10,5 °C 33,2 °C 6,4 km/h (2 Bft)
08.07.2023 14:06 22,9 °C 33,4 °C 54 % 24 % 1018,7 hPa 0,0 l/m² 2,3 km/h (1 Bft) O-SO 108 ° 2 min 981 W/m² 10,0 °C 33,4 °C 4,8 km/h (1 Bft)
08.07.2023 14:08 22,9 °C 33,2 °C 54 % 26 % 1018,6 hPa 0,0 l/m² 4,1 km/h (1 Bft) N 360 ° 2 min 969 W/m² 11,1 °C 33,2 °C 8,0 km/h (2 Bft)
08.07.2023 14:10 22,9 °C 32,4 °C 54 % 25 % 1018,7 hPa 0,0 l/m² 5,9 km/h (2 Bft) N-NO 13 ° 2 min 983 W/m² 9,8 °C 32,4 °C 11,3 km/h (2 Bft)
08.07.2023 14:12 22,9 °C 32,3 °C 54 % 27 % 1018,7 hPa 0,0 l/m² 5,1 km/h (1 Bft) O-NO 57 ° 2 min 970 W/m² 10,9 °C 32,3 °C 9,7 km/h (2 Bft)
08.07.2023 14:14 22,9 °C 32,4 °C 54 % 25 % 1018,7 hPa 0,0 l/m² 3,8 km/h (1 Bft) NO 34 ° 2 min 990 W/m² 9,8 °C 32,4 °C 6,4 km/h (2 Bft)
08.07.2023 14:16 22,9 °C 32,1 °C 54 % 26 % 1018,6 hPa 0,0 l/m² 1,3 km/h (1 Bft) NO 34 ° 2 min 612 W/m² 10,2 °C 32,1 °C 4,8 km/h (1 Bft)
08.07.2023 14:18 22,9 °C 32,1 °C 54 % 26 % 1018,7 hPa 0,0 l/m² 3,1 km/h (1 Bft) N-NO 14 ° 2 min 415 W/m² 10,2 °C 32,1 °C 8,0 km/h (2 Bft)
08.07.2023 14:20 23,0 °C 32,1 °C 54 % 28 % 1018,6 hPa 0,0 l/m² 5,0 km/h (1 Bft) N-NO 14 ° 2 min 591 W/m² 11,3 °C 32,1 °C 12,9 km/h (3 Bft)
08.07.2023 14:22 22,9 °C 32,2 °C 54 % 26 % 1018,6 hPa 0,0 l/m² 3,6 km/h (1 Bft) NO 47 ° 2 min 888 W/m² 10,2 °C 32,2 °C 8,0 km/h (2 Bft)
08.07.2023 14:24 23,0 °C 32,3 °C 54 % 26 % 1018,7 hPa 0,0 l/m² 6,8 km/h (2 Bft) N 355 ° 2 min 816 W/m² 10,3 °C 32,3 °C 14,5 km/h (3 Bft)
08.07.2023 14:26 22,9 °C 32,1 °C 54 % 27 % 1018,6 hPa 0,0 l/m² 9,2 km/h (2 Bft) NW 326 ° 2 min 851 W/m² 10,7 °C 32,0 °C 14,5 km/h (3 Bft)
08.07.2023 14:28 22,9 °C 32,1 °C 54 % 29 % 1018,6 hPa 0,0 l/m² 6,4 km/h (2 Bft) N 9 ° 2 min 891 W/m² 11,8 °C 32,1 °C 11,3 km/h (2 Bft)
08.07.2023 14:30 23,0 °C 32,9 °C 54 % 26 % 1018,5 hPa 0,0 l/m² 7,8 km/h (2 Bft) SO 131 ° 2 min 933 W/m² 10,8 °C 32,9 °C 17,7 km/h (3 Bft)
08.07.2023 14:32 22,9 °C 33,4 °C 54 % 25 % 1018,6 hPa 0,0 l/m² 8,8 km/h (2 Bft) S 174 ° 2 min 916 W/m² 10,7 °C 33,4 °C 12,9 km/h (3 Bft)
08.07.2023 14:34 23,0 °C 33,4 °C 54 % 25 % 1018,5 hPa 0,0 l/m² 5,0 km/h (1 Bft) O 90 ° 2 min 888 W/m² 10,7 °C 33,4 °C 9,7 km/h (2 Bft)
08.07.2023 14:36 23,0 °C 33,9 °C 54 % 26 % 1018,5 hPa 0,0 l/m² 7,4 km/h (2 Bft) O-NO 76 ° 2 min 891 W/m² 11,7 °C 33,9 °C 16,1 km/h (3 Bft)
08.07.2023 14:38 23,0 °C 33,9 °C 54 % 24 % 1018,5 hPa 0,0 l/m² 7,8 km/h (2 Bft) O 84 ° 2 min 900 W/m² 10,5 °C 33,9 °C 12,9 km/h (3 Bft)
08.07.2023 14:40 23,0 °C 33,7 °C 54 % 25 % 1018,5 hPa 0,0 l/m² 8,1 km/h (2 Bft) O 80 ° 2 min 900 W/m² 10,9 °C 33,7 °C 12,9 km/h (3 Bft)
08.07.2023 14:42 23,0 °C 33,6 °C 54 % 25 % 1018,5 hPa 0,0 l/m² 5,1 km/h (1 Bft) N-NO 13 ° 2 min 904 W/m² 10,8 °C 33,6 °C 9,7 km/h (2 Bft)
08.07.2023 14:44 23,0 °C 33,4 °C 54 % 27 % 1018,5 hPa 0,0 l/m² 6,7 km/h (2 Bft) O 84 ° 2 min 898 W/m² 11,8 °C 33,4 °C 12,9 km/h (3 Bft)
08.07.2023 14:46 23,0 °C 33,7 °C 54 % 25 % 1018,4 hPa 0,0 l/m² 9,6 km/h (2 Bft) O 79 ° 2 min 888 W/m² 10,9 °C 33,7 °C 16,1 km/h (3 Bft)
08.07.2023 14:48 23,0 °C 33,6 °C 54 % 24 % 1018,4 hPa 0,0 l/m² 5,3 km/h (1 Bft) SO 138 ° 2 min 891 W/m² 10,2 °C 33,6 °C 11,3 km/h (2 Bft)
08.07.2023 14:50 23,0 °C 33,7 °C 54 % 25 % 1018,5 hPa 0,0 l/m² 5,1 km/h (1 Bft) O 98 ° 2 min 886 W/m² 10,9 °C 33,7 °C 9,7 km/h (2 Bft)
08.07.2023 14:52 23,0 °C 33,1 °C 54 % 26 % 1018,4 hPa 0,0 l/m² 1,2 km/h (1 Bft) W-SW 254 ° 2 min 877 W/m² 11,0 °C 33,1 °C 4,8 km/h (1 Bft)
08.07.2023 14:54 23,0 °C 33,0 °C 54 % 28 % 1018,4 hPa 0,0 l/m² 1,1 km/h (1 Bft) W-NW 300 ° 2 min 865 W/m² 12,0 °C 33,0 °C 4,8 km/h (1 Bft)
08.07.2023 14:56 23,0 °C 33,1 °C 54 % 28 % 1018,3 hPa 0,0 l/m² 3,9 km/h (1 Bft) S-SW 192 ° 2 min 863 W/m² 12,1 °C 33,1 °C 11,3 km/h (2 Bft)
08.07.2023 14:58 23,0 °C 33,0 °C 54 % 25 % 1018,4 hPa 0,0 l/m² 2,2 km/h (1 Bft) S-SW 205 ° 2 min 856 W/m² 10,3 °C 33,0 °C 6,4 km/h (2 Bft)
08.07.2023 15:00 23,0 °C 32,9 °C 54 % 25 % 1018,3 hPa 0,0 l/m² 4,4 km/h (1 Bft) SW 220 ° 2 min 854 W/m² 10,2 °C 32,9 °C 9,7 km/h (2 Bft)
08.07.2023 15:02 23,0 °C 32,9 °C 54 % 26 % 1018,4 hPa 0,0 l/m² 0,1 km/h (0 Bft) SW 232 ° 2 min 863 W/m² 10,8 °C 32,9 °C 1,6 km/h (1 Bft)
08.07.2023 15:04 23,0 °C 32,6 °C 54 % 29 % 1018,4 hPa 0,0 l/m² 1,8 km/h (1 Bft) N 355 ° 2 min 854 W/m² 12,2 °C 32,6 °C 3,2 km/h (1 Bft)
08.07.2023 15:06 23,0 °C 32,8 °C 54 % 26 % 1018,4 hPa 0,0 l/m² 8,6 km/h (2 Bft) O-NO 75 ° 2 min 844 W/m² 10,7 °C 32,8 °C 16,1 km/h (3 Bft)
08.07.2023 15:08 23,0 °C 33,4 °C 54 % 26 % 1018,3 hPa 0,0 l/m² 10,9 km/h (2 Bft) O 79 ° 2 min 837 W/m² 11,2 °C 33,4 °C 17,7 km/h (3 Bft)
08.07.2023 15:10 23,0 °C 33,7 °C 54 % 24 % 1018,4 hPa 0,0 l/m² 10,6 km/h (2 Bft) O 84 ° 2 min 853 W/m² 10,3 °C 33,7 °C 19,3 km/h (3 Bft)
08.07.2023 15:12 23,0 °C 33,7 °C 54 % 25 % 1018,3 hPa 0,0 l/m² 6,2 km/h (2 Bft) NO 55 ° 2 min 844 W/m² 10,9 °C 33,7 °C 14,5 km/h (3 Bft)
08.07.2023 15:14 23,0 °C 33,5 °C 54 % 26 % 1018,3 hPa 0,0 l/m² 9,7 km/h (2 Bft) N 360 ° 2 min 847 W/m² 11,3 °C 33,5 °C 16,1 km/h (3 Bft)
08.07.2023 15:16 23,0 °C 33,1 °C 54 % 26 % 1018,2 hPa 0,0 l/m² 6,0 km/h (2 Bft) NO 36 ° 2 min 838 W/m² 11,0 °C 33,1 °C 12,9 km/h (3 Bft)
08.07.2023 15:18 23,0 °C 33,3 °C 54 % 27 % 1018,3 hPa 0,0 l/m² 5,4 km/h (2 Bft) NO 42 ° 2 min 810 W/m² 11,7 °C 33,3 °C 9,7 km/h (2 Bft)
08.07.2023 15:20 23,1 °C 33,3 °C 54 % 26 % 1018,3 hPa 0,0 l/m² 3,7 km/h (1 Bft) NO 37 ° 2 min 817 W/m² 11,2 °C 33,3 °C 8,0 km/h (2 Bft)
08.07.2023 15:22 23,0 °C 33,3 °C 54 % 25 % 1018,3 hPa 0,0 l/m² 9,4 km/h (2 Bft) O-NO 62 ° 2 min 816 W/m² 10,6 °C 33,3 °C 14,5 km/h (3 Bft)
08.07.2023 15:24 23,1 °C 33,5 °C 54 % 25 % 1018,2 hPa 0,0 l/m² 6,0 km/h (2 Bft) O 101 ° 2 min 816 W/m² 10,7 °C 33,5 °C 11,3 km/h (2 Bft)
08.07.2023 15:26 23,1 °C 33,6 °C 54 % 26 % 1018,3 hPa 0,0 l/m² 2,1 km/h (1 Bft) O-SO 116 ° 2 min 807 W/m² 11,4 °C 33,6 °C 4,8 km/h (1 Bft)
08.07.2023 15:28 23,0 °C 33,4 °C 54 % 25 % 1018,2 hPa 0,0 l/m² 1,4 km/h (1 Bft) S-SO 164 ° 2 min 802 W/m² 10,7 °C 33,4 °C 6,4 km/h (2 Bft)
08.07.2023 15:30 23,1 °C 33,5 °C 54 % 26 % 1018,2 hPa 0,0 l/m² 2,2 km/h (1 Bft) SO 134 ° 2 min 796 W/m² 11,3 °C 33,5 °C 8,0 km/h (2 Bft)
08.07.2023 15:32 23,0 °C 33,4 °C 54 % 25 % 1018,2 hPa 0,0 l/m² 2,0 km/h (1 Bft) SO 124 ° 2 min 796 W/m² 10,7 °C 33,4 °C 4,8 km/h (1 Bft)
08.07.2023 15:34 23,0 °C 33,5 °C 54 % 24 % 1018,2 hPa 0,0 l/m² 8,6 km/h (2 Bft) NO 56 ° 2 min 795 W/m² 10,1 °C 33,5 °C 16,1 km/h (3 Bft)
08.07.2023 15:36 23,1 °C 33,5 °C 54 % 26 % 1018,3 hPa 0,0 l/m² 3,9 km/h (1 Bft) N-NO 30 ° 2 min 788 W/m² 11,3 °C 33,5 °C 9,7 km/h (2 Bft)
08.07.2023 15:38 23,1 °C 33,2 °C 54 % 26 % 1018,3 hPa 0,0 l/m² 0,6 km/h (0 Bft) NO 36 ° 2 min 788 W/m² 11,1 °C 33,2 °C 6,4 km/h (2 Bft)
08.07.2023 15:40 23,1 °C 32,5 °C 54 % 26 % 1018,3 hPa 0,0 l/m² 0,1 km/h (0 Bft) S-SO 153 ° 2 min 786 W/m² 10,5 °C 32,5 °C 3,2 km/h (1 Bft)
08.07.2023 15:42 23,1 °C 33,0 °C 54 % 25 % 1018,2 hPa 0,0 l/m² 5,5 km/h (2 Bft) S 177 ° 2 min 788 W/m² 10,3 °C 33,0 °C 9,7 km/h (2 Bft)
08.07.2023 15:44 23,1 °C 33,4 °C 54 % 25 % 1018,2 hPa 0,0 l/m² 8,5 km/h (2 Bft) S 187 ° 2 min 782 W/m² 10,7 °C 33,4 °C 12,9 km/h (3 Bft)
08.07.2023 15:46 23,1 °C 33,7 °C 54 % 24 % 1018,1 hPa 0,0 l/m² 9,2 km/h (2 Bft) S-SW 198 ° 2 min 770 W/m² 10,3 °C 33,7 °C 12,9 km/h (3 Bft)
08.07.2023 15:47 23,1 °C 33,5 °C 54 % 24 % 1018,1 hPa 0,0 l/m² 2,8 km/h (1 Bft) S-SW 195 ° 1 min 766 W/m² 10,1 °C 33,5 °C 4,8 km/h (1 Bft)
08.07.2023 15:49 23,1 °C 33,2 °C 54 % 24 % 1018,1 hPa 0,0 l/m² 3,8 km/h (1 Bft) S 175 ° 2 min 765 W/m² 9,9 °C 33,2 °C 6,4 km/h (2 Bft)
08.07.2023 15:51 23,1 °C 33,2 °C 54 % 25 % 1018,0 hPa 0,0 l/m² 3,3 km/h (1 Bft) O-SO 117 ° 2 min 761 W/m² 10,5 °C 33,2 °C 8,0 km/h (2 Bft)
08.07.2023 15:53 23,1 °C 33,4 °C 54 % 26 % 1018,1 hPa 0,0 l/m² 4,5 km/h (1 Bft) O 98 ° 2 min 756 W/m² 11,2 °C 33,4 °C 8,0 km/h (2 Bft)
08.07.2023 15:55 23,1 °C 33,3 °C 54 % 25 % 1018,2 hPa 0,0 l/m² 2,1 km/h (1 Bft) S-SO 167 ° 2 min 754 W/m² 10,6 °C 33,3 °C 6,4 km/h (2 Bft)
08.07.2023 15:57 23,1 °C 33,3 °C 54 % 25 % 1018,1 hPa 0,0 l/m² 1,9 km/h (1 Bft) S 178 ° 2 min 745 W/m² 10,6 °C 33,3 °C 8,0 km/h (2 Bft)
08.07.2023 15:59 23,1 °C 33,3 °C 54 % 25 % 1018,1 hPa 0,0 l/m² 1,0 km/h (0 Bft) O-NO 74 ° 2 min 738 W/m² 10,6 °C 33,3 °C 4,8 km/h (1 Bft)
08.07.2023 16:01 23,1 °C 33,4 °C 54 % 25 % 1018,0 hPa 0,0 l/m² 1,1 km/h (1 Bft) SO 142 ° 2 min 735 W/m² 10,7 °C 33,4 °C 6,4 km/h (2 Bft)
08.07.2023 16:03 23,1 °C 33,5 °C 54 % 24 % 1018,0 hPa 0,0 l/m² 4,7 km/h (1 Bft) S-SO 162 ° 2 min 733 W/m² 10,1 °C 33,5 °C 11,3 km/h (2 Bft)
08.07.2023 16:05 23,1 °C 33,6 °C 54 % 25 % 1018,0 hPa 0,0 l/m² 4,2 km/h (1 Bft) S-SW 211 ° 2 min 728 W/m² 10,8 °C 33,6 °C 11,3 km/h (2 Bft)
08.07.2023 16:07 23,1 °C 33,7 °C 54 % 25 % 1018,0 hPa 0,0 l/m² 8,1 km/h (2 Bft) S 180 ° 2 min 722 W/m² 10,9 °C 33,7 °C 11,3 km/h (2 Bft)
08.07.2023 16:09 23,1 °C 33,6 °C 54 % 26 % 1018,1 hPa 0,0 l/m² 2,8 km/h (1 Bft) SO 138 ° 2 min 719 W/m² 11,4 °C 33,6 °C 6,4 km/h (2 Bft)
08.07.2023 16:11 23,1 °C 33,8 °C 54 % 25 % 1018,1 hPa 0,0 l/m² 1,0 km/h (0 Bft) S-SO 153 ° 2 min 708 W/m² 11,0 °C 33,8 °C 4,8 km/h (1 Bft)
08.07.2023 16:13 23,1 °C 33,8 °C 55 % 25 % 1018,1 hPa 0,0 l/m² 5,7 km/h (2 Bft) O 87 ° 2 min 705 W/m² 11,0 °C 33,8 °C 11,3 km/h (2 Bft)
08.07.2023 16:15 23,1 °C 33,8 °C 54 % 25 % 1018,1 hPa 0,0 l/m² 4,9 km/h (1 Bft) SO 142 ° 2 min 707 W/m² 11,0 °C 33,8 °C 11,3 km/h (2 Bft)
08.07.2023 16:17 23,1 °C 33,4 °C 55 % 25 % 1018,1 hPa 0,0 l/m² 3,5 km/h (1 Bft) O-NO 74 ° 2 min 703 W/m² 10,7 °C 33,4 °C 9,7 km/h (2 Bft)
08.07.2023 16:19 23,1 °C 33,4 °C 54 % 25 % 1018,0 hPa 0,0 l/m² 8,4 km/h (2 Bft) SO 132 ° 2 min 694 W/m² 10,7 °C 33,4 °C 12,9 km/h (3 Bft)
08.07.2023 16:21 23,1 °C 33,5 °C 54 % 26 % 1018,0 hPa 0,0 l/m² 10,1 km/h (2 Bft) S-SO 149 ° 2 min 691 W/m² 11,3 °C 33,5 °C 16,1 km/h (3 Bft)
08.07.2023 16:23 23,1 °C 33,7 °C 55 % 25 % 1017,9 hPa 0,0 l/m² 8,8 km/h (2 Bft) S 178 ° 2 min 687 W/m² 10,9 °C 33,7 °C 12,9 km/h (3 Bft)
08.07.2023 16:25 23,1 °C 33,7 °C 54 % 25 % 1018,0 hPa 0,0 l/m² 5,7 km/h (2 Bft) S-SO 156 ° 2 min 687 W/m² 10,9 °C 33,7 °C 9,7 km/h (2 Bft)
08.07.2023 16:27 23,1 °C 33,7 °C 54 % 26 % 1018,0 hPa 0,0 l/m² 7,2 km/h (2 Bft) O-SO 109 ° 2 min 684 W/m² 11,5 °C 33,7 °C 11,3 km/h (2 Bft)
08.07.2023 16:29 23,1 °C 33,6 °C 55 % 25 % 1017,9 hPa 0,0 l/m² 3,6 km/h (1 Bft) O 96 ° 2 min 679 W/m² 10,8 °C 33,6 °C 9,7 km/h (2 Bft)
08.07.2023 16:31 23,1 °C 33,6 °C 55 % 26 % 1018,0 hPa 0,0 l/m² 6,3 km/h (2 Bft) O-SO 120 ° 2 min 691 W/m² 11,4 °C 33,6 °C 11,3 km/h (2 Bft)
08.07.2023 16:33 23,1 °C 33,5 °C 54 % 25 % 1018,1 hPa 0,0 l/m² 5,0 km/h (1 Bft) O-SO 107 ° 2 min 668 W/m² 10,7 °C 33,5 °C 8,0 km/h (2 Bft)
08.07.2023 16:35 23,2 °C 33,3 °C 54 % 25 % 1018,0 hPa 0,0 l/m² 4,8 km/h (1 Bft) SO 140 ° 2 min 640 W/m² 10,6 °C 33,3 °C 9,7 km/h (2 Bft)
08.07.2023 16:37 23,1 °C 33,0 °C 54 % 25 % 1018,0 hPa 0,0 l/m² 4,3 km/h (1 Bft) S-SW 192 ° 2 min 640 W/m² 10,3 °C 33,0 °C 8,0 km/h (2 Bft)
08.07.2023 16:39 23,1 °C 32,6 °C 55 % 27 % 1018,0 hPa 0,0 l/m² 2,1 km/h (1 Bft) W-SW 245 ° 2 min 654 W/m² 11,1 °C 32,6 °C 6,4 km/h (2 Bft)
08.07.2023 16:41 23,1 °C 32,8 °C 55 % 26 % 1018,0 hPa 0,0 l/m² 3,8 km/h (1 Bft) SW 214 ° 2 min 650 W/m² 10,7 °C 32,8 °C 8,0 km/h (2 Bft)
08.07.2023 16:43 23,1 °C 33,2 °C 54 % 25 % 1018,0 hPa 0,0 l/m² 1,6 km/h (1 Bft) O-NO 71 ° 2 min 645 W/m² 10,5 °C 33,2 °C 4,8 km/h (1 Bft)
08.07.2023 16:45 23,1 °C 33,3 °C 55 % 26 % 1018,1 hPa 0,0 l/m² 4,3 km/h (1 Bft) O-NO 62 ° 2 min 645 W/m² 11,2 °C 33,3 °C 11,3 km/h (2 Bft)
08.07.2023 16:47 23,1 °C 33,5 °C 55 % 26 % 1018,0 hPa 0,0 l/m² 9,0 km/h (2 Bft) O 80 ° 2 min 647 W/m² 11,3 °C 33,5 °C 14,5 km/h (3 Bft)
08.07.2023 16:49 23,1 °C 33,4 °C 55 % 27 % 1018,0 hPa 0,0 l/m² 2,3 km/h (1 Bft) N-NO 19 ° 2 min 636 W/m² 11,8 °C 33,4 °C 6,4 km/h (2 Bft)
08.07.2023 16:51 23,1 °C 33,6 °C 55 % 26 % 1018,0 hPa 0,0 l/m² 3,3 km/h (1 Bft) SO 142 ° 2 min 626 W/m² 11,4 °C 33,6 °C 8,0 km/h (2 Bft)
08.07.2023 16:53 23,1 °C 33,8 °C 55 % 26 % 1018,0 hPa 0,0 l/m² 8,2 km/h (2 Bft) SO 136 ° 2 min 617 W/m² 11,6 °C 33,8 °C 14,5 km/h (3 Bft)
08.07.2023 16:55 23,1 °C 33,6 °C 55 % 25 % 1017,9 hPa 0,0 l/m² 13,6 km/h (3 Bft) SO 142 ° 2 min 619 W/m² 10,8 °C 33,6 °C 19,3 km/h (3 Bft)
08.07.2023 16:57 23,2 °C 33,3 °C 55 % 25 % 1018,0 hPa 0,0 l/m² 13,2 km/h (3 Bft) O-SO 110 ° 2 min 608 W/m² 10,6 °C 33,3 °C 17,7 km/h (3 Bft)
08.07.2023 16:59 23,2 °C 33,2 °C 55 % 25 % 1018,0 hPa 0,0 l/m² 12,3 km/h (2 Bft) O 101 ° 2 min 610 W/m² 10,5 °C 33,2 °C 16,1 km/h (3 Bft)
08.07.2023 17:01 23,2 °C 33,1 °C 55 % 25 % 1018,0 hPa 0,0 l/m² 5,6 km/h (2 Bft) SO 138 ° 2 min 606 W/m² 10,4 °C 33,1 °C 9,7 km/h (2 Bft)
08.07.2023 17:03 23,1 °C 32,9 °C 55 % 25 % 1018,0 hPa 0,0 l/m² 2,3 km/h (1 Bft) O 90 ° 2 min 596 W/m² 10,2 °C 32,9 °C 6,4 km/h (2 Bft)
08.07.2023 17:05 23,1 °C 33,3 °C 55 % 25 % 1018,1 hPa 0,0 l/m² 5,2 km/h (1 Bft) O-NO 78 ° 2 min 594 W/m² 10,6 °C 33,3 °C 9,7 km/h (2 Bft)
08.07.2023 17:07 23,2 °C 33,2 °C 55 % 24 % 1018,0 hPa 0,0 l/m² 0,4 km/h (0 Bft) O 87 ° 2 min 589 W/m² 9,9 °C 33,2 °C 4,8 km/h (1 Bft)
08.07.2023 17:09 23,2 °C 32,9 °C 55 % 24 % 1018,1 hPa 0,0 l/m² 1,5 km/h (1 Bft) O 94 ° 2 min 580 W/m² 9,6 °C 32,9 °C 6,4 km/h (2 Bft)
08.07.2023 17:11 23,2 °C 33,0 °C 55 % 26 % 1018,0 hPa 0,0 l/m² 2,4 km/h (1 Bft) O 98 ° 2 min 577 W/m² 10,9 °C 33,0 °C 6,4 km/h (2 Bft)
08.07.2023 17:13 23,2 °C 32,8 °C 55 % 25 % 1018,0 hPa 0,0 l/m² 2,0 km/h (1 Bft) O 95 ° 2 min 571 W/m² 10,2 °C 32,8 °C 6,4 km/h (2 Bft)
08.07.2023 17:15 23,2 °C 33,1 °C 55 % 25 % 1018,0 hPa 0,0 l/m² 0,0 km/h (0 Bft) O-NO 67 ° 2 min 563 W/m² 10,4 °C 33,1 °C 0,0 km/h (0 Bft)
08.07.2023 17:17 23,2 °C 32,9 °C 55 % 25 % 1018,0 hPa 0,0 l/m² 0,0 km/h (0 Bft) NO 55 ° 2 min 557 W/m² 10,2 °C 32,9 °C 1,6 km/h (1 Bft)
08.07.2023 17:19 23,2 °C 33,0 °C 55 % 27 % 1018,0 hPa 0,0 l/m² 0,0 km/h (0 Bft) O 90 ° 2 min 548 W/m² 11,5 °C 33,0 °C 0,0 km/h (0 Bft)
08.07.2023 17:21 23,2 °C 32,9 °C 55 % 25 % 1017,9 hPa 0,0 l/m² 0,7 km/h (0 Bft) O-NO 65 ° 2 min 543 W/m² 10,2 °C 32,9 °C 4,8 km/h (1 Bft)
08.07.2023 17:23 23,1 °C 32,7 °C 55 % 25 % 1018,0 hPa 0,0 l/m² 1,6 km/h (1 Bft) O 80 ° 2 min 536 W/m² 10,1 °C 32,7 °C 4,8 km/h (1 Bft)
08.07.2023 17:25 23,2 °C 32,8 °C 55 % 26 % 1018,0 hPa 0,0 l/m² 0,2 km/h (0 Bft) O 82 ° 2 min 531 W/m² 10,7 °C 32,8 °C 1,6 km/h (1 Bft)
08.07.2023 17:27 23,2 °C 33,2 °C 55 % 26 % 1017,9 hPa 0,0 l/m² 0,8 km/h (0 Bft) W-NW 301 ° 2 min 524 W/m² 11,1 °C 33,2 °C 8,0 km/h (2 Bft)
08.07.2023 17:29 23,2 °C 32,9 °C 55 % 27 % 1018,0 hPa 0,0 l/m² 1,4 km/h (1 Bft) W-NW 283 ° 2 min 520 W/m² 11,4 °C 32,9 °C 6,4 km/h (2 Bft)
08.07.2023 17:31 23,2 °C 32,7 °C 55 % 26 % 1018,0 hPa 0,0 l/m² 0,5 km/h (0 Bft) W 279 ° 2 min 517 W/m² 10,7 °C 32,7 °C 4,8 km/h (1 Bft)
08.07.2023 17:33 23,2 °C 32,3 °C 55 % 26 % 1017,9 hPa 0,0 l/m² 0,0 km/h (0 Bft) W 264 ° 2 min 512 W/m² 10,3 °C 32,3 °C 0,0 km/h (0 Bft)
08.07.2023 17:35 23,2 °C 32,3 °C 55 % 27 % 1018,0 hPa 0,0 l/m² 0,0 km/h (0 Bft) NW 307 ° 2 min 508 W/m² 10,9 °C 32,3 °C 0,0 km/h (0 Bft)
08.07.2023 17:37 23,2 °C 32,2 °C 55 % 27 % 1017,9 hPa 0,0 l/m² 0,0 km/h (0 Bft) W-NW 292 ° 2 min 504 W/m² 10,8 °C 32,2 °C 0,0 km/h (0 Bft)
08.07.2023 17:39 23,1 °C 32,2 °C 55 % 27 % 1017,9 hPa 0,0 l/m² 0,0 km/h (0 Bft) W-NW 292 ° 2 min 499 W/m² 10,8 °C 32,2 °C 0,0 km/h (0 Bft)
08.07.2023 17:41 23,2 °C 32,3 °C 55 % 27 % 1017,9 hPa 0,0 l/m² 0,0 km/h (0 Bft) NW 304 ° 2 min 494 W/m² 10,9 °C 32,3 °C 0,0 km/h (0 Bft)
08.07.2023 17:43 23,2 °C 32,3 °C 55 % 26 % 1017,9 hPa 0,0 l/m² 0,0 km/h (0 Bft) NW 304 ° 2 min 487 W/m² 10,3 °C 32,3 °C 0,0 km/h (0 Bft)
08.07.2023 17:45 23,2 °C 32,3 °C 55 % 26 % 1017,9 hPa 0,0 l/m² 0,0 km/h (0 Bft) W-NW 295 ° 2 min 478 W/m² 10,3 °C 32,3 °C 0,0 km/h (0 Bft)
08.07.2023 17:47 23,2 °C 32,3 °C 55 % 26 % 1017,9 hPa 0,0 l/m² 0,0 km/h (0 Bft) W-NW 295 ° 2 min 471 W/m² 10,3 °C 32,3 °C 0,0 km/h (0 Bft)
08.07.2023 17:49 23,2 °C 32,2 °C 55 % 27 % 1017,9 hPa 0,0 l/m² 0,0 km/h (0 Bft) W-NW 295 ° 2 min 466 W/m² 10,8 °C 32,2 °C 0,0 km/h (0 Bft)
08.07.2023 17:51 23,2 °C 32,1 °C 55 % 27 % 1017,8 hPa 0,0 l/m² 0,0 km/h (0 Bft) W-NW 295 ° 2 min 459 W/m² 10,7 °C 32,1 °C 0,0 km/h (0 Bft)
08.07.2023 17:53 23,2 °C 32,1 °C 55 % 26 % 1017,8 hPa 0,0 l/m² 0,0 km/h (0 Bft) N-NW 346 ° 2 min 455 W/m² 10,2 °C 32,1 °C 0,0 km/h (0 Bft)
08.07.2023 17:55 23,2 °C 32,1 °C 55 % 26 % 1017,8 hPa 0,0 l/m² 0,0 km/h (0 Bft) N-NW 339 ° 2 min 452 W/m² 10,2 °C 32,1 °C 0,0 km/h (0 Bft)
08.07.2023 17:57 23,2 °C 32,1 °C 55 % 27 % 1017,8 hPa 0,0 l/m² 0,0 km/h (0 Bft) N-NW 348 ° 2 min 443 W/m² 10,7 °C 32,1 °C 0,0 km/h (0 Bft)
08.07.2023 17:59 23,2 °C 32,1 °C 55 % 26 % 1017,7 hPa 0,0 l/m² 0,0 km/h (0 Bft) N 11 ° 2 min 439 W/m² 10,2 °C 32,1 °C 0,0 km/h (0 Bft)
08.07.2023 18:01 23,2 °C 32,2 °C 55 % 26 % 1017,8 hPa 0,0 l/m² 0,7 km/h (0 Bft) NW 317 ° 2 min 434 W/m² 10,2 °C 32,2 °C 4,8 km/h (1 Bft)
08.07.2023 18:03 23,2 °C 32,2 °C 55 % 26 % 1017,8 hPa 0,0 l/m² 0,0 km/h (0 Bft) NW 317 ° 2 min 420 W/m² 10,2 °C 32,2 °C 0,0 km/h (0 Bft)
08.07.2023 18:05 23,2 °C 32,4 °C 55 % 26 % 1017,8 hPa 0,0 l/m² 0,0 km/h (0 Bft) NO 40 ° 2 min 415 W/m² 10,4 °C 32,4 °C 0,0 km/h (0 Bft)
08.07.2023 18:07 23,2 °C 32,6 °C 55 % 27 % 1017,8 hPa 0,0 l/m² 0,0 km/h (0 Bft) NO 49 ° 2 min 408 W/m² 11,1 °C 32,6 °C 0,0 km/h (0 Bft)
08.07.2023 18:09 23,2 °C 32,8 °C 55 % 26 % 1017,8 hPa 0,0 l/m² 2,2 km/h (1 Bft) O-SO 122 ° 2 min 404 W/m² 10,7 °C 32,8 °C 6,4 km/h (2 Bft)
08.07.2023 18:11 23,2 °C 32,7 °C 55 % 27 % 1017,7 hPa 0,0 l/m² 3,1 km/h (1 Bft) O-SO 121 ° 2 min 401 W/m² 11,2 °C 32,7 °C 4,8 km/h (1 Bft)
08.07.2023 18:13 23,2 °C 32,8 °C 55 % 25 % 1017,7 hPa 0,0 l/m² 2,1 km/h (1 Bft) O-SO 117 ° 2 min 394 W/m² 10,2 °C 32,8 °C 6,4 km/h (2 Bft)
08.07.2023 18:15 23,2 °C 32,7 °C 55 % 26 % 1017,8 hPa 0,0 l/m² 4,4 km/h (1 Bft) O-SO 103 ° 2 min 387 W/m² 10,7 °C 32,7 °C 9,7 km/h (2 Bft)
08.07.2023 18:17 23,2 °C 32,8 °C 55 % 26 % 1017,8 hPa 0,0 l/m² 4,6 km/h (1 Bft) O-SO 119 ° 2 min 383 W/m² 10,7 °C 32,8 °C 6,4 km/h (2 Bft)
08.07.2023 18:19 23,2 °C 32,8 °C 55 % 26 % 1017,8 hPa 0,0 l/m² 5,2 km/h (1 Bft) O 94 ° 2 min 373 W/m² 10,7 °C 32,8 °C 9,7 km/h (2 Bft)
08.07.2023 18:21 23,2 °C 32,9 °C 55 % 26 % 1017,8 hPa 0,0 l/m² 6,5 km/h (2 Bft) O-SO 103 ° 2 min 369 W/m² 10,8 °C 32,9 °C 12,9 km/h (3 Bft)
08.07.2023 18:23 23,2 °C 32,8 °C 55 % 26 % 1017,8 hPa 0,0 l/m² 8,2 km/h (2 Bft) NO 52 ° 2 min 364 W/m² 10,7 °C 32,8 °C 12,9 km/h (3 Bft)
08.07.2023 18:25 23,2 °C 32,5 °C 55 % 26 % 1017,7 hPa 0,0 l/m² 7,8 km/h (2 Bft) O 86 ° 2 min 357 W/m² 10,5 °C 32,5 °C 14,5 km/h (3 Bft)
08.07.2023 18:27 23,2 °C 32,4 °C 55 % 26 % 1017,8 hPa 0,0 l/m² 5,4 km/h (2 Bft) O-NO 69 ° 2 min 353 W/m² 10,4 °C 32,4 °C 8,0 km/h (2 Bft)
08.07.2023 18:29 23,2 °C 32,2 °C 55 % 26 % 1017,7 hPa 0,0 l/m² 6,3 km/h (2 Bft) NO 53 ° 2 min 350 W/m² 10,2 °C 32,2 °C 11,3 km/h (2 Bft)
08.07.2023 18:31 23,2 °C 32,1 °C 55 % 27 % 1017,8 hPa 0,0 l/m² 6,8 km/h (2 Bft) NO 36 ° 2 min 345 W/m² 10,7 °C 32,1 °C 11,3 km/h (2 Bft)
08.07.2023 18:33 23,2 °C 31,9 °C 55 % 26 % 1017,7 hPa 0,0 l/m² 2,0 km/h (1 Bft) N-NO 28 ° 2 min 322 W/m² 10,0 °C 31,9 °C 6,4 km/h (2 Bft)
08.07.2023 18:35 23,2 °C 31,8 °C 55 % 27 % 1017,7 hPa 0,0 l/m² 0,0 km/h (0 Bft) NO 39 ° 2 min 227 W/m² 10,5 °C 31,8 °C 0,0 km/h (0 Bft)
08.07.2023 18:37 23,2 °C 31,8 °C 55 % 29 % 1017,7 hPa 0,0 l/m² 3,6 km/h (1 Bft) NO 34 ° 2 min 323 W/m² 11,5 °C 31,8 °C 8,0 km/h (2 Bft)
08.07.2023 18:39 23,2 °C 31,9 °C 55 % 28 % 1017,7 hPa 0,0 l/m² 1,1 km/h (1 Bft) N 11 ° 2 min 315 W/m² 11,1 °C 31,9 °C 4,8 km/h (1 Bft)
08.07.2023 18:41 23,2 °C 31,8 °C 55 % 28 % 1017,7 hPa 0,0 l/m² 2,5 km/h (1 Bft) NO 48 ° 2 min 274 W/m² 11,0 °C 31,8 °C 9,7 km/h (2 Bft)
08.07.2023 18:43 23,2 °C 31,9 °C 55 % 28 % 1017,7 hPa 0,0 l/m² 6,5 km/h (2 Bft) O-NO 78 ° 2 min 304 W/m² 11,1 °C 31,9 °C 11,3 km/h (2 Bft)
08.07.2023 18:45 23,2 °C 31,9 °C 55 % 28 % 1017,6 hPa 0,0 l/m² 5,9 km/h (2 Bft) O 84 ° 2 min 274 W/m² 11,1 °C 31,9 °C 12,9 km/h (3 Bft)
08.07.2023 18:46 23,2 °C 31,9 °C 55 % 27 % 1017,6 hPa 0,0 l/m² 6,6 km/h (2 Bft) O-NO 71 ° 1 min 299 W/m² 10,5 °C 31,9 °C 11,3 km/h (2 Bft)
08.07.2023 18:48 23,2 °C 31,9 °C 55 % 28 % 1017,6 hPa 0,0 l/m² 6,5 km/h (2 Bft) O-NO 77 ° 2 min 158 W/m² 11,1 °C 31,9 °C 14,5 km/h (3 Bft)
08.07.2023 18:50 23,2 °C 31,8 °C 55 % 27 % 1017,7 hPa 0,0 l/m² 9,8 km/h (2 Bft) O 89 ° 2 min 172 W/m² 10,5 °C 31,7 °C 16,1 km/h (3 Bft)
08.07.2023 18:52 23,2 °C 31,9 °C 55 % 27 % 1017,7 hPa 0,0 l/m² 10,7 km/h (2 Bft) O 84 ° 2 min 67 W/m² 10,5 °C 31,8 °C 14,5 km/h (3 Bft)
08.07.2023 18:54 23,2 °C 31,9 °C 55 % 28 % 1017,7 hPa 0,0 l/m² 5,6 km/h (2 Bft) NO 42 ° 2 min 67 W/m² 11,1 °C 31,9 °C 9,7 km/h (2 Bft)
08.07.2023 18:56 23,2 °C 31,8 °C 55 % 27 % 1017,7 hPa 0,0 l/m² 5,8 km/h (2 Bft) O 92 ° 2 min 65 W/m² 10,5 °C 31,8 °C 8,0 km/h (2 Bft)
08.07.2023 18:58 23,2 °C 31,7 °C 55 % 28 % 1017,7 hPa 0,0 l/m² 5,7 km/h (2 Bft) O 84 ° 2 min 77 W/m² 10,9 °C 31,7 °C 14,5 km/h (3 Bft)
08.07.2023 19:00 23,2 °C 31,8 °C 55 % 26 % 1017,6 hPa 0,0 l/m² 7,8 km/h (2 Bft) O 93 ° 2 min 63 W/m² 9,9 °C 31,7 °C 12,9 km/h (3 Bft)
08.07.2023 19:02 23,2 °C 31,7 °C 55 % 27 % 1017,7 hPa 0,0 l/m² 7,1 km/h (2 Bft) O 99 ° 2 min 62 W/m² 10,4 °C 31,7 °C 12,9 km/h (3 Bft)
08.07.2023 19:04 23,2 °C 31,6 °C 55 % 27 % 1017,7 hPa 0,0 l/m² 8,0 km/h (2 Bft) O-NO 59 ° 2 min 62 W/m² 10,3 °C 31,5 °C 14,5 km/h (3 Bft)
08.07.2023 19:06 23,2 °C 31,5 °C 55 % 28 % 1017,7 hPa 0,0 l/m² 8,3 km/h (2 Bft) O 87 ° 2 min 60 W/m² 10,8 °C 31,4 °C 14,5 km/h (3 Bft)
08.07.2023 19:08 23,2 °C 31,4 °C 55 % 27 % 1017,7 hPa 0,0 l/m² 9,3 km/h (2 Bft) O-NO 74 ° 2 min 60 W/m² 10,1 °C 31,3 °C 16,1 km/h (3 Bft)
08.07.2023 19:10 23,2 °C 31,3 °C 55 % 28 % 1017,7 hPa 0,0 l/m² 8,6 km/h (2 Bft) O-NO 57 ° 2 min 58 W/m² 10,6 °C 31,2 °C 14,5 km/h (3 Bft)
08.07.2023 19:12 23,1 °C 31,3 °C 55 % 27 % 1017,7 hPa 0,0 l/m² 5,9 km/h (2 Bft) NO 55 ° 2 min 58 W/m² 10,0 °C 31,3 °C 12,9 km/h (3 Bft)
08.07.2023 19:14 23,2 °C 31,3 °C 55 % 28 % 1017,7 hPa 0,0 l/m² 7,9 km/h (2 Bft) O 86 ° 2 min 58 W/m² 10,6 °C 31,2 °C 14,5 km/h (3 Bft)
08.07.2023 19:16 23,1 °C 31,2 °C 55 % 28 % 1017,8 hPa 0,0 l/m² 6,9 km/h (2 Bft) O-NO 59 ° 2 min 56 W/m² 10,5 °C 31,2 °C 14,5 km/h (3 Bft)
08.07.2023 19:18 23,2 °C 31,2 °C 55 % 27 % 1017,7 hPa 0,0 l/m² 5,3 km/h (1 Bft) O-NO 61 ° 2 min 56 W/m² 10,0 °C 31,2 °C 11,3 km/h (2 Bft)
08.07.2023 19:20 23,2 °C 31,1 °C 55 % 28 % 1017,7 hPa 0,0 l/m² 7,4 km/h (2 Bft) NO 49 ° 2 min 54 W/m² 10,4 °C 31,0 °C 14,5 km/h (3 Bft)
08.07.2023 19:22 23,2 °C 31,1 °C 55 % 28 % 1017,7 hPa 0,0 l/m² 4,6 km/h (1 Bft) O-NO 75 ° 2 min 54 W/m² 10,4 °C 31,1 °C 9,7 km/h (2 Bft)
08.07.2023 19:24 23,2 °C 31,1 °C 55 % 28 % 1017,7 hPa 0,0 l/m² 14,0 km/h (3 Bft) O-NO 63 ° 2 min 53 W/m² 10,4 °C 30,7 °C 19,3 km/h (3 Bft)
08.07.2023 19:26 23,2 °C 31,0 °C 55 % 28 % 1017,7 hPa 0,0 l/m² 7,4 km/h (2 Bft) O-NO 76 ° 2 min 53 W/m² 10,3 °C 30,9 °C 12,9 km/h (3 Bft)
08.07.2023 19:28 23,2 °C 30,9 °C 55 % 28 % 1017,7 hPa 0,0 l/m² 5,8 km/h (2 Bft) NO 46 ° 2 min 53 W/m² 10,2 °C 30,9 °C 12,9 km/h (3 Bft)
08.07.2023 19:30 23,2 °C 30,9 °C 55 % 29 % 1017,6 hPa 0,0 l/m² 5,1 km/h (1 Bft) NO 51 ° 0 min 51 W/m² 10,8 °C 30,9 °C 8,0 km/h (2 Bft)
08.07.2023 19:32 23,2 °C 30,8 °C 55 % 29 % 1017,7 hPa 0,0 l/m² 4,6 km/h (1 Bft) O 80 ° 0 min 51 W/m² 10,7 °C 30,8 °C 8,0 km/h (2 Bft)
08.07.2023 19:34 23,2 °C 30,8 °C 55 % 29 % 1017,7 hPa 0,0 l/m² 4,5 km/h (1 Bft) O-NO 76 ° 0 min 49 W/m² 10,7 °C 30,8 °C 12,9 km/h (3 Bft)
08.07.2023 19:36 23,2 °C 30,8 °C 55 % 29 % 1017,7 hPa 0,0 l/m² 4,6 km/h (1 Bft) O-NO 63 ° 0 min 49 W/m² 10,7 °C 30,8 °C 8,0 km/h (2 Bft)
08.07.2023 19:38 23,2 °C 30,8 °C 55 % 28 % 1017,7 hPa 0,0 l/m² 5,2 km/h (1 Bft) O-NO 62 ° 0 min 49 W/m² 10,2 °C 30,8 °C 9,7 km/h (2 Bft)
08.07.2023 19:40 23,2 °C 30,7 °C 55 % 29 % 1017,7 hPa 0,0 l/m² 4,7 km/h (1 Bft) O-NO 64 ° 0 min 47 W/m² 10,6 °C 30,7 °C 9,7 km/h (2 Bft)
08.07.2023 19:42 23,2 °C 30,6 °C 55 % 28 % 1017,7 hPa 0,0 l/m² 3,9 km/h (1 Bft) O-NO 58 ° 0 min 47 W/m² 10,0 °C 30,6 °C 6,4 km/h (2 Bft)
08.07.2023 19:44 23,2 °C 30,6 °C 55 % 29 % 1017,6 hPa 0,0 l/m² 3,7 km/h (1 Bft) O-NO 67 ° 0 min 46 W/m² 10,5 °C 30,6 °C 6,4 km/h (2 Bft)
08.07.2023 19:46 23,2 °C 30,4 °C 55 % 29 % 1017,6 hPa 0,0 l/m² 4,8 km/h (1 Bft) O 82 ° 0 min 46 W/m² 10,3 °C 30,4 °C 11,3 km/h (2 Bft)
08.07.2023 19:47 23,2 °C 30,4 °C 55 % 28 % 1017,7 hPa 0,0 l/m² 7,3 km/h (2 Bft) O-NO 68 ° 0 min 44 W/m² 9,8 °C 30,3 °C 12,9 km/h (3 Bft)
08.07.2023 19:48 23,2 °C 30,3 °C 55 % 29 % 1017,6 hPa 0,0 l/m² 3,6 km/h (1 Bft) O-NO 63 ° 0 min 44 W/m² 10,3 °C 30,3 °C 8,0 km/h (2 Bft)
08.07.2023 19:49 23,2 °C 30,3 °C 55 % 29 % 1017,6 hPa 0,0 l/m² 4,1 km/h (1 Bft) O-NO 67 ° 0 min 44 W/m² 10,3 °C 30,3 °C 4,8 km/h (1 Bft)
08.07.2023 19:51 23,2 °C 30,3 °C 55 % 30 % 1017,6 hPa 0,0 l/m² 3,9 km/h (1 Bft) NO 48 ° 0 min 44 W/m² 10,8 °C 30,3 °C 8,0 km/h (2 Bft)
08.07.2023 19:53 23,2 °C 30,3 °C 55 % 30 % 1017,6 hPa 0,0 l/m² 4,5 km/h (1 Bft) O-NO 71 ° 0 min 42 W/m² 10,8 °C 30,3 °C 8,0 km/h (2 Bft)
08.07.2023 19:55 23,2 °C 30,3 °C 55 % 29 % 1017,6 hPa 0,0 l/m² 5,6 km/h (2 Bft) O-NO 74 ° 0 min 42 W/m² 10,3 °C 30,3 °C 9,7 km/h (2 Bft)
08.07.2023 19:57 23,2 °C 30,2 °C 55 % 30 % 1017,6 hPa 0,0 l/m² 4,8 km/h (1 Bft) O-NO 78 ° 0 min 40 W/m² 10,7 °C 30,2 °C 11,3 km/h (2 Bft)
08.07.2023 19:59 23,2 °C 30,1 °C 55 % 30 % 1017,5 hPa 0,0 l/m² 4,7 km/h (1 Bft) O 90 ° 0 min 40 W/m² 10,6 °C 30,1 °C 9,7 km/h (2 Bft)
08.07.2023 20:01 23,2 °C 29,9 °C 55 % 30 % 1017,6 hPa 0,0 l/m² 4,3 km/h (1 Bft) O-NO 57 ° 0 min 39 W/m² 10,4 °C 29,9 °C 8,0 km/h (2 Bft)
08.07.2023 20:02 23,2 °C 30,0 °C 55 % 30 % 1017,6 hPa 0,0 l/m² 2,7 km/h (1 Bft) O-NO 69 ° 0 min 39 W/m² 10,5 °C 30,0 °C 6,4 km/h (2 Bft)
08.07.2023 20:03 23,2 °C 30,0 °C 55 % 30 % 1017,6 hPa 0,0 l/m² 3,6 km/h (1 Bft) O-NO 57 ° 0 min 39 W/m² 10,5 °C 30,0 °C 4,8 km/h (1 Bft)
08.07.2023 20:05 23,1 °C 29,9 °C 55 % 30 % 1017,6 hPa 0,0 l/m² 4,8 km/h (1 Bft) O-NO 63 ° 0 min 37 W/m² 10,4 °C 29,9 °C 8,0 km/h (2 Bft)
08.07.2023 20:07 23,2 °C 29,9 °C 55 % 30 % 1017,7 hPa 0,0 l/m² 3,6 km/h (1 Bft) NO 55 ° 0 min 37 W/m² 10,4 °C 29,9 °C 8,0 km/h (2 Bft)
08.07.2023 20:09 23,2 °C 29,8 °C 55 % 31 % 1017,7 hPa 0,0 l/m² 4,0 km/h (1 Bft) O 92 ° 0 min 37 W/m² 10,8 °C 29,8 °C 8,0 km/h (2 Bft)
08.07.2023 20:11 23,1 °C 29,8 °C 55 % 31 % 1017,6 hPa 0,0 l/m² 2,7 km/h (1 Bft) NO 46 ° 0 min 35 W/m² 10,8 °C 29,8 °C 4,8 km/h (1 Bft)
08.07.2023 20:12 23,2 °C 29,8 °C 55 % 30 % 1017,6 hPa 0,0 l/m² 3,4 km/h (1 Bft) NO 46 ° 0 min 35 W/m² 10,3 °C 29,8 °C 6,4 km/h (2 Bft)
08.07.2023 20:13 23,2 °C 29,7 °C 55 % 31 % 1017,6 hPa 0,0 l/m² 4,4 km/h (1 Bft) O-NO 63 ° 0 min 35 W/m² 10,7 °C 29,7 °C 8,0 km/h (2 Bft)
08.07.2023 20:15 23,2 °C 29,6 °C 55 % 30 % 1017,6 hPa 0,0 l/m² 3,1 km/h (1 Bft) O-NO 66 ° 0 min 33 W/m² 10,2 °C 29,6 °C 6,4 km/h (2 Bft)
08.07.2023 20:17 23,1 °C 29,6 °C 55 % 31 % 1017,7 hPa 0,0 l/m² 3,1 km/h (1 Bft) NO 53 ° 0 min 33 W/m² 10,7 °C 29,6 °C 6,4 km/h (2 Bft)
08.07.2023 20:19 23,2 °C 29,6 °C 55 % 31 % 1017,7 hPa 0,0 l/m² 4,8 km/h (1 Bft) NO 42 ° 0 min 33 W/m² 10,7 °C 29,6 °C 8,0 km/h (2 Bft)
08.07.2023 20:21 23,2 °C 29,5 °C 55 % 32 % 1017,6 hPa 0,0 l/m² 4,6 km/h (1 Bft) NO 41 ° 0 min 32 W/m² 11,0 °C 29,5 °C 9,7 km/h (2 Bft)
08.07.2023 20:23 23,2 °C 29,5 °C 55 % 31 % 1017,6 hPa 0,0 l/m² 3,5 km/h (1 Bft) N-NO 17 ° 0 min 30 W/m² 10,6 °C 29,5 °C 8,0 km/h (2 Bft)
08.07.2023 20:25 23,1 °C 29,4 °C 55 % 31 % 1017,6 hPa 0,0 l/m² 4,2 km/h (1 Bft) NO 47 ° 0 min 30 W/m² 10,5 °C 29,4 °C 9,7 km/h (2 Bft)
08.07.2023 20:27 23,1 °C 28,9 °C 55 % 34 % 1017,7 hPa 0,0 l/m² 1,6 km/h (1 Bft) O-NO 71 ° 0 min 30 W/m² 11,4 °C 28,9 °C 4,8 km/h (1 Bft)
08.07.2023 20:29 23,2 °C 28,7 °C 55 % 34 % 1017,6 hPa 0,0 l/m² 1,4 km/h (1 Bft) O-NO 67 ° 0 min 28 W/m² 11,3 °C 28,7 °C 3,2 km/h (1 Bft)
08.07.2023 20:31 23,2 °C 28,4 °C 55 % 35 % 1017,6 hPa 0,0 l/m² 3,1 km/h (1 Bft) O-NO 68 ° 0 min 28 W/m² 11,4 °C 28,4 °C 4,8 km/h (1 Bft)
08.07.2023 20:33 23,2 °C 28,2 °C 55 % 36 % 1017,7 hPa 0,0 l/m² 2,8 km/h (1 Bft) O-NO 68 ° 0 min 26 W/m² 11,7 °C 28,2 °C 3,2 km/h (1 Bft)
08.07.2023 20:35 23,2 °C 28,0 °C 55 % 36 % 1017,7 hPa 0,0 l/m² 2,3 km/h (1 Bft) O-NO 68 ° 0 min 26 W/m² 11,5 °C 28,0 °C 4,8 km/h (1 Bft)
08.07.2023 20:37 23,2 °C 27,8 °C 55 % 37 % 1017,7 hPa 0,0 l/m² 2,6 km/h (1 Bft) O-NO 68 ° 0 min 25 W/m² 11,8 °C 27,8 °C 3,2 km/h (1 Bft)
08.07.2023 20:39 23,2 °C 27,7 °C 55 % 38 % 1017,8 hPa 0,0 l/m² 2,9 km/h (1 Bft) O-NO 68 ° 0 min 25 W/m² 12,1 °C 27,7 °C 3,2 km/h (1 Bft)
08.07.2023 20:41 23,2 °C 27,5 °C 55 % 37 % 1017,7 hPa 0,0 l/m² 2,4 km/h (1 Bft) O-NO 68 ° 0 min 23 W/m² 11,5 °C 27,5 °C 3,2 km/h (1 Bft)
08.07.2023 20:43 23,2 °C 27,4 °C 55 % 39 % 1017,8 hPa 0,0 l/m² 2,0 km/h (1 Bft) O-NO 68 ° 0 min 23 W/m² 12,2 °C 27,4 °C 3,2 km/h (1 Bft)
08.07.2023 20:45 23,2 °C 27,3 °C 55 % 38 % 1017,8 hPa 0,0 l/m² 2,4 km/h (1 Bft) O-NO 68 ° 0 min 21 W/m² 11,7 °C 27,3 °C 3,2 km/h (1 Bft)
08.07.2023 20:47 23,2 °C 27,3 °C 55 % 38 % 1017,8 hPa 0,0 l/m² 2,3 km/h (1 Bft) O-NO 68 ° 0 min 21 W/m² 11,7 °C 27,3 °C 3,2 km/h (1 Bft)
08.07.2023 20:49 23,2 °C 27,2 °C 55 % 39 % 1017,7 hPa 0,0 l/m² 2,3 km/h (1 Bft) O-NO 68 ° 0 min 19 W/m² 12,0 °C 27,2 °C 3,2 km/h (1 Bft)
08.07.2023 20:51 23,2 °C 27,1 °C 55 % 40 % 1017,9 hPa 0,0 l/m² 1,9 km/h (1 Bft) O-NO 68 ° 0 min 19 W/m² 12,3 °C 27,1 °C 3,2 km/h (1 Bft)
08.07.2023 20:53 23,2 °C 26,9 °C 55 % 39 % 1017,8 hPa 0,0 l/m² 2,0 km/h (1 Bft) O-NO 68 ° 0 min 18 W/m² 11,8 °C 26,9 °C 3,2 km/h (1 Bft)
08.07.2023 20:55 23,2 °C 26,9 °C 55 % 39 % 1017,9 hPa 0,0 l/m² 2,3 km/h (1 Bft) O-NO 68 ° 0 min 18 W/m² 11,8 °C 26,9 °C 3,2 km/h (1 Bft)
08.07.2023 20:57 23,2 °C 26,9 °C 55 % 40 % 1018,0 hPa 0,0 l/m² 0,2 km/h (0 Bft) O-NO 68 ° 0 min 16 W/m² 12,1 °C 26,9 °C 1,6 km/h (1 Bft)
08.07.2023 20:59 23,2 °C 26,9 °C 55 % 39 % 1017,9 hPa 0,0 l/m² 0,8 km/h (0 Bft) O-NO 68 ° 0 min 16 W/m² 11,8 °C 26,9 °C 3,2 km/h (1 Bft)
08.07.2023 21:01 23,2 °C 26,9 °C 55 % 38 % 1017,9 hPa 0,0 l/m² 2,5 km/h (1 Bft) O-NO 65 ° 0 min 14 W/m² 11,4 °C 26,9 °C 4,8 km/h (1 Bft)
08.07.2023 21:03 23,2 °C 26,9 °C 55 % 38 % 1017,9 hPa 0,0 l/m² 2,9 km/h (1 Bft) O-NO 60 ° 0 min 12 W/m² 11,4 °C 26,9 °C 4,8 km/h (1 Bft)
08.07.2023 21:05 23,2 °C 26,9 °C 55 % 38 % 1018,0 hPa 0,0 l/m² 2,3 km/h (1 Bft) O-NO 60 ° 0 min 12 W/m² 11,4 °C 26,9 °C 3,2 km/h (1 Bft)
08.07.2023 21:07 23,2 °C 26,4 °C 56 % 43 % 1018,0 hPa 0,0 l/m² 1,9 km/h (1 Bft) O-NO 60 ° 0 min 11 W/m² 12,8 °C 26,4 °C 3,2 km/h (1 Bft)
08.07.2023 21:09 23,2 °C 25,7 °C 56 % 46 % 1018,0 hPa 0,0 l/m² 1,8 km/h (1 Bft) O-NO 60 ° 0 min 11 W/m² 13,2 °C 25,7 °C 3,2 km/h (1 Bft)
08.07.2023 21:11 23,2 °C 25,2 °C 55 % 47 % 1018,0 hPa 0,0 l/m² 1,8 km/h (1 Bft) O-NO 60 ° 0 min 9 W/m² 13,1 °C 25,2 °C 3,2 km/h (1 Bft)
08.07.2023 21:13 23,2 °C 24,9 °C 56 % 45 % 1018,0 hPa 0,0 l/m² 1,8 km/h (1 Bft) O-NO 60 ° 0 min 9 W/m² 12,1 °C 24,9 °C 3,2 km/h (1 Bft)
08.07.2023 21:15 23,2 °C 24,9 °C 56 % 46 % 1018,0 hPa 0,0 l/m² 1,8 km/h (1 Bft) O-NO 60 ° 0 min 7 W/m² 12,5 °C 24,9 °C 3,2 km/h (1 Bft)
08.07.2023 21:17 23,2 °C 24,9 °C 56 % 44 % 1018,0 hPa 0,0 l/m² 1,9 km/h (1 Bft) O-NO 60 ° 0 min 7 W/m² 11,8 °C 24,9 °C 3,2 km/h (1 Bft)
08.07.2023 21:19 23,2 °C 24,9 °C 56 % 45 % 1018,0 hPa 0,0 l/m² 1,9 km/h (1 Bft) O-NO 60 ° 0 min 5 W/m² 12,1 °C 24,9 °C 3,2 km/h (1 Bft)
08.07.2023 21:21 23,2 °C 24,6 °C 56 % 46 % 1018,0 hPa 0,0 l/m² 2,0 km/h (1 Bft) O-NO 60 ° 0 min 5 W/m² 12,2 °C 24,6 °C 3,2 km/h (1 Bft)
08.07.2023 21:23 23,2 °C 24,3 °C 56 % 47 % 1018,1 hPa 0,0 l/m² 1,8 km/h (1 Bft) O-NO 60 ° 0 min 5 W/m² 12,3 °C 24,3 °C 3,2 km/h (1 Bft)
08.07.2023 21:25 23,2 °C 24,1 °C 56 % 48 % 1018,1 hPa 0,0 l/m² 2,4 km/h (1 Bft) O-NO 60 ° 0 min 0 W/m² 12,4 °C 24,1 °C 3,2 km/h (1 Bft)
08.07.2023 21:27 23,2 °C 23,8 °C 56 % 49 % 1018,1 hPa 0,0 l/m² 2,8 km/h (1 Bft) O-NO 60 ° 0 min 0 W/m² 12,4 °C 23,8 °C 3,2 km/h (1 Bft)
08.07.2023 21:29 23,2 °C 23,6 °C 56 % 51 % 1018,1 hPa 0,0 l/m² 0,8 km/h (0 Bft) O-NO 60 ° 0 min 0 W/m² 12,9 °C 23,6 °C 3,2 km/h (1 Bft)
08.07.2023 21:31 23,2 °C 23,1 °C 56 % 56 % 1018,1 hPa 0,0 l/m² 0,0 km/h (0 Bft) O-NO 60 ° 0 min 0 W/m² 13,8 °C 23,1 °C 0,0 km/h (0 Bft)
08.07.2023 21:32 23,2 °C 22,9 °C 56 % 59 % 1018,1 hPa 0,0 l/m² 1,4 km/h (1 Bft) O-NO 60 ° 0 min 0 W/m² 14,5 °C 22,9 °C 3,2 km/h (1 Bft)
08.07.2023 21:33 23,2 °C 22,7 °C 56 % 59 % 1018,1 hPa 0,0 l/m² 1,5 km/h (1 Bft) O-NO 60 ° 0 min 0 W/m² 14,3 °C 22,7 °C 1,6 km/h (1 Bft)
08.07.2023 21:35 23,2 °C 22,6 °C 56 % 56 % 1018,2 hPa 0,0 l/m² 1,3 km/h (1 Bft) O-NO 60 ° 0 min 0 W/m² 13,4 °C 22,6 °C 1,6 km/h (1 Bft)
08.07.2023 21:37 23,2 °C 22,5 °C 56 % 54 % 1018,2 hPa 0,0 l/m² 0,0 km/h (0 Bft) O-NO 60 ° 0 min 0 W/m² 12,7 °C 22,5 °C 0,0 km/h (0 Bft)
08.07.2023 21:39 23,2 °C 22,5 °C 56 % 55 % 1018,3 hPa 0,0 l/m² 0,0 km/h (0 Bft) O-NO 60 ° 0 min 0 W/m² 13,0 °C 22,5 °C 0,0 km/h (0 Bft)
08.07.2023 21:41 23,2 °C 22,4 °C 56 % 56 % 1018,2 hPa 0,0 l/m² 0,0 km/h (0 Bft) O-NO 60 ° 0 min 0 W/m² 13,2 °C 22,4 °C 0,0 km/h (0 Bft)
08.07.2023 21:43 23,2 °C 22,1 °C 56 % 58 % 1018,3 hPa 0,0 l/m² 0,0 km/h (0 Bft) O-NO 60 ° 0 min 0 W/m² 13,4 °C 22,1 °C 0,0 km/h (0 Bft)
08.07.2023 21:45 23,2 °C 21,8 °C 56 % 58 % 1018,3 hPa 0,0 l/m² 0,0 km/h (0 Bft) O-NO 60 ° 0 min 0 W/m² 13,2 °C 21,8 °C 0,0 km/h (0 Bft)
08.07.2023 21:46 23,2 °C 21,7 °C 56 % 58 % 1018,3 hPa 0,0 l/m² 0,0 km/h (0 Bft) O-NO 60 ° 0 min 0 W/m² 13,1 °C 21,7 °C 0,0 km/h (0 Bft)
08.07.2023 21:48 23,2 °C 21,4 °C 56 % 61 % 1018,3 hPa 0,0 l/m² 0,0 km/h (0 Bft) O-NO 60 ° 0 min 0 W/m² 13,6 °C 21,4 °C 0,0 km/h (0 Bft)
08.07.2023 21:50 23,2 °C 21,2 °C 56 % 63 % 1018,3 hPa 0,0 l/m² 1,4 km/h (1 Bft) O-NO 60 ° 0 min 0 W/m² 13,9 °C 21,2 °C 3,2 km/h (1 Bft)
08.07.2023 21:52 23,2 °C 21,3 °C 56 % 62 % 1018,4 hPa 0,0 l/m² 1,0 km/h (0 Bft) O-NO 60 ° 0 min 0 W/m² 13,7 °C 21,3 °C 1,6 km/h (1 Bft)
08.07.2023 21:54 23,2 °C 21,4 °C 56 % 62 % 1018,3 hPa 0,0 l/m² 0,1 km/h (0 Bft) O-NO 60 ° 0 min 0 W/m² 13,8 °C 21,4 °C 1,6 km/h (1 Bft)
08.07.2023 21:56 23,2 °C 21,3 °C 56 % 63 % 1018,4 hPa 0,0 l/m² 0,0 km/h (0 Bft) O-NO 60 ° 0 min 0 W/m² 14,0 °C 21,3 °C 0,0 km/h (0 Bft)
08.07.2023 21:58 23,2 °C 21,2 °C 56 % 63 % 1018,4 hPa 0,0 l/m² 0,0 km/h (0 Bft) O-NO 60 ° 0 min 0 W/m² 13,9 °C 21,2 °C 0,0 km/h (0 Bft)
08.07.2023 22:00 23,2 °C 21,1 °C 56 % 63 % 1018,4 hPa 0,0 l/m² 0,0 km/h (0 Bft) O-NO 60 ° 0 min 0 W/m² 13,8 °C 21,1 °C 0,0 km/h (0 Bft)
08.07.2023 22:02 23,2 °C 20,9 °C 56 % 63 % 1018,4 hPa 0,0 l/m² 0,0 km/h (0 Bft) O-NO 60 ° 0 min 0 W/m² 13,6 °C 20,9 °C 0,0 km/h (0 Bft)
08.07.2023 22:04 23,2 °C 20,8 °C 56 % 64 % 1018,4 hPa 0,0 l/m² 0,0 km/h (0 Bft) O-NO 60 ° 0 min 0 W/m² 13,7 °C 20,8 °C 0,0 km/h (0 Bft)
08.07.2023 22:06 23,2 °C 20,6 °C 56 % 66 % 1018,5 hPa 0,0 l/m² 0,0 km/h (0 Bft) O-NO 60 ° 0 min 0 W/m² 14,0 °C 20,6 °C 0,0 km/h (0 Bft)
08.07.2023 22:08 23,2 °C 20,4 °C 56 % 67 % 1018,5 hPa 0,0 l/m² 0,0 km/h (0 Bft) O-NO 60 ° 0 min 0 W/m² 14,1 °C 20,4 °C 0,0 km/h (0 Bft)
08.07.2023 22:10 23,2 °C 20,3 °C 56 % 67 % 1018,5 hPa 0,0 l/m² 0,0 km/h (0 Bft) O-NO 60 ° 0 min 0 W/m² 14,0 °C 20,3 °C 0,0 km/h (0 Bft)
08.07.2023 22:12 23,2 °C 20,1 °C 56 % 68 % 1018,5 hPa 0,0 l/m² 0,0 km/h (0 Bft) O-NO 60 ° 0 min 0 W/m² 14,0 °C 20,1 °C 0,0 km/h (0 Bft)
08.07.2023 22:14 23,2 °C 19,9 °C 56 % 65 % 1018,5 hPa 0,0 l/m² 0,0 km/h (0 Bft) O-NO 60 ° 0 min 0 W/m² 13,1 °C 19,9 °C 0,0 km/h (0 Bft)
08.07.2023 22:16 23,2 °C 19,8 °C 56 % 66 % 1018,6 hPa 0,0 l/m² 0,0 km/h (0 Bft) O-NO 60 ° 0 min 0 W/m² 13,3 °C 19,8 °C 0,0 km/h (0 Bft)
08.07.2023 22:18 23,2 °C 19,7 °C 56 % 65 % 1018,6 hPa 0,0 l/m² 0,0 km/h (0 Bft) O-NO 60 ° 0 min 0 W/m² 12,9 °C 19,7 °C 0,0 km/h (0 Bft)
08.07.2023 22:20 23,2 °C 19,6 °C 56 % 65 % 1018,5 hPa 0,0 l/m² 0,0 km/h (0 Bft) O-NO 60 ° 0 min 0 W/m² 12,8 °C 19,6 °C 0,0 km/h (0 Bft)
08.07.2023 22:22 23,2 °C 19,4 °C 56 % 67 % 1018,5 hPa 0,0 l/m² 0,0 km/h (0 Bft) O-NO 60 ° 0 min 0 W/m² 13,1 °C 19,4 °C 0,0 km/h (0 Bft)
08.07.2023 22:24 23,2 °C 19,4 °C 56 % 68 % 1018,5 hPa 0,0 l/m² 0,0 km/h (0 Bft) O-NO 60 ° 0 min 0 W/m² 13,3 °C 19,4 °C 0,0 km/h (0 Bft)
08.07.2023 22:26 23,2 °C 19,5 °C 56 % 68 % 1018,6 hPa 0,0 l/m² 0,0 km/h (0 Bft) O-NO 60 ° 0 min 0 W/m² 13,4 °C 19,5 °C 0,0 km/h (0 Bft)
08.07.2023 22:28 23,2 °C 19,6 °C 56 % 68 % 1018,6 hPa 0,0 l/m² 0,0 km/h (0 Bft) O-NO 60 ° 0 min 0 W/m² 13,5 °C 19,6 °C 0,0 km/h (0 Bft)
08.07.2023 22:30 23,2 °C 19,7 °C 56 % 68 % 1018,6 hPa 0,0 l/m² 0,0 km/h (0 Bft) O-NO 60 ° 0 min 0 W/m² 13,6 °C 19,7 °C 0,0 km/h (0 Bft)
08.07.2023 22:32 23,2 °C 19,7 °C 56 % 68 % 1018,6 hPa 0,0 l/m² 0,0 km/h (0 Bft) O-NO 60 ° 0 min 0 W/m² 13,6 °C 19,7 °C 0,0 km/h (0 Bft)
08.07.2023 22:34 23,2 °C 19,6 °C 56 % 69 % 1018,6 hPa 0,0 l/m² 0,0 km/h (0 Bft) O-NO 60 ° 0 min 0 W/m² 13,8 °C 19,6 °C 0,0 km/h (0 Bft)
08.07.2023 22:36 23,2 °C 19,3 °C 56 % 70 % 1018,7 hPa 0,0 l/m² 0,0 km/h (0 Bft) O-NO 60 ° 0 min 0 W/m² 13,7 °C 19,3 °C 0,0 km/h (0 Bft)
08.07.2023 22:38 23,2 °C 19,1 °C 56 % 71 % 1018,6 hPa 0,0 l/m² 0,0 km/h (0 Bft) O-NO 60 ° 0 min 0 W/m² 13,7 °C 19,1 °C 0,0 km/h (0 Bft)
08.07.2023 22:40 23,2 °C 19,0 °C 56 % 73 % 1018,7 hPa 0,0 l/m² 0,0 km/h (0 Bft) O-NO 60 ° 0 min 0 W/m² 14,0 °C 19,0 °C 0,0 km/h (0 Bft)
08.07.2023 22:42 23,2 °C 18,9 °C 56 % 76 % 1018,7 hPa 0,0 l/m² 0,0 km/h (0 Bft) O-NO 60 ° 0 min 0 W/m² 14,6 °C 18,9 °C 0,0 km/h (0 Bft)
08.07.2023 22:44 23,2 °C 18,8 °C 56 % 76 % 1018,7 hPa 0,0 l/m² 0,0 km/h (0 Bft) O-NO 60 ° 0 min 0 W/m² 14,5 °C 18,8 °C 0,0 km/h (0 Bft)
08.07.2023 22:46 23,2 °C 18,7 °C 56 % 77 % 1018,7 hPa 0,0 l/m² 0,0 km/h (0 Bft) O-NO 60 ° 0 min 0 W/m² 14,6 °C 18,7 °C 0,0 km/h (0 Bft)
08.07.2023 22:48 23,2 °C 18,6 °C 56 % 76 % 1018,7 hPa 0,0 l/m² 0,0 km/h (0 Bft) O-NO 60 ° 0 min 0 W/m² 14,3 °C 18,6 °C 0,0 km/h (0 Bft)
08.07.2023 22:50 23,2 °C 18,4 °C 56 % 75 % 1018,8 hPa 0,0 l/m² 0,0 km/h (0 Bft) O-NO 60 ° 0 min 0 W/m² 13,9 °C 18,4 °C 0,0 km/h (0 Bft)
08.07.2023 22:52 23,2 °C 18,4 °C 56 % 74 % 1018,8 hPa 0,0 l/m² 0,0 km/h (0 Bft) O-NO 60 ° 0 min 0 W/m² 13,7 °C 18,4 °C 0,0 km/h (0 Bft)
08.07.2023 22:54 23,2 °C 18,4 °C 56 % 74 % 1018,8 hPa 0,0 l/m² 0,0 km/h (0 Bft) O-NO 60 ° 0 min 0 W/m² 13,7 °C 18,4 °C 0,0 km/h (0 Bft)
08.07.2023 22:56 23,2 °C 18,3 °C 56 % 74 % 1018,9 hPa 0,0 l/m² 0,0 km/h (0 Bft) O-NO 60 ° 0 min 0 W/m² 13,6 °C 18,3 °C 0,0 km/h (0 Bft)
08.07.2023 22:58 23,2 °C 18,3 °C 56 % 74 % 1018,8 hPa 0,0 l/m² 0,0 km/h (0 Bft) O-NO 60 ° 0 min 0 W/m² 13,6 °C 18,3 °C 0,0 km/h (0 Bft)
08.07.2023 23:00 23,2 °C 18,2 °C 56 % 76 % 1018,9 hPa 0,0 l/m² 0,0 km/h (0 Bft) O-NO 60 ° 0 min 0 W/m² 13,9 °C 18,2 °C 0,0 km/h (0 Bft)
08.07.2023 23:02 23,2 °C 18,1 °C 56 % 76 % 1018,9 hPa 0,0 l/m² 0,0 km/h (0 Bft) O-NO 60 ° 0 min 0 W/m² 13,8 °C 18,1 °C 0,0 km/h (0 Bft)
08.07.2023 23:04 23,2 °C 18,1 °C 56 % 76 % 1019,0 hPa 0,0 l/m² 0,0 km/h (0 Bft) O-NO 60 ° 0 min 0 W/m² 13,8 °C 18,1 °C 0,0 km/h (0 Bft)
08.07.2023 23:06 23,2 °C 18,0 °C 56 % 76 % 1018,9 hPa 0,0 l/m² 0,0 km/h (0 Bft) O-NO 60 ° 0 min 0 W/m² 13,7 °C 18,0 °C 0,0 km/h (0 Bft)
08.07.2023 23:08 23,2 °C 17,9 °C 56 % 76 % 1019,0 hPa 0,0 l/m² 0,0 km/h (0 Bft) O-NO 60 ° 0 min 0 W/m² 13,6 °C 17,9 °C 0,0 km/h (0 Bft)
08.07.2023 23:10 23,2 °C 17,9 °C 56 % 76 % 1019,0 hPa 0,0 l/m² 0,0 km/h (0 Bft) O-NO 60 ° 0 min 0 W/m² 13,6 °C 17,9 °C 0,0 km/h (0 Bft)
08.07.2023 23:12 23,2 °C 18,0 °C 56 % 76 % 1019,0 hPa 0,0 l/m² 0,6 km/h (0 Bft) O-NO 60 ° 0 min 0 W/m² 13,7 °C 18,0 °C 3,2 km/h (1 Bft)
08.07.2023 23:14 23,2 °C 18,1 °C 56 % 76 % 1019,1 hPa 0,0 l/m² 1,0 km/h (0 Bft) NO 53 ° 0 min 0 W/m² 13,8 °C 18,1 °C 4,8 km/h (1 Bft)
08.07.2023 23:15 23,2 °C 18,2 °C 56 % 75 % 1019,0 hPa 0,0 l/m² 0,0 km/h (0 Bft) N 0 ° 0 min 0 W/m² 13,7 °C 18,2 °C 0,0 km/h (0 Bft)
08.07.2023 23:16 23,2 °C 18,2 °C 56 % 74 % 1019,1 hPa 0,0 l/m² 0,0 km/h (0 Bft) N 0 ° 0 min 0 W/m² 13,5 °C 18,2 °C 0,0 km/h (0 Bft)
08.07.2023 23:17 23,2 °C 18,0 °C 56 % 73 % 1019,1 hPa 0,0 l/m² 0,0 km/h (0 Bft) N 0 ° 0 min 0 W/m² 13,1 °C 18,0 °C 0,0 km/h (0 Bft)
08.07.2023 23:22 23,2 °C 17,5 °C 56 % 74 % 1019,1 hPa 0,0 l/m² 0,0 km/h (0 Bft) NO 53 ° 0 min 0 W/m² 12,8 °C 17,5 °C 0,0 km/h (0 Bft)
08.07.2023 23:24 23,2 °C 16,9 °C 56 % 69 % 1019,1 hPa 0,0 l/m² 0,0 km/h (0 Bft) NO 53 ° 0 min 0 W/m² 11,2 °C 16,9 °C 0,0 km/h (0 Bft)
08.07.2023 23:25 23,2 °C 16,7 °C 56 % 69 % 1019,1 hPa 0,0 l/m² 0,2 km/h (0 Bft) NO 53 ° 0 min 0 W/m² 11,0 °C 16,7 °C 1,6 km/h (1 Bft)
08.07.2023 23:26 23,2 °C 16,6 °C 56 % 69 % 1019,2 hPa 0,0 l/m² 2,3 km/h (1 Bft) NO 53 ° 0 min 0 W/m² 10,9 °C 16,6 °C 3,2 km/h (1 Bft)
08.07.2023 23:28 23,2 °C 16,4 °C 56 % 71 % 1019,2 hPa 0,0 l/m² 2,1 km/h (1 Bft) NO 53 ° 0 min 0 W/m² 11,1 °C 16,4 °C 4,8 km/h (1 Bft)
08.07.2023 23:30 23,2 °C 16,6 °C 56 % 74 % 1019,3 hPa 0,0 l/m² 1,3 km/h (1 Bft) NO 53 ° 0 min 0 W/m² 11,9 °C 16,6 °C 3,2 km/h (1 Bft)
08.07.2023 23:31 23,2 °C 16,6 °C 56 % 75 % 1019,2 hPa 0,0 l/m² 0,0 km/h (0 Bft) NO 53 ° 0 min 0 W/m² 12,1 °C 16,6 °C 0,0 km/h (0 Bft)
08.07.2023 23:32 23,2 °C 16,6 °C 56 % 76 % 1019,2 hPa 0,0 l/m² 0,0 km/h (0 Bft) NO 53 ° 0 min 0 W/m² 12,3 °C 16,6 °C 0,0 km/h (0 Bft)
08.07.2023 23:33 23,2 °C 16,6 °C 56 % 77 % 1019,2 hPa 0,0 l/m² 0,0 km/h (0 Bft) NO 53 ° 0 min 0 W/m² 12,5 °C 16,6 °C 0,0 km/h (0 Bft)
08.07.2023 23:34 23,2 °C 16,6 °C 56 % 78 % 1019,2 hPa 0,0 l/m² 0,0 km/h (0 Bft) NO 53 ° 0 min 0 W/m² 12,7 °C 16,6 °C 0,0 km/h (0 Bft)
08.07.2023 23:36 23,2 °C 16,7 °C 56 % 79 % 1019,2 hPa 0,0 l/m² 0,0 km/h (0 Bft) NO 53 ° 0 min 0 W/m² 13,0 °C 16,7 °C 0,0 km/h (0 Bft)
08.07.2023 23:38 23,2 °C 16,7 °C 56 % 79 % 1019,2 hPa 0,0 l/m² 0,0 km/h (0 Bft) NO 53 ° 0 min 0 W/m² 13,0 °C 16,7 °C 0,0 km/h (0 Bft)
08.07.2023 23:40 23,2 °C 16,8 °C 56 % 79 % 1019,2 hPa 0,0 l/m² 0,0 km/h (0 Bft) NO 53 ° 0 min 0 W/m² 13,1 °C 16,8 °C 0,0 km/h (0 Bft)
08.07.2023 23:41 23,2 °C 16,9 °C 56 % 78 % 1019,2 hPa 0,0 l/m² 0,0 km/h (0 Bft) NO 53 ° 0 min 0 W/m² 13,0 °C 16,9 °C 0,0 km/h (0 Bft)
08.07.2023 23:42 23,2 °C 16,9 °C 56 % 78 % 1019,2 hPa 0,0 l/m² 0,0 km/h (0 Bft) NO 53 ° 0 min 0 W/m² 13,0 °C 16,9 °C 0,0 km/h (0 Bft)
08.07.2023 23:44 23,2 °C 16,9 °C 56 % 77 % 1019,2 hPa 0,0 l/m² 0,0 km/h (0 Bft) NO 53 ° 0 min 0 W/m² 12,8 °C 16,9 °C 0,0 km/h (0 Bft)
08.07.2023 23:45 23,2 °C 17,0 °C 56 % 77 % 1019,3 hPa 0,0 l/m² 0,0 km/h (0 Bft) NO 53 ° 0 min 0 W/m² 12,9 °C 17,0 °C 0,0 km/h (0 Bft)
08.07.2023 23:47 23,2 °C 17,1 °C 56 % 77 % 1019,2 hPa 0,0 l/m² 0,0 km/h (0 Bft) NO 53 ° 0 min 0 W/m² 13,0 °C 17,1 °C 0,0 km/h (0 Bft)
08.07.2023 23:49 23,2 °C 17,1 °C 56 % 77 % 1019,2 hPa 0,0 l/m² 0,0 km/h (0 Bft) NO 53 ° 0 min 0 W/m² 13,0 °C 17,1 °C 0,0 km/h (0 Bft)
08.07.2023 23:50 23,2 °C 17,1 °C 56 % 78 % 1019,3 hPa 0,0 l/m² 0,0 km/h (0 Bft) NO 53 ° 0 min 0 W/m² 13,2 °C 17,1 °C 0,0 km/h (0 Bft)
08.07.2023 23:52 23,2 °C 17,1 °C 56 % 78 % 1019,3 hPa 0,0 l/m² 0,0 km/h (0 Bft) NO 53 ° 0 min 0 W/m² 13,2 °C 17,1 °C 0,0 km/h (0 Bft)
08.07.2023 23:53 23,2 °C 17,1 °C 56 % 78 % 1019,2 hPa 0,0 l/m² 0,0 km/h (0 Bft) NO 53 ° 0 min 0 W/m² 13,2 °C 17,1 °C 0,0 km/h (0 Bft)
08.07.2023 23:54 23,2 °C 17,1 °C 56 % 78 % 1019,2 hPa 0,0 l/m² 0,0 km/h (0 Bft) NO 53 ° 0 min 0 W/m² 13,2 °C 17,1 °C 0,0 km/h (0 Bft)
08.07.2023 23:56 23,2 °C 17,1 °C 56 % 77 % 1019,2 hPa 0,0 l/m² 0,0 km/h (0 Bft) NO 53 ° 0 min 0 W/m² 13,0 °C 17,1 °C 0,0 km/h (0 Bft)
08.07.2023 23:58 23,2 °C 17,1 °C 56 % 76 % 1019,3 hPa 0,0 l/m² 0,0 km/h (0 Bft) NO 53 ° 0 min 0 W/m² 12,8 °C 17,1 °C 0,0 km/h (0 Bft)
08.07.2023 23:59 23,2 °C 17,1 °C 56 % 77 % 1019,3 hPa 0,0 l/m² 0,0 km/h (0 Bft) NO 53 ° 0 min 0 W/m² 13,0 °C 17,1 °C 0,0 km/h (0 Bft)
_ Min-Zeit 07:50 05:10 16:43 14:00 19:59 - 23:59 - - - - 05:06 05:10 23:59
Minimum _ 22,6 °C 10,4 °C 54 % 23 % 1017,5 hPa - 0,0 km/h (0 Bft) - - - - 8,5 °C 10,4 °C 0,0 km/h (0 Bft)
_ Max-Zeit 23:59 14:38 23:59 06:39 00:00 23:59 13:30 - - 06:25 13:28 22:46 14:38 12:50
Maximum _ 23,2 °C 33,9 °C 56 % 91 % 1020,4 hPa 0,0 l/m² 17,7 km/h
SO (3 Bft)
- - 3 min 1005 W/m² 14,6 °C 33,9 °C 25,7 km/h
O-NO (4 Bft)
Durchschnitt _ 22,9 °C 23,2 °C 55 % 55 % 1019,0 hPa #0,0 l/m² 2,8 km/h (1 Bft) O-NO - #13:17 h 326 W/m² 11,5 °C 23,2 °C 5,3 km/h (1 Bft)
© 2009 Mathias Hoßbach